[[{"header":{"parameterUnit":"m.s-1","parameterCategory":1,"la1":31.0,"la2":29.5877,"lo1":-88.7671,"lo2":-86.6584,"dy":0.0162,"dx":0.0185,"nx":115,"ny":88,"refTime":"2026-03-25T00:00:00:Z","depth":0,"parameterNumber":2,"parameterNumberName":"U-component_of_WINDS"},"data":[0.0,0.0,0.0,0.0,0.0,0.0,0.0,0.0,0.0,0.0,0.0,0.0,0.0,0.0,0.0,0.0,0.0,0.0,0.0,0.0,0.0,0.0,0.0,0.0,0.0,0.0,0.0,0.0,0.0,0.0,0.0,0.0,0.0,0.0,0.0,0.0,0.0,0.0,0.0,0.0,0.0,0.0,0.0,0.0,0.0,0.0,0.0,0.0,0.0,0.0,0.0,0.0,0.0,0.0,0.0,0.0,0.0,0.0,0.0,0.0,0.0,0.0,0.0,0.0,0.0,0.0,0.0,0.0,0.0,0.0,0.0,0.0,0.0,0.0,0.0,0.0,0.0,0.0,0.0,0.0,0.0,0.0,0.0,0.0,0.0,0.0,0.0,0.0,0.0,0.0,0.0,0.0,0.0,0.0,0.0,0.0,0.0,0.0,0.0,0.0,0.0,0.0,0.0,0.0,0.0,0.0,0.0,0.0,0.0,0.0,0.0,0.0,0.0,0.0,0.0,0.0,0.0,0.0,0.0,0.0,0.0,0.0,0.0,0.0,0.0,0.0,0.0,0.0,0.0,0.0,0.0,0.0,0.0,0.0,0.0,0.0,0.0,0.0,0.0,0.0,0.0,0.0,0.0,0.0,0.0,0.0,0.0,0.0,0.0,0.0,0.0,0.0,0.0,0.0,0.0,0.0,0.0,0.0,0.0,0.0,0.0,0.0,0.0,0.0,0.0,0.0,0.0,0.0,0.0,0.0,0.0,0.0,0.0,0.0,0.0,0.0,0.0,0.0,0.0,0.0,0.0,0.0,0.0,0.0,0.0,0.0,0.0,0.0,0.0,0.0,0.0,0.0,0.0,0.0,0.0,0.0,0.0,0.0,0.0,0.0,0.0,0.0,0.0,0.0,0.0,0.0,0.0,0.0,0.0,0.0,0.0,0.0,0.0,0.0,0.0,0.0,0.0,0.0,0.0,0.0,0.0,0.0,0.0,0.0,0.0,0.0,0.0,0.0,0.0,0.0,0.0,0.0,0.0,0.0,0.0,0.0,0.0,0.0,0.0,0.0,0.0,0.0,0.0,0.0,0.0,0.0,0.0,0.0,0.0,0.0,0.0,0.0,0.0,0.0,0.0,0.0,0.0,0.0,0.0,0.0,0.0,0.0,0.0,0.0,0.0,0.0,0.0,0.0,0.0,0.0,0.0,0.0,0.0,0.0,0.0,0.0,0.0,0.0,0.0,0.0,0.0,0.0,0.0,0.0,0.0,0.0,0.0,0.0,0.0,0.0,0.0,0.0,0.0,0.0,0.0,0.0,0.0,0.0,0.0,0.0,0.0,0.0,0.0,0.0,0.0,0.0,0.0,0.0,0.0,0.0,0.0,0.0,0.0,0.0,0.0,0.0,0.0,0.0,0.0,0.0,0.0,0.0,0.0,0.0,0.0,0.0,0.0,0.0,0.0,0.0,0.0,0.0,0.0,0.0,0.0,0.0,0.0,0.0,0.0,0.0,0.0,0.0,0.0,0.0,0.0,0.0,0.0,0.0,0.0,0.0,0.0,0.0,0.0,0.0,0.0,0.0,0.0,0.0,0.0,0.0,0.0,0.0,0.0,0.0,0.0,0.0,0.0,0.0,0.0,0.0,0.0,0.0,0.0,0.0,0.0,0.0,0.0,0.0,0.0,0.0,0.0,0.0,0.0,0.0,0.0,0.0,0.0,0.0,0.0,0.0,0.0,0.0,0.0,0.0,0.0,0.0,0.0,0.0,0.0,0.0,0.0,0.0,0.0,0.0,0.0,0.0,0.0,0.0,0.0,0.0,0.0,0.0,0.0,0.0,0.0,0.0,0.0,0.0,0.0,0.0,0.0,0.0,0.0,0.0,0.0,0.0,0.0,0.0,0.0,0.0,0.0,0.0,0.0,0.0,0.0,0.0,0.0,0.0,0.0,0.0,0.0,0.0,0.0,0.0,0.0,0.0,0.0,0.0,0.0,0.0,0.0,0.0,0.0,0.0,0.0,0.0,0.0,0.0,0.0,0.0,0.0,0.0,0.0,0.0,0.0,0.0,0.0,0.0,0.0,0.0,0.0,0.0,0.0,0.0,0.0,0.0,0.0,0.0,0.0,0.0,0.0,0.0,0.0,0.0,0.0,0.0,0.0,0.0,0.0,0.0,0.0,0.0,0.0,0.0,0.0,0.0,0.0,0.0,0.0,0.0,0.0,0.0,0.0,0.0,0.0,0.0,0.0,0.0,0.0,0.0,0.0,0.0,0.0,0.0,0.0,0.0,0.0,0.0,0.0,0.0,0.0,0.0,0.0,0.0,0.0,0.0,0.0,0.0,0.0,0.0,0.0,0.0,0.0,0.0,0.0,0.0,0.0,0.0,0.0,0.0,0.0,0.0,0.0,0.0,0.0,0.0,0.0,0.0,0.0,0.0,0.0,0.0,0.0,0.0,0.0,0.0,0.0,0.0,0.0,0.0,0.0,0.0,0.0,0.0,0.0,0.0,0.0,0.0,0.0,0.0,0.0,0.0,0.0,0.0,0.0,0.0,0.0,0.0,0.0,0.0,0.0,0.0,0.0,0.0,0.0,0.0,0.0,0.0,0.0,0.0,0.0,0.0,0.0,0.0,0.0,0.0,0.0,0.0,0.0,0.0,0.0,0.0,0.0,0.0,0.0,0.0,0.0,0.0,0.0,0.0,0.0,0.0,0.0,0.0,0.0,0.0,0.0,0.0,0.0,0.0,0.0,0.0,0.0,0.0,0.0,0.0,0.0,0.0,0.0,0.0,0.0,0.0,0.0,0.0,0.0,0.0,0.0,0.0,0.0,0.0,0.0,0.0,0.0,0.0,0.0,0.0,0.0,0.0,0.0,0.0,0.0,0.0,0.0,0.0,0.0,0.0,0.0,0.0,0.0,0.0,0.0,0.0,0.0,0.0,0.0,0.0,0.0,0.0,0.0,0.0,0.0,0.0,0.0,0.0,0.0,0.0,0.0,0.0,0.0,0.0,0.0,0.0,0.0,0.0,0.0,0.0,0.0,0.0,0.0,0.0,0.0,0.0,0.0,0.0,0.0,0.0,0.0,0.0,0.0,0.0,0.0,0.0,0.0,0.0,0.0,0.0,0.0,0.0,0.0,0.0,0.0,0.0,0.0,0.0,0.0,0.0,0.0,0.0,0.0,0.0,0.0,0.0,0.0,0.0,0.0,0.0,0.0,0.0,0.0,0.0,0.0,0.0,0.0,0.0,0.0,0.0,0.0,0.0,0.0,0.0,0.0,0.0,0.0,0.0,0.0,0.0,0.0,0.0,0.0,0.0,0.0,0.0,0.0,0.0,0.0,0.0,0.0,0.0,0.0,0.0,0.0,0.0,0.0,0.0,0.0,0.0,0.0,0.0,0.0,0.0,0.0,0.0,0.0,0.0,0.0,0.0,0.0,0.0,0.0,0.0,0.0,0.0,0.0,0.0,0.0,0.0,0.0,0.0,0.0,0.0,0.0,0.0,0.0,0.0,0.0,0.0,0.0,0.0,0.0,0.0,0.0,0.0,0.0,0.0,0.0,0.0,0.0,0.0,0.0,0.0,0.0,0.0,0.0,0.0,0.0,0.0,0.0,0.0,0.0,0.0,0.0,0.0,0.0,0.0,0.0,0.0,0.0,0.0,0.0,0.0,0.0,0.0,0.0,0.0,0.0,0.0,0.0,0.0,0.0,0.0,0.0,0.0,0.0,0.0,0.0,0.0,0.0,0.0,0.0,0.0,0.0,0.0,0.0,0.0,0.0,0.0,0.0,0.0,0.0,0.0,0.0,0.0,0.0,0.0,0.0,0.0,0.0,0.0,0.0,0.0,0.0,0.0,0.0,0.0,0.0,0.0,0.0,0.0,0.0,0.0,0.0,0.0,0.0,0.0,0.0,0.0,0.0,0.0,0.0,0.0,0.0,0.0,0.0,0.0,0.0,0.0,0.0,0.0,0.0,0.0,0.0,0.0,0.0,0.0,0.0,0.0,0.0,0.0,0.0,0.0,0.0,0.0,0.0,0.0,0.0,0.0,0.0,0.0,0.0,0.0,0.0,0.0,0.0,0.0,0.0,0.0,0.0,0.0,0.0,0.0,0.0,0.0,0.0,0.0,0.0,0.0,0.0,0.0,0.0,0.0,0.0,0.0,0.0,0.0,0.0,0.0,0.0,0.0,0.0,0.0,0.0,0.0,0.0,0.0,0.0,0.0,0.0,0.0,0.0,0.0,0.0,0.0,0.0,0.0,0.0,0.0,2.4869,0.0,0.0,0.0,0.0,0.0,0.0,0.0,0.0,0.0,0.0,0.0,0.0,0.0,0.0,0.0,0.0,0.0,0.0,0.0,0.0,0.0,0.0,0.0,0.0,0.0,0.0,0.0,0.0,0.0,0.0,0.0,0.0,0.0,0.0,0.0,0.0,0.0,0.0,0.0,0.0,0.0,0.0,0.0,0.0,0.0,0.0,0.0,0.0,0.0,0.0,0.0,0.0,0.0,0.0,0.0,0.0,0.0,0.0,0.0,0.0,0.0,0.0,0.0,0.0,0.0,0.0,0.0,0.0,0.0,0.0,0.0,0.0,0.0,0.0,0.0,0.0,0.0,0.0,0.0,0.0,0.0,0.0,0.0,0.0,0.0,0.0,0.0,0.0,0.0,0.0,0.0,0.0,0.0,0.0,0.0,0.0,0.0,0.0,0.0,0.0,0.0,0.0,0.0,0.0,0.0,0.0,0.0,0.0,0.0,0.0,2.4995,2.4995,2.4995,2.4796,2.4407,0.0,0.0,0.0,0.0,0.0,0.0,0.0,0.0,0.0,0.0,0.0,0.0,0.0,0.0,0.0,0.0,0.0,0.0,0.0,0.0,0.0,0.0,0.0,0.0,0.0,0.0,0.0,0.0,0.0,0.0,0.0,0.0,0.0,0.0,0.0,0.0,0.0,0.0,0.0,0.0,0.0,0.0,0.0,0.0,0.0,0.0,0.0,0.0,0.0,0.0,0.0,0.0,0.0,0.0,0.0,0.0,0.0,0.0,0.0,0.0,0.0,0.0,0.0,0.0,0.0,0.0,0.0,0.0,0.0,0.0,0.0,0.0,0.0,0.0,0.0,0.0,0.0,0.0,0.0,0.0,0.0,0.0,0.0,0.0,0.0,0.0,0.0,0.0,0.0,0.0,0.0,0.0,0.0,0.0,0.0,0.0,0.0,0.0,0.0,0.0,0.0,0.0,0.0,0.0,0.0,0.0,0.0,0.0,0.0,0.0,0.0,0.0,2.5302,2.4871,2.415,0.0,0.0,0.0,0.0,0.0,0.0,0.0,0.0,0.0,0.0,0.0,0.0,0.0,0.0,0.0,0.0,0.0,0.0,0.0,0.0,0.0,0.0,0.0,0.0,0.0,0.0,0.0,0.0,0.0,0.0,0.0,0.0,0.0,0.0,0.0,0.0,0.0,0.0,0.0,0.0,0.0,0.0,0.0,0.0,0.0,0.0,0.0,0.0,0.0,0.0,0.0,0.0,0.0,0.0,0.0,0.0,0.0,0.0,0.0,0.0,0.0,0.0,0.0,0.0,0.0,0.0,0.0,0.0,0.0,0.0,0.0,0.0,0.0,0.0,0.0,0.0,0.0,0.0,0.0,0.0,0.0,0.0,0.0,0.0,0.0,0.0,0.0,0.0,0.0,0.0,0.0,0.0,0.0,0.0,0.0,0.0,0.0,0.0,0.0,0.0,0.0,0.0,0.0,0.0,0.0,0.0,0.0,0.0,0.0,0.0,2.623,2.6893,2.623,0.0,2.4734,0.0,0.0,0.0,0.0,0.0,0.0,0.0,0.0,0.0,0.0,0.0,0.0,0.0,0.0,0.0,0.0,0.0,0.0,0.0,0.0,0.0,0.0,0.0,0.0,0.0,0.0,0.0,0.0,0.0,0.0,0.0,0.0,0.0,0.0,0.0,0.0,0.0,0.0,0.0,0.0,0.0,0.0,0.0,0.0,0.0,0.0,0.0,0.0,0.0,0.0,0.0,0.0,0.0,0.0,0.0,0.0,0.0,0.0,0.0,0.0,0.0,0.0,0.0,0.0,0.0,0.0,0.0,0.0,0.0,0.0,0.0,0.0,0.0,0.0,0.0,0.0,0.0,0.0,0.0,0.0,0.0,0.0,0.0,0.0,0.0,0.0,0.0,0.0,0.0,0.0,0.0,0.0,0.0,0.0,0.0,0.0,0.0,0.0,0.0,0.0,0.0,0.0,0.0,0.0,0.0,0.0,0.0,0.0,0.0,0.0,2.6988,2.7683,2.6209,2.519,0.0,0.0,0.0,0.0,0.0,0.0,0.0,0.0,0.0,0.0,0.0,0.0,0.0,0.0,0.0,0.0,0.0,0.0,0.0,0.0,0.0,0.0,0.0,0.0,0.0,0.0,0.0,0.0,0.0,0.0,0.0,0.0,0.0,0.0,0.0,0.0,0.0,0.0,0.0,0.0,0.0,0.0,0.0,0.0,0.0,0.0,0.0,0.0,0.0,0.0,0.0,0.0,0.0,0.0,0.0,0.0,0.0,0.0,0.0,0.0,0.0,0.0,0.0,0.0,0.0,0.0,0.0,0.0,0.0,0.0,0.0,0.0,0.0,0.0,0.0,0.0,0.0,0.0,0.0,0.0,0.0,0.0,0.0,0.0,0.0,0.0,0.0,0.0,0.0,0.0,0.0,0.0,0.0,0.0,0.0,0.0,0.0,0.0,0.0,0.0,0.0,0.0,0.0,0.0,0.0,0.0,0.0,0.0,0.0,0.0,2.6177,2.702,2.7399,2.5871,2.4792,2.4375,0.0,0.0,0.0,0.0,0.0,0.0,0.0,0.0,0.0,0.0,0.0,0.0,0.0,0.0,0.0,0.0,0.0,0.0,0.0,0.0,0.0,0.0,0.0,0.0,0.0,0.0,0.0,0.0,0.0,0.0,0.0,0.0,0.0,0.0,0.0,0.0,0.0,0.0,0.0,0.0,0.0,0.0,0.0,0.0,0.0,0.0,0.0,0.0,0.0,0.0,0.0,0.0,0.0,0.0,0.0,0.0,0.0,0.0,0.0,0.0,0.0,0.0,0.0,0.0,0.0,0.0,0.0,0.0,0.0,0.0,0.0,0.0,0.0,0.0,0.0,0.0,0.0,0.0,0.0,0.0,0.0,0.0,0.0,0.0,0.0,0.0,0.0,0.0,0.0,0.0,0.0,0.0,0.0,0.0,0.0,0.0,0.0,0.0,0.0,0.0,0.0,0.0,0.0,0.0,0.0,0.0,0.0,0.0,0.0,2.5703,2.6072,2.6135,2.5355,2.4542,0.0,0.0,0.0,0.0,0.0,0.0,0.0,0.0,0.0,0.0,0.0,0.0,0.0,0.0,0.0,0.0,0.0,0.0,0.0,0.0,0.0,0.0,0.0,0.0,0.0,0.0,0.0,0.0,0.0,0.0,0.0,0.0,0.0,0.0,0.0,0.0,0.0,0.0,0.0,0.0,0.0,0.0,0.0,0.0,0.0,0.0,0.0,0.0,0.0,0.0,0.0,0.0,0.0,0.0,0.0,0.0,0.0,0.0,0.0,0.0,0.0,0.0,0.0,0.0,0.0,0.0,0.0,0.0,0.0,0.0,0.0,0.0,0.0,0.0,0.0,0.0,0.0,0.0,0.0,0.0,0.0,0.0,0.0,0.0,0.0,0.0,0.0,0.0,0.0,0.0,0.0,0.0,0.0,0.0,0.0,0.0,0.0,0.0,0.0,0.0,0.0,0.0,0.0,0.0,0.0,0.0,0.0,0.0,0.0,2.372,2.5197,2.6009,2.5977,2.4843,2.3766,0.0,0.0,0.0,0.0,0.0,0.0,0.0,0.0,0.0,0.0,0.0,0.0,0.0,0.0,0.0,0.0,0.0,0.0,0.0,0.0,0.0,0.0,0.0,0.0,0.0,0.0,0.0,0.0,0.0,0.0,0.0,0.0,0.0,0.0,0.0,0.0,0.0,0.0,0.0,0.0,0.0,0.0,0.0,0.0,0.0,0.0,0.0,0.0,0.0,0.0,0.0,0.0,0.0,0.0,0.0,0.0,0.0,0.0,0.0,0.0,0.0,0.0,0.0,0.0,0.0,0.0,0.0,0.0,0.0,0.0,0.0,0.0,0.0,0.0,0.0,0.0,0.0,0.0,0.0,0.0,0.0,0.0,0.0,0.0,0.0,0.0,0.0,0.0,0.0,0.0,0.0,0.0,0.0,0.0,0.0,0.0,0.0,0.0,0.0,0.0,0.0,0.0,0.0,0.0,0.0,0.0,0.0,0.0,0.0,2.3954,0.0,2.6451,0.0,2.4772,2.3551,0.0,0.0,0.0,0.0,0.0,0.0,0.0,0.0,0.0,0.0,0.0,0.0,0.0,0.0,0.0,0.0,0.0,0.0,0.0,0.0,0.0,0.0,0.0,0.0,0.0,0.0,0.0,0.0,0.0,0.0,0.0,0.0,0.0,0.0,0.0,0.0,0.0,0.0,0.0,0.0,0.0,0.0,0.0,0.0,0.0,0.0,0.0,0.0,0.0,0.0,0.0,0.0,0.0,0.0,0.0,0.0,0.0,0.0,0.0,0.0,0.0,0.0,0.0,0.0,0.0,0.0,0.0,0.0,0.0,0.0,0.0,0.0,0.0,0.0,0.0,0.0,0.0,0.0,0.0,0.0,0.0,0.0,0.0,0.0,0.0,0.0,0.0,0.0,0.0,0.0,0.0,0.0,0.0,0.0,0.0,0.0,0.0,0.0,0.0,0.0,0.0,0.0,0.0,0.0,0.0,0.0,0.0,0.0,2.5333,2.5977,2.7304,2.7336,2.603,2.5191,2.3977,0.0,0.0,0.0,0.0,0.0,0.0,0.0,0.0,0.0,0.0,0.0,0.0,0.0,0.0,0.0,0.0,0.0,0.0,0.0,0.0,0.0,0.0,0.0,0.0,0.0,0.0,0.0,0.0,0.0,0.0,0.0,0.0,0.0,0.0,0.0,0.0,0.0,0.0,0.0,0.0,0.0,0.0,0.0,0.0,0.0,0.0,0.0,0.0,0.0,0.0,0.0,0.0,0.0,0.0,0.0,0.0,0.0,0.0,0.0,0.0,0.0,0.0,0.0,0.0,0.0,0.0,0.0,0.0,0.0,0.0,0.0,0.0,0.0,0.0,0.0,0.0,0.0,0.0,0.0,0.0,0.0,0.0,0.0,0.0,0.0,0.0,0.0,0.0,0.0,0.0,0.0,0.0,0.0,0.0,0.0,0.0,0.0,0.0,0.0,0.0,0.0,0.0,0.0,0.0,0.0,0.0,0.0,0.0,0.0,2.603,2.6925,2.6957,2.5998,2.4742,2.3501,0.0,0.0,0.0,0.0,0.0,0.0,0.0,0.0,0.0,0.0,0.0,0.0,0.0,0.0,0.0,0.0,0.0,0.0,0.0,0.0,0.0,0.0,0.0,0.0,0.0,0.0,0.0,0.0,0.0,0.0,0.0,0.0,0.0,0.0,0.0,0.0,0.0,0.0,0.0,0.0,0.0,0.0,0.0,0.0,0.0,0.0,0.0,0.0,0.0,0.0,0.0,0.0,0.0,0.0,0.0,0.0,0.0,0.0,0.0,0.0,0.0,0.0,0.0,0.0,0.0,0.0,0.0,0.0,0.0,0.0,0.0,0.0,0.0,0.0,0.0,0.0,0.0,0.0,0.0,0.0,0.0,0.0,0.0,0.0,0.0,0.0,0.0,0.0,0.0,0.0,0.0,0.0,0.0,0.0,0.0,0.0,0.0,0.0,0.0,0.0,0.0,0.0,0.0,0.0,0.0,0.0,0.0,0.0,0.0,2.9516,2.9959,2.9611,2.839,2.6816,2.5207,2.3475,0.0,0.0,0.0,0.0,0.0,0.0,0.0,0.0,0.0,0.0,0.0,0.0,0.0,0.0,0.0,0.0,0.0,0.0,0.0,0.0,0.0,0.0,0.0,0.0,0.0,0.0,0.0,0.0,0.0,0.0,0.0,0.0,0.0,0.0,0.0,0.0,0.0,0.0,0.0,0.0,0.0,0.0,0.0,0.0,0.0,0.0,0.0,0.0,0.0,0.0,0.0,0.0,0.0,0.0,0.0,0.0,0.0,0.0,0.0,0.0,0.0,0.0,0.0,0.0,0.0,0.0,0.0,0.0,0.0,0.0,0.0,0.0,0.0,0.0,0.0,0.0,0.0,0.0,0.0,0.0,0.0,0.0,0.0,0.0,0.0,0.0,0.0,0.0,0.0,0.0,0.0,0.0,0.0,0.0,0.0,0.0,0.0,0.0,0.0,0.0,0.0,0.0,0.0,0.0,0.0,0.0,0.0,0.0,3.563,3.5883,3.4903,3.2595,3.093,2.8665,0.0,0.0,0.0,0.0,0.0,0.0,0.0,0.0,0.0,0.0,0.0,0.0,0.0,0.0,0.0,0.0,0.0,0.0,0.0,0.0,0.0,0.0,0.0,0.0,0.0,0.0,0.0,0.0,0.0,0.0,0.0,0.0,0.0,0.0,0.0,0.0,0.0,0.0,0.0,0.0,0.0,0.0,0.0,0.0,0.0,0.0,0.0,0.0,0.0,0.0,0.0,0.0,0.0,0.0,0.0,0.0,0.0,0.0,0.0,0.0,0.0,0.0,0.0,0.0,0.0,0.0,0.0,0.0,0.0,0.0,0.0,0.0,0.0,0.0,0.0,0.0,0.0,0.0,0.0,0.0,0.0,0.0,0.0,0.0,0.0,0.0,0.0,0.0,0.0,0.0,0.0,0.0,0.0,0.0,0.0,0.0,0.0,0.0,0.0,0.0,0.0,0.0,0.0,0.0,0.0,0.0,0.0,0.0,0.0,3.9123,4.1746,4.0862,3.6294,3.3594,3.0997,0.0,0.0,0.0,0.0,0.0,0.0,0.0,0.0,0.0,0.0,0.0,0.0,0.0,0.0,0.0,0.0,0.0,0.0,0.0,0.0,0.0,0.0,0.0,0.0,0.0,0.0,0.0,0.0,0.0,0.0,0.0,0.0,0.0,0.0,0.0,0.0,0.0,0.0,0.0,0.0,0.0,0.0,0.0,0.0,0.0,0.0,0.0,0.0,0.0,0.0,0.0,0.0,0.0,0.0,0.0,0.0,0.0,0.0,0.0,0.0,0.0,0.0,0.0,0.0,0.0,0.0,0.0,0.0,0.0,0.0,0.0,0.0,0.0,0.0,0.0,0.0,0.0,0.0,0.0,0.0,0.0,0.0,0.0,0.0,0.0,0.0,0.0,0.0,0.0,0.0,0.0,0.0,0.0,0.0,0.0,0.0,0.0,0.0,0.0,0.0,0.0,0.0,0.0,0.0,0.0,0.0,0.0,0.0,3.6958,4.1399,4.5336,4.5299,4.0969,3.7148,3.3588,0.0,0.0,0.0,0.0,0.0,0.0,0.0,0.0,0.0,0.0,0.0,0.0,0.0,0.0,0.0,0.0,0.0,0.0,0.0,0.0,0.0,0.0,0.0,0.0,0.0,0.0,0.0,0.0,0.0,0.0,0.0,0.0,0.0,0.0,0.0,0.0,0.0,0.0,0.0,0.0,0.0,0.0,0.0,0.0,0.0,0.0,0.0,0.0,0.0,0.0,0.0,0.0,0.0,0.0,0.0,0.0,0.0,0.0,0.0,0.0,0.0,0.0,0.0,0.0,0.0,0.0,0.0,0.0,0.0,0.0,0.0,0.0,0.0,0.0,0.0,0.0,0.0,0.0,0.0,0.0,0.0,0.0,0.0,0.0,0.0,0.0,0.0,0.0,0.0,0.0,0.0,0.0,0.0,0.0,0.0,0.0,0.0,0.0,0.0,0.0,0.0,0.0,0.0,0.0,0.0,0.0,0.0,0.0,3.8112,4.2821,4.7385,4.8432,4.5714,4.1064,3.6473,0.0,0.0,0.0,0.0,0.0,0.0,0.0,0.0,0.0,0.0,0.0,0.0,0.0,0.0,0.0,0.0,0.0,0.0,0.0,0.0,0.0,0.0,0.0,0.0,0.0,0.0,0.0,0.0,0.0,0.0,0.0,0.0,0.0,0.0,0.0,0.0,0.0,0.0,0.0,0.0,0.0,0.0,0.0,0.0,0.0,0.0,0.0,0.0,0.0,0.0,0.0,0.0,0.0,0.0,0.0,0.0,0.0,0.0,0.0,0.0,0.0,0.0,0.0,0.0,0.0,0.0,0.0,0.0,0.0,0.0,0.0,0.0,0.0,0.0,0.0,0.0,0.0,0.0,0.0,0.0,0.0,0.0,0.0,0.0,0.0,0.0,0.0,0.0,0.0,0.0,0.0,0.0,0.0,0.0,0.0,0.0,0.0,0.0,0.0,0.0,0.0,0.0,0.0,0.0,0.0,0.0,0.0,0.0,4.0451,4.4243,4.8471,4.9493,4.6985,4.3635,3.9772,0.0,0.0,0.0,0.0,0.0,0.0,0.0,0.0,0.0,0.0,0.0,0.0,0.0,0.0,0.0,0.0,0.0,0.0,0.0,0.0,0.0,0.0,0.0,0.0,0.0,0.0,0.0,0.0,0.0,0.0,0.0,0.0,0.0,0.0,0.0,0.0,0.0,0.0,0.0,0.0,0.0,0.0,0.0,0.0,0.0,0.0,0.0,0.0,2.6494,0.0,0.0,0.0,0.0,0.0,0.0,0.0,0.0,0.0,0.0,0.0,0.0,0.0,0.0,0.0,0.0,0.0,0.0,0.0,0.0,0.0,0.0,0.0,0.0,0.0,0.0,0.0,0.0,0.0,0.0,0.0,0.0,0.0,0.0,0.0,0.0,0.0,0.0,0.0,0.0,0.0,0.0,0.0,0.0,0.0,0.0,0.0,0.0,0.0,0.0,0.0,0.0,0.0,0.0,0.0,0.0,0.0,0.0,0.0,4.2189,4.5615,4.9391,5.0126,4.7655,4.5719,4.2077,0.0,0.0,0.0,0.0,0.0,0.0,0.0,0.0,0.0,0.0,0.0,0.0,0.0,0.0,0.0,0.0,0.0,0.0,0.0,0.0,0.0,0.0,0.0,0.0,0.0,0.0,0.0,0.0,0.0,0.0,0.0,0.0,0.0,0.0,0.0,0.0,0.0,0.0,0.0,0.0,0.0,0.0,0.0,0.0,0.0,0.0,0.0,0.0,0.0,0.0,0.0,0.0,0.0,0.0,0.0,0.0,0.0,0.0,0.0,0.0,0.0,0.0,0.0,0.0,0.0,0.0,0.0,0.0,0.0,0.0,0.0,0.0,0.0,0.0,0.0,0.0,0.0,0.0,0.0,0.0,0.0,0.0,0.0,0.0,0.0,0.0,0.0,0.0,0.0,0.0,0.0,0.0,0.0,0.0,0.0,0.0,0.0,0.0,0.0,0.0,0.0,0.0,0.0,0.0,0.0,0.0,0.0,3.9455,4.3485,4.674,4.9922,5.0391,4.7889,4.6875,4.3279,3.6727,0.0,0.0,0.0,0.0,0.0,0.0,0.0,0.0,0.0,0.0,0.0,0.0,0.0,0.0,0.0,0.0,0.0,0.0,0.0,0.0,0.0,0.0,0.0,0.0,0.0,0.0,0.0,0.0,0.0,0.0,0.0,0.0,0.0,0.0,0.0,0.0,0.0,0.0,2.42,2.6548,0.0,0.0,0.0,0.0,0.0,0.0,0.0,0.0,2.7768,0.0,0.0,0.0,0.0,0.0,0.0,0.0,0.0,0.0,0.0,0.0,0.0,0.0,0.0,0.0,0.0,0.0,0.0,0.0,0.0,0.0,0.0,0.0,0.0,0.0,0.0,0.0,0.0,0.0,0.0,0.0,0.0,0.0,0.0,0.0,0.0,0.0,0.0,0.0,0.0,0.0,0.0,0.0,0.0,0.0,0.0,0.0,0.0,0.0,0.0,0.0,0.0,0.0,0.0,0.0,0.0,3.6012,4.0878,4.4482,4.6771,4.9627,4.9913,4.7473,4.5758,4.2168,3.6479,0.0,0.0,0.0,0.0,0.0,0.0,0.0,0.0,0.0,0.0,0.0,0.0,0.0,0.0,0.0,0.0,0.0,0.0,0.0,0.0,0.0,0.0,0.0,0.0,0.0,0.0,0.0,0.0,0.0,0.0,0.0,0.0,0.0,0.0,0.0,0.0,0.0,0.0,0.0,2.968,3.0769,0.0,0.0,0.0,0.0,0.0,0.0,0.0,0.0,2.8455,0.0,0.0,0.0,0.0,0.0,0.0,0.0,0.0,0.0,0.0,0.0,0.0,0.0,0.0,0.0,0.0,0.0,0.0,0.0,0.0,0.0,0.0,0.0,0.0,0.0,0.0,0.0,0.0,0.0,0.0,0.0,0.0,0.0,0.0,0.0,0.0,0.0,0.0,0.0,0.0,0.0,0.0,0.0,0.0,0.0,0.0,0.0,0.0,0.0,0.0,0.0,0.0,0.0,0.0,0.0,3.7514,4.3011,4.636,4.7403,4.999,4.9813,4.666,4.4235,4.0662,0.0,0.0,0.0,0.0,0.0,0.0,0.0,0.0,0.0,0.0,0.0,0.0,0.0,0.0,0.0,0.0,0.0,0.0,0.0,0.0,0.0,0.0,0.0,0.0,0.0,0.0,0.0,0.0,0.0,0.0,0.0,0.0,0.0,0.0,0.0,0.0,0.0,0.0,0.0,0.0,3.1875,3.3059,3.163,0.0,0.0,0.0,0.0,0.0,0.0,3.0181,2.9501,0.0,0.0,0.0,0.0,0.0,0.0,0.0,0.0,0.0,0.0,0.0,0.0,0.0,0.0,0.0,0.0,0.0,0.0,0.0,0.0,0.0,0.0,0.0,0.0,0.0,0.0,0.0,0.0,0.0,0.0,0.0,0.0,0.0,0.0,0.0,0.0,0.0,0.0,0.0,0.0,0.0,0.0,0.0,0.0,0.0,0.0,0.0,0.0,0.0,0.0,0.0,0.0,0.0,0.0,0.0,3.8918,4.4685,4.7795,4.8085,5.0153,4.9495,4.5734,4.2962,3.9325,0.0,0.0,0.0,0.0,0.0,0.0,0.0,0.0,0.0,0.0,0.0,0.0,0.0,0.0,0.0,0.0,0.0,0.0,0.0,0.0,0.0,0.0,0.0,0.0,0.0,0.0,0.0,0.0,0.0,0.0,0.0,0.0,0.0,0.0,0.0,0.0,0.0,0.0,0.0,0.0,0.0,3.4965,3.3853,3.3441,0.0,0.0,0.0,0.0,3.194,3.1881,0.0,0.0,0.0,0.0,0.0,0.0,0.0,0.0,0.0,0.0,0.0,0.0,0.0,0.0,0.0,0.0,0.0,0.0,0.0,0.0,0.0,0.0,0.0,0.0,0.0,0.0,0.0,0.0,0.0,0.0,0.0,0.0,0.0,0.0,0.0,0.0,0.0,0.0,0.0,0.0,0.0,0.0,0.0,0.0,0.0,0.0,0.0,0.0,0.0,0.0,0.0,0.0,0.0,0.0,0.0,0.0,4.0293,4.4685,4.7435,4.849,4.9413,4.8207,4.4833,4.2438,3.8633,0.0,0.0,0.0,0.0,0.0,0.0,0.0,0.0,0.0,0.0,0.0,0.0,0.0,0.0,0.0,0.0,0.0,0.0,0.0,0.0,0.0,0.0,0.0,0.0,0.0,0.0,0.0,0.0,0.0,0.0,0.0,0.0,0.0,0.0,0.0,0.0,0.0,0.0,0.0,0.0,0.0,3.6368,3.4847,3.5677,3.5869,0.0,0.0,3.4868,3.4816,3.4789,0.0,0.0,0.0,0.0,0.0,0.0,0.0,0.0,0.0,0.0,0.0,0.0,0.0,0.0,0.0,0.0,0.0,0.0,0.0,0.0,0.0,0.0,0.0,0.0,0.0,0.0,0.0,0.0,0.0,0.0,0.0,0.0,0.0,0.0,0.0,0.0,0.0,0.0,0.0,0.0,0.0,0.0,0.0,0.0,0.0,0.0,0.0,0.0,0.0,0.0,0.0,0.0,0.0,0.0,0.0,3.5254,4.0529,4.5709,4.8635,4.9165,4.9976,4.8912,4.5823,4.2386,3.8222,0.0,0.0,0.0,0.0,0.0,0.0,0.0,0.0,0.0,0.0,0.0,0.0,0.0,0.0,0.0,0.0,0.0,0.0,0.0,0.0,0.0,0.0,0.0,0.0,0.0,0.0,0.0,0.0,0.0,0.0,0.0,0.0,0.0,0.0,0.0,0.0,0.0,0.0,0.0,0.0,0.0,0.0,3.7656,3.826,0.0,0.0,0.0,3.7743,3.7743,0.0,0.0,0.0,0.0,0.0,0.0,0.0,0.0,0.0,0.0,0.0,0.0,0.0,0.0,0.0,0.0,0.0,0.0,0.0,0.0,0.0,0.0,0.0,0.0,0.0,0.0,0.0,0.0,0.0,0.0,0.0,0.0,0.0,0.0,0.0,0.0,0.0,0.0,0.0,0.0,0.0,0.0,0.0,0.0,0.0,0.0,0.0,0.0,0.0,0.0,0.0,0.0,0.0,0.0,0.0,0.0,0.0,4.07,4.6429,4.945,4.9725,5.0558,4.9624,4.6751,4.2941,0.0,0.0,0.0,0.0,0.0,0.0,0.0,0.0,0.0,0.0,0.0,0.0,0.0,0.0,0.0,0.0,0.0,0.0,0.0,0.0,0.0,0.0,0.0,0.0,0.0,0.0,0.0,1.8147,0.0,0.0,0.0,0.0,0.0,0.0,0.0,0.0,0.0,0.0,0.0,0.0,0.0,0.0,3.9073,3.9842,4.0547,4.0682,0.0,0.0,4.0409,4.0278,4.1349,4.0878,0.0,0.0,0.0,0.0,0.0,0.0,0.0,0.0,0.0,0.0,0.0,0.0,0.0,0.0,0.0,0.0,0.0,0.0,0.0,0.0,0.0,0.0,0.0,0.0,0.0,0.0,0.0,0.0,0.0,0.0,0.0,0.0,0.0,0.0,0.0,0.0,0.0,0.0,0.0,0.0,0.0,0.0,0.0,0.0,0.0,0.0,0.0,0.0,0.0,0.0,0.0,0.0,0.0,0.0,0.0,4.1026,4.6097,4.911,4.9967,5.0638,4.9703,4.7045,4.4268,4.0138,0.0,0.0,0.0,0.0,0.0,0.0,0.0,0.0,0.0,0.0,0.0,0.0,0.0,0.0,0.0,0.0,0.0,0.0,0.0,0.0,0.0,0.0,0.0,0.0,0.0,0.0,0.0,0.0,0.0,0.0,0.0,0.0,0.0,0.0,0.0,0.0,0.0,0.0,0.0,0.0,0.0,3.9501,4.0168,4.2248,4.311,0.0,4.2082,4.2605,4.2107,4.2107,4.1009,3.7508,0.0,0.0,0.0,0.0,0.0,0.0,0.0,0.0,0.0,0.0,0.0,0.0,0.0,0.0,0.0,0.0,0.0,0.0,0.0,0.0,0.0,0.0,0.0,0.0,0.0,0.0,0.0,0.0,0.0,0.0,0.0,0.0,0.0,0.0,0.0,0.0,0.0,0.0,0.0,0.0,0.0,0.0,0.0,0.0,0.0,0.0,0.0,0.0,0.0,0.0,0.0,0.0,0.0,3.5535,4.1069,4.6157,4.9387,5.0586,5.1169,5.0598,4.8857,4.5492,4.1115,0.0,0.0,0.0,0.0,0.0,0.0,0.0,0.0,0.0,0.0,0.0,0.0,0.0,0.0,0.0,0.0,0.0,0.0,0.0,0.0,0.0,0.0,0.0,0.0,0.0,0.0,0.0,0.0,2.0177,2.0487,2.0719,0.0,0.0,0.0,0.0,0.0,0.0,0.0,0.0,0.0,0.0,4.2156,4.3191,4.5075,0.0,0.0,4.5276,4.5322,4.4434,4.4017,4.25,3.8658,3.5208,0.0,0.0,0.0,0.0,0.0,0.0,0.0,0.0,0.0,0.0,0.0,0.0,0.0,0.0,0.0,0.0,0.0,0.0,0.0,0.0,0.0,0.0,0.0,0.0,0.0,0.0,0.0,0.0,0.0,0.0,0.0,0.0,0.0,0.0,0.0,0.0,0.0,0.0,0.0,0.0,0.0,0.0,0.0,0.0,0.0,0.0,0.0,0.0,0.0,0.0,0.0,0.0,3.5417,4.0868,4.6176,4.9553,5.0882,5.1625,5.1361,4.9982,4.6525,4.2158,0.0,0.0,0.0,0.0,0.0,0.0,0.0,0.0,0.0,0.0,0.0,0.0,0.0,0.0,0.0,0.0,0.0,0.0,0.0,0.0,0.0,0.0,0.0,0.0,0.0,0.0,0.0,0.0,2.1238,2.1331,2.1141,0.0,0.0,0.0,0.0,0.0,0.0,0.0,0.0,0.0,0.0,4.326,4.4956,4.6837,4.7891,4.7223,4.7395,4.7118,4.5696,4.4726,4.2917,3.9285,0.0,0.0,0.0,0.0,0.0,0.0,0.0,0.0,0.0,0.0,0.0,0.0,0.0,0.0,0.0,0.0,0.0,0.0,0.0,0.0,0.0,0.0,0.0,0.0,0.0,0.0,0.0,2.2327,0.0,0.0,2.2361,0.0,0.0,0.0,0.0,0.0,0.0,0.0,0.0,0.0,0.0,0.0,0.0,0.0,0.0,0.0,0.0,0.0,0.0,0.0,0.0,0.0,0.0,3.5268,4.0461,4.604,4.9491,5.0688,5.199,5.1829,5.0042,4.7385,4.3396,3.791,0.0,0.0,0.0,0.0,0.0,0.0,0.0,0.0,0.0,0.0,0.0,0.0,0.0,0.0,0.0,0.0,0.0,0.0,0.0,0.0,0.0,0.0,0.0,0.0,0.0,0.0,2.213,2.175,2.1157,0.0,0.0,0.0,0.0,0.0,0.0,0.0,0.0,0.0,0.0,3.8456,4.2106,4.4743,4.7163,4.8421,4.7556,4.79,4.7576,4.5551,4.3781,4.1727,0.0,0.0,0.0,0.0,0.0,0.0,0.0,0.0,0.0,0.0,0.0,0.0,0.0,0.0,0.0,0.0,0.0,0.0,0.0,0.0,0.0,0.0,0.0,0.0,0.0,0.0,0.0,2.6454,2.5931,0.0,0.0,0.0,0.0,0.0,0.0,0.0,0.0,0.0,0.0,0.0,3.4308,3.3869,0.0,0.0,0.0,0.0,0.0,0.0,0.0,0.0,0.0,0.0,0.0,0.0,3.5135,4.0461,4.5923,4.9344,5.0667,5.2021,5.2044,5.0689,4.7629,4.2443,3.4946,0.0,0.0,0.0,0.0,0.0,0.0,0.0,0.0,0.0,0.0,0.0,0.0,0.0,0.0,0.0,0.0,0.0,0.0,0.0,0.0,0.0,0.0,0.0,0.0,0.0,2.2903,0.0,0.0,0.0,0.0,0.0,0.0,0.0,0.0,0.0,0.0,0.0,3.1042,3.4361,3.9134,4.3066,4.516,4.7945,4.9606,0.0,0.0,0.0,0.0,0.0,0.0,0.0,0.0,0.0,0.0,0.0,0.0,0.0,0.0,3.4968,3.3142,3.1937,3.1091,3.0644,0.0,0.0,0.0,0.0,0.0,0.0,0.0,0.0,0.0,0.0,0.0,0.0,0.0,0.0,3.048,0.0,2.8687,0.0,0.0,0.0,0.0,0.0,0.0,0.0,0.0,3.7657,3.8935,3.9204,3.8841,3.8817,0.0,3.8557,3.6122,0.0,0.0,0.0,0.0,0.0,0.0,0.0,0.0,3.5922,4.0861,4.6234,4.9485,5.0558,5.1857,5.191,5.0585,4.6834,4.1511,3.4559,3.1042,2.7879,0.0,0.0,0.0,0.0,0.0,0.0,0.0,0.0,0.0,0.0,0.0,0.0,0.0,0.0,0.0,0.0,0.0,0.0,0.0,0.0,0.0,0.0,0.0,2.4652,0.0,0.0,0.0,0.0,0.0,0.0,0.0,0.0,0.0,2.6972,2.9984,3.3159,3.5717,3.9997,4.3606,4.564,0.0,0.0,0.0,0.0,0.0,0.0,0.0,4.1997,4.1825,4.0972,4.0323,4.054,4.0548,4.025,3.9287,0.0,0.0,3.7115,3.5783,3.4935,3.4486,3.4035,3.3682,3.3528,3.422,3.4963,0.0,0.0,0.0,0.0,0.0,0.0,0.0,0.0,3.5148,3.4438,0.0,3.2182,0.0,0.0,0.0,0.0,0.0,3.2507,0.0,0.0,4.1844,4.3742,4.4083,4.3803,4.3698,4.3716,4.3624,4.2509,4.0276,3.4629,0.0,0.0,0.0,0.0,0.0,0.0,3.7508,4.1586,4.6931,4.9883,5.0341,5.1581,5.1417,4.9607,4.5166,4.0872,3.6905,3.3938,3.0979,2.7976,2.5017,0.0,0.0,0.0,0.0,0.0,0.0,0.0,0.0,0.0,0.0,0.0,0.0,0.0,0.0,0.0,0.0,0.0,0.0,0.0,0.0,2.5845,0.0,0.0,0.0,0.0,0.0,0.0,0.0,0.0,0.0,0.0,3.0934,3.2715,3.5127,3.8049,0.0,0.0,0.0,0.0,4.9954,5.0009,5.0553,5.0195,4.8214,4.6921,4.5982,4.5446,0.0,0.0,4.3541,4.3034,4.2732,4.2901,4.2789,4.2184,4.0051,3.9123,3.8425,3.7681,3.7837,3.7833,3.7229,3.8178,3.9447,4.3809,0.0,0.0,0.0,0.0,3.9445,4.0608,4.1961,4.1191,4.046,3.9614,3.763,0.0,0.0,0.0,0.0,0.0,0.0,3.9112,4.209,4.4594,4.5952,4.632,4.643,4.6449,4.6419,4.5976,4.4941,4.334,4.0693,3.6784,3.1705,0.0,0.0,0.0,0.0,3.7508,4.1648,4.6942,4.9883,5.0289,5.1024,5.0105,4.7291,4.535,4.2897,3.9911,3.7344,3.4597,3.1675,2.8682,0.0,0.0,0.0,0.0,0.0,0.0,0.0,0.0,0.0,0.0,0.0,0.0,0.0,0.0,0.0,0.0,0.0,0.0,0.0,2.6999,2.8573,2.8801,0.0,0.0,0.0,0.0,0.0,0.0,0.0,0.0,0.0,3.7751,3.7479,3.7751,0.0,0.0,4.4255,4.6237,4.8138,4.9656,5.0525,5.115,0.0,5.014,4.9214,4.8661,4.8801,4.8319,4.7445,4.5949,4.5423,4.496,4.4234,4.4134,4.3849,4.324,4.2027,4.1064,4.0607,4.0563,4.0585,4.0388,4.1,4.1699,5.115,4.6737,4.4234,4.3795,4.479,4.5534,4.6684,4.8071,4.7259,4.65,4.5703,4.3809,4.1711,3.9534,3.8497,0.0,0.0,0.0,4.3732,4.5821,4.7848,4.895,4.9239,4.9243,4.922,4.9168,4.8543,4.7527,4.6142,4.5372,4.2571,3.78,0.0,0.0,3.3829,3.6276,3.937,4.3187,4.7763,5.0239,5.0584,5.0438,4.8996,4.6199,4.5396,4.3801,4.1214,3.9242,3.6849,3.3865,3.0934,2.7949,0.0,0.0,0.0,0.0,0.0,0.0,0.0,0.0,0.0,0.0,0.0,1.9114,2.0258,0.0,0.0,0.0,2.3879,2.6876,2.974,3.1079,0.0,0.0,0.0,0.0,0.0,0.0,0.0,3.5323,3.744,3.9699,4.2195,4.2195,4.2141,4.2653,4.4529,4.6374,4.7703,0.0,5.0524,5.1475,5.2126,5.2398,5.2018,5.1735,5.1558,5.1574,5.0612,4.9354,4.7841,4.7056,4.6289,4.5442,4.515,4.515,4.515,4.4346,4.3494,4.2992,4.301,4.3075,4.29,4.3381,4.3905,5.7273,5.5631,5.0863,4.9526,5.059,5.1336,5.2503,5.3737,5.301,5.2249,5.1539,5.0017,4.8139,4.5959,4.4505,0.0,4.5813,4.7415,4.8508,4.9303,5.1216,5.2188,5.2369,5.1955,5.1713,5.159,5.0944,4.9928,4.8614,4.845,4.7188,4.4652,3.9048,3.6784,3.7954,3.9845,4.243,4.5638,4.9056,5.0813,5.085,4.9772,4.8125,4.5863,4.5285,4.3767,4.1272,4.0051,3.807,3.5066,3.2254,2.936,2.6321,0.0,0.0,0.0,0.0,0.0,0.0,0.0,0.0,0.0,0.0,0.0,0.0,0.0,0.0,0.0,2.7298,0.0,3.2409,3.3555,0.0,0.0,0.0,3.1667,3.3414,3.5051,3.6964,3.9373,0.0,0.0,4.4773,4.6509,4.7432,4.6997,4.83,4.9521,5.0117,5.1121,5.2097,5.275,5.3347,5.3754,5.3809,5.4151,5.4177,5.3517,5.2143,5.051,4.9047,4.7959,4.6979,4.6085,4.6002,4.598,4.598,4.5849,4.574,4.4801,4.4997,4.5172,4.4779,4.5238,4.5675,5.937,5.8964,5.7712,5.6122,5.4431,5.5175,5.5987,5.6783,5.6055,5.5649,5.5344,5.3348,5.1183,4.8984,4.8071,4.8326,4.9454,5.0091,5.0806,5.1466,5.2354,5.2618,5.241,5.2458,5.1929,5.0944,5.0288,4.9466,4.8583,4.7588,4.6757,4.6018,4.3667,4.2096,4.1463,4.2879,4.451,4.6357,4.9712,5.0963,4.9921,4.8842,4.7229,4.5071,4.4405,4.3405,4.1842,4.1059,3.9269,3.6334,3.4632,3.2191,2.8823,2.5914,0.0,0.0,0.0,0.0,0.0,0.0,0.0,0.0,0.0,2.2576,2.4666,0.0,2.5344,0.0,2.9631,3.2662,3.5323,3.6612,0.0,0.0,3.6259,3.634,3.7663,3.8586,4.0051,4.2436,4.3497,4.4883,4.7107,4.8545,4.9684,5.0444,5.0905,5.1365,5.1961,5.2289,5.2886,5.3863,5.4514,5.5138,5.5487,5.5665,5.5232,5.4033,5.2774,5.1192,4.8864,4.7982,4.7273,4.624,4.6002,4.6002,4.6002,4.6002,4.5937,4.5718,4.5762,4.5806,4.5696,4.5849,4.598,6.1129,6.1148,6.1129,6.0182,5.866,5.8389,5.849,5.8829,5.8423,5.8254,5.8186,5.6646,5.5243,5.4008,5.3281,5.3213,5.3622,5.3612,5.363,5.3634,5.3468,5.3215,5.2825,5.2736,5.2021,5.0697,4.9682,4.885,4.8142,4.7383,4.7188,4.7496,4.7393,4.6962,4.6203,4.5741,4.6449,4.8419,5.0664,5.1203,4.9964,4.8755,4.7161,4.5144,4.407,4.294,4.1652,4.1028,3.9563,3.7127,3.5852,3.3818,3.0843,2.8085,2.567,0.0,0.0,0.0,0.0,0.0,0.0,0.0,0.0,0.0,0.0,0.0,2.9702,3.1151,3.3512,3.5866,3.7989,3.9536,4.0404,4.0404,4.035,4.0567,4.1241,4.1815,4.2928,4.4771,4.575,4.6944,4.8761,5.028,5.1419,5.2124,5.2452,5.2723,5.3022,5.3103,5.3456,5.4355,5.4786,5.5193,5.5817,5.5778,5.5248,5.3989,5.279,5.1268,4.8995,4.7968,4.7163,4.6225,4.6002,4.6002,4.6002,4.6002,4.6002,4.6002,4.6002,4.6002,4.6002,4.6002,4.6002,6.2415,6.2415,6.2415,6.2415,6.2279,6.096,6.0385,6.0385,6.0419,6.0351,6.0216,5.9607,5.913,5.8773,5.8131,5.7487,5.6876,5.6387,5.5765,5.4987,5.4264,5.3707,5.3365,5.3085,5.2236,5.079,4.9404,4.8368,4.7722,4.765,4.7968,4.8789,5.0051,5.0728,5.0728,4.845,4.8481,5.0913,5.1666,5.1526,5.0502,4.9082,4.7437,4.5632,4.4098,4.2527,4.1028,4.0404,3.921,3.735,3.6259,3.4679,3.2418,3.0245,2.8058,0.0,2.514,0.0,0.0,0.0,0.0,0.0,0.0,0.0,0.0,3.3359,3.4481,3.6144,3.7778,3.9264,4.054,4.2164,4.3145,4.3278,4.3712,4.4065,4.4255,4.4689,4.5424,4.6699,4.7622,4.868,4.9954,5.1584,5.2558,5.2696,5.3158,5.3483,5.3565,5.3565,5.3754,5.4355,5.4464,5.4731,5.5184,5.5193,5.4796,5.3737,5.2658,5.1146,4.9201,4.8068,4.7075,4.6225,4.6002,4.6002,4.6002,4.6002,4.6002,4.6002,4.6002,4.6002,4.6002,4.6002,4.6002,6.2415,6.2415,6.2415,6.2415,6.2367,6.2096,6.1975,6.196,6.1975,6.1637,6.1095,6.0926,5.9749,5.7913,5.7544,5.6452,5.476,5.4174,5.3582,5.2974,5.3321,5.3377,5.3237,5.3952,5.3322,5.1498,5.0165,4.9127,4.8419,4.7845,4.8235,4.9497,5.0297,5.0974,5.1467,0.0,0.0,0.0,5.2252,5.1842,5.0962,4.9326,4.7693,4.6086,4.4156,0.0,4.0477,3.978,3.8396,3.6205,3.5798,0.0,0.0,0.0,0.0,0.0,0.0,0.0,0.0,0.0,0.0,0.0,3.59,3.5988,3.5167,3.6497,3.7935,3.9237,4.0106,4.13,4.2952,4.3875,4.4556,4.5017,4.518,4.564,4.6536,4.64,4.6781,4.8382,4.8382,4.887,5.0498,5.1446,5.2178,5.2696,5.3239,5.3565,5.3592,5.3592,5.3646,5.3782,5.4162,5.4487,5.4654,5.479,5.4411,5.3563,5.2861,5.1411,4.9227,4.8403,4.7544,4.6277,4.6002,4.6002,4.6002,4.6002,4.6002,4.6002,4.6002,4.6002,4.6002,4.6002,4.6002,6.2415,0.0,6.2415,6.2415,0.0,6.2415,6.2415,6.2415,6.2415,6.2178,6.1806,6.1467,6.0097,5.7961,5.6631,5.4829,5.2683,5.1307,5.0733,5.0896,5.1691,5.2361,5.2939,5.4129,5.3814,5.2175,5.0482,4.9497,4.9127,4.845,4.882,5.0174,5.119,5.1867,5.2175,5.2206,5.2337,5.2729,5.2337,5.1895,5.1326,4.9533,4.7896,4.6454,4.447,0.0,0.0,0.0,0.0,0.0,0.0,0.0,0.0,0.0,0.0,3.2264,3.2155,3.2381,3.3023,3.4415,3.628,3.864,4.0214,4.0431,3.8939,4.0187,4.1323,4.1947,4.3036,4.4122,4.5042,4.5912,4.6537,4.6863,4.7432,4.792,4.8192,4.8517,4.887,4.9413,4.9521,5.0009,5.1175,5.1882,5.2449,5.3049,5.3402,5.3592,5.3592,5.3592,5.3531,5.3406,5.3565,5.372,5.3589,5.3485,5.3255,5.2472,5.1513,5.0225,4.8697,4.7852,4.7077,4.6174,4.6002,4.6002,4.6002,4.6002,4.6002,4.6002,4.6002,4.6002,4.6002,4.6002,4.6002,6.2361,6.2415,6.2415,6.2415,6.2415,6.2415,6.2415,6.2415,0.0,0.0,0.0,6.1641,6.0208,5.8179,5.589,5.3536,5.1221,4.9114,4.8624,4.9499,5.0551,5.1713,5.2922,5.4391,5.4368,5.2983,5.1251,5.0288,5.002,4.9435,4.9722,5.0882,5.2091,5.2729,5.2729,5.2729,5.2729,5.2684,5.2269,5.188,5.1472,4.974,4.8158,4.6801,4.4785,4.2952,4.135,4.0567,3.959,3.832,3.845,3.7995,3.6849,3.6605,3.6144,3.5357,3.5791,3.6368,3.7121,3.851,4.0029,4.1629,4.328,4.3766,4.2575,4.347,4.4174,4.4255,4.5721,4.6699,4.6807,4.7622,4.8246,4.8354,4.9331,4.982,4.9521,5.039,5.0797,5.0443,5.0714,5.1285,5.188,5.2368,5.2911,5.3456,5.3565,5.3592,5.3592,5.3531,5.3373,5.314,5.3093,5.2886,5.2557,5.2265,5.1762,5.1219,5.0048,4.8813,4.7842,4.6995,4.6312,4.591,4.5937,4.6002,4.6002,4.6002,4.6002,4.6002,4.6002,4.6002,4.6002,4.6002,4.6002,6.2203,6.2415,6.2415,6.2415,6.2415,6.2415,6.2415,6.2415,6.2415,6.2282,6.2037,6.177,6.0151,5.7569,5.6072,5.3905,5.1256,4.9796,4.9395,4.9977,5.1638,5.2799,5.3629,5.5561,5.58,5.4429,5.3537,5.2522,5.1528,5.1313,5.1374,5.1652,5.2329,5.2729,5.2729,5.2729,5.2729,5.2676,5.2397,5.1911,5.1156,4.9975,4.8571,4.7042,4.5029,4.331,4.192,4.0811,3.94,3.7778,3.8591,3.8618,3.7507,3.8749,3.9726,4.0083,4.0675,4.1489,4.2545,4.2898,4.3386,4.4176,4.5395,4.5613,4.4474,4.4936,4.5558,4.6074,4.6834,4.7486,4.7893,4.8165,4.8517,4.8951,4.9602,5.0173,5.0607,5.1256,5.1663,5.1527,5.1609,5.188,5.2395,5.2642,5.294,5.3429,5.3592,5.3592,5.3531,5.3319,5.3106,5.292,5.2676,5.2442,5.2182,5.1893,5.1233,5.0156,4.9487,4.8378,4.6866,4.6501,4.617,4.5559,4.5799,4.6018,4.6002,4.6002,4.6002,4.6002,4.6002,4.6002,4.6002,4.6002,4.6002,6.2529,6.2663,6.3033,6.3215,6.3215,6.3235,6.3296,6.3418,6.3451,6.2825,6.183,6.1473,5.9923,5.7433,5.5573,5.3468,5.1234,4.9656,4.9439,5.0478,5.1951,5.326,5.4337,5.5961,5.6477,5.5807,5.513,5.4483,5.3868,5.3476,5.3137,5.2821,5.276,5.2729,5.2729,5.2729,5.2729,5.2676,5.2337,5.1757,5.0928,4.9903,4.8594,4.6998,4.569,4.4255,4.2545,4.1974,4.0974,3.9513,3.9997,4.0029,3.9541,4.0567,4.13,4.1598,4.2466,4.3359,4.423,4.4907,4.5531,4.6128,4.6671,4.6916,4.6619,4.6836,4.7107,4.7405,4.7975,4.8436,4.8707,4.9276,4.9765,5.0064,5.0905,5.1584,5.1882,5.2425,5.2669,5.2341,5.2287,5.2395,5.2639,5.2723,5.294,5.3483,5.3592,5.3592,5.3561,5.3136,5.2771,5.2618,5.2331,5.1988,5.1659,5.113,5.0597,5.0014,4.8831,4.7798,4.6797,4.6623,4.6168,4.5793,4.5992,4.6181,4.6077,4.6002,4.6002,4.6002,4.6002,4.6002,4.6002,4.6002,4.6002,6.2752,6.2873,6.3576,6.3911,6.3911,6.3911,6.4015,6.4236,6.4278,6.342,6.2045,6.1504,6.0104,5.7969,5.58,5.3883,5.2094,5.0499,5.0359,5.1436,5.2606,5.3783,5.4952,5.6231,5.6785,5.6748,5.62,5.5869,5.5653,5.5191,5.4491,5.3722,5.3168,5.2883,5.2729,5.2729,5.2614,5.2469,5.2162,5.1533,5.0555,4.9664,4.8425,4.6825,4.6205,4.5163,4.3631,4.3362,4.2738,4.1625,4.1764,4.1791,4.1547,4.2222,4.2656,4.2873,4.366,4.4554,4.5261,4.6292,4.7106,4.754,4.7703,4.7948,4.8354,4.868,4.868,4.8517,4.8924,4.9276,4.9412,5.0227,5.0905,5.096,5.1991,5.2588,5.275,5.3239,5.3429,5.2995,5.2913,5.2913,5.2913,5.2913,5.3073,5.3362,5.347,5.347,5.3319,5.2769,5.2265,5.2184,5.1936,5.1503,5.1022,5.062,5.0206,4.9966,4.8731,4.7942,4.7539,4.6978,4.6395,4.6059,4.6256,4.6278,4.5945,4.5937,4.598,4.6002,4.6002,4.6046,4.6177,4.6199,4.6111,6.2641,6.2907,6.358,6.3911,6.3914,6.3902,6.3935,6.3999,6.4195,6.3772,6.2781,6.2432,6.1333,5.9667,5.7908,5.6217,5.4698,5.3705,5.3291,5.3529,5.4183,5.4891,5.5622,5.6416,5.6785,5.6785,5.6693,5.6324,5.58,5.5622,5.4945,5.3814,5.3629,5.3291,5.279,5.2729,5.2421,5.1814,5.1949,5.1269,4.98,4.9141,4.8094,4.6557,4.5962,4.5558,4.526,4.4827,4.3959,4.2955,4.3742,4.385,4.2982,4.3796,4.4664,4.5153,4.5343,4.5938,4.7024,4.7703,4.8056,4.8165,4.8626,4.8951,4.9087,5.0037,5.0173,4.9439,4.9602,4.9927,4.9956,5.058,5.1014,5.1122,5.2072,5.2723,5.2832,5.3239,5.3565,5.3537,5.3456,5.351,5.3456,5.3426,5.3359,5.3078,5.3044,5.2891,5.2558,5.1872,5.1413,5.1558,5.1428,5.0887,5.0328,5.0449,5.0197,4.9487,4.9169,4.8706,4.8146,4.7666,4.7151,4.6164,4.6276,4.6345,4.58,4.5696,4.6002,4.6024,4.6046,4.6155,4.6467,4.662,4.6526,6.2715,6.2847,6.3592,6.392,6.392,6.392,6.401,6.4166,6.4443,6.4154,6.3489,6.301,6.1839,6.0114,5.8806,5.7892,5.7246,5.6471,5.6139,5.6108,5.6023,5.6108,5.6354,5.6631,5.6785,5.6785,5.6785,5.6631,5.6324,5.5923,5.5407,5.4822,5.4122,5.3568,5.3291,5.2914,5.2368,5.1722,5.1888,5.1013,4.9262,4.8866,4.8072,4.6663,4.6264,4.5966,4.564,4.5343,4.4827,4.4067,4.4447,4.4474,4.4013,4.4773,4.5343,4.5614,4.6291,4.7024,4.7839,4.8083,4.8327,4.8707,4.9276,4.9738,5.0173,5.096,5.1175,5.0849,5.0931,5.1066,5.1094,5.1582,5.1964,5.2072,5.275,5.3239,5.3239,5.3429,5.3592,5.3592,5.3592,5.3592,5.3561,5.341,5.3105,5.2619,5.2342,5.2032,5.1502,5.0905,5.0722,5.0845,5.0514,5.0109,4.9928,5.0335,5.0239,4.9771,4.9397,4.9071,4.8884,4.8263,4.7543,4.634,4.6617,4.6448,4.5486,4.5696,4.6002,4.6068,4.6271,4.6467,4.6663,4.6963,4.7029,6.2351,6.2479,6.3146,6.3492,6.346,6.346,6.3555,6.3768,6.4002,6.3815,6.3316,6.2931,6.1953,6.0572,5.9693,5.928,5.9008,5.8572,5.8264,5.8017,5.7371,5.7087,5.7063,5.6847,5.6785,5.6785,5.6785,5.6785,5.6724,5.6293,5.5923,5.5561,5.473,5.406,5.3691,5.3168,5.2483,5.1546,5.1796,5.0833,4.8714,4.864,4.8072,4.6665,4.6509,4.621,4.5614,4.5775,4.5585,4.499,4.5234,4.5424,4.5477,4.5994,4.6319,4.6401,4.7269,4.8029,4.8436,4.8761,4.9141,4.9575,5.0144,5.0688,5.115,5.169,5.2016,5.2016,5.2178,5.2205,5.188,5.2341,5.2696,5.275,5.3239,5.3592,5.3592,5.3592,5.3592,5.3592,5.3501,5.341,5.3288,5.2922,5.2404,5.1908,5.1471,5.1,5.0397,4.9976,4.9761,5.0132,4.955,4.9276,4.9631,5.0105,5.0143,4.9939,4.9562,4.9781,4.9603,4.9039,4.8142,4.7222,4.725,4.6705,4.5662,4.5675,4.6111,4.6243,4.6467,4.6838,4.7204,4.7466,4.7619,6.1277,6.1396,6.2045,6.2386,6.2386,6.2355,6.2386,6.2436,6.2624,6.2428,6.2072,6.199,6.1665,6.1122,6.0733,6.0332,5.9809,5.968,5.928,5.8726,5.8079,5.774,5.7709,5.7093,5.6785,5.6785,5.6785,5.6785,5.681,5.6724,5.6385,5.5715,5.5584,5.4945,5.3968,5.3691,5.2698,5.1177,5.1582,5.0571,4.8148,4.8386,4.8044,4.6665,4.6509,4.621,4.5748,4.6156,4.6183,4.5613,4.6563,4.7187,4.7269,4.7704,4.7975,4.811,4.8626,4.9005,4.9195,5.0037,5.0688,5.0851,5.1312,5.1717,5.1772,5.2287,5.2639,5.2669,5.3103,5.2995,5.2151,5.2558,5.2832,5.2802,5.3293,5.3592,5.3592,5.3673,5.3619,5.3555,5.3362,5.3048,5.2695,5.2063,5.1612,5.114,5.0582,5.0008,4.9608,4.9032,4.892,4.9131,4.8926,4.8551,4.9071,4.972,4.9744,4.9565,4.9891,5.0529,5.0364,4.9938,4.8824,4.7911,4.7545,4.6837,4.5838,4.5659,4.614,4.6445,4.6729,4.7116,4.7641,4.8029,4.8182,6.0924,6.0955,6.1229,6.1323,6.1348,6.1323,6.1348,6.1373,6.1627,6.152,6.1272,6.1373,6.1246,6.0949,6.0845,6.0671,6.0424,5.9993,5.968,5.9347,5.8756,5.8202,5.7802,5.7525,5.721,5.6816,5.6785,5.6785,5.6785,5.6785,5.6662,5.6354,5.5899,5.5407,5.4914,5.4145,5.2891,5.1515,5.1399,5.0122,4.7898,4.8013,4.7653,4.6612,4.6509,4.6184,4.5614,4.6183,4.64,4.6183,4.6969,4.7567,4.7893,4.811,4.8354,4.8734,4.8978,4.9439,5.0173,5.0634,5.1095,5.1473,5.2016,5.2368,5.2449,5.2913,5.3236,5.332,5.3429,5.332,5.3239,5.351,5.37,5.3429,5.3782,5.3999,5.3782,5.3917,5.41,5.3847,5.3467,5.2949,5.2282,5.1621,5.0934,5.0334,4.9596,4.9083,4.8755,4.8245,4.8267,4.8782,4.8411,4.7954,4.8483,4.9383,4.9817,4.9672,4.9854,5.0396,5.0519,5.0033,4.9036,4.8338,4.7849,4.7139,4.6197,4.6039,4.6477,4.6685,4.6969,4.7553,4.8099,4.8339,4.8536,6.0246,6.0246,6.0246,6.0246,6.0246,6.0246,6.0246,6.0272,6.0451,6.0399,6.0324,6.0529,6.0529,6.0455,6.0586,6.0695,6.0659,6.028,6.0142,6.0055,5.9408,5.8879,5.8448,5.7986,5.7555,5.7124,5.6902,5.6785,5.6785,5.6785,5.6785,5.6755,5.6262,5.5923,5.5561,5.4506,5.3261,5.2044,5.1251,4.9912,4.8093,4.7934,4.7502,4.6662,4.6509,4.6102,4.537,4.5911,4.6184,4.6318,4.7133,4.8002,4.868,4.8788,4.8951,4.9331,4.9575,5.001,5.0797,5.1258,5.1665,5.207,5.2642,5.2995,5.3022,5.3537,5.3836,5.3917,5.4107,5.4189,5.4297,5.4704,5.4731,5.4107,5.4243,5.4464,5.4243,5.4351,5.4233,5.3792,5.3296,5.2692,5.1933,5.1109,5.0397,4.9727,4.9059,4.8649,4.8305,4.8219,4.8098,4.8676,4.8469,4.8195,4.8507,4.9263,4.9624,4.9552,4.9974,5.0479,5.0554,5.0033,4.9474,4.8787,4.8095,4.7368,4.6883,4.6667,4.6733,4.6942,4.7444,4.8029,4.8383,4.8667,4.8689,5.9153,5.9207,5.9126,5.9234,5.9261,5.9261,5.9153,5.9234,5.9234,5.9315,5.9369,5.9503,5.969,5.969,6.0219,6.0429,6.0451,6.0598,6.0671,6.064,6.0086,5.9747,5.9588,5.8448,5.7771,5.7586,5.7087,5.6785,5.6785,5.6785,5.6785,5.681,5.6755,5.6385,5.5738,5.488,5.3705,5.239,5.1339,4.991,4.8388,4.8028,4.7483,4.6612,4.6509,4.6021,4.4963,4.5451,4.5831,4.5967,4.7324,4.8761,4.9738,4.9983,5.0009,5.0117,5.058,5.0878,5.1068,5.1991,5.2533,5.2778,5.3239,5.3537,5.3673,5.408,5.4406,5.4569,5.4921,5.527,5.5355,5.5762,5.5681,5.4731,5.4623,5.4894,5.5084,5.4836,5.4204,5.3532,5.3056,5.2305,5.1405,5.0636,4.9992,4.9554,4.9184,4.8932,4.8637,4.8734,4.8782,4.8637,4.8613,4.8652,4.8844,4.9119,4.9239,4.9456,5.0119,5.066,5.059,5.0211,4.989,4.9273,4.874,4.8032,4.741,4.7253,4.7383,4.7619,4.8084,4.84,4.8602,4.8798,4.8667,5.9099,5.9099,5.9099,5.9099,5.9099,5.9099,5.9099,5.9099,5.9099,5.9099,5.9153,5.9369,5.9503,5.9636,6.0114,6.0403,6.0429,6.0664,6.0794,6.0763,6.0547,6.0209,5.9686,5.891,5.8017,5.7241,5.6933,5.6785,5.6816,5.6785,5.6785,5.6785,5.6785,5.6693,5.6385,5.5476,5.4294,5.2827,5.128,4.9509,4.7599,4.7219,4.695,4.6585,4.6509,4.6481,4.6563,4.6753,4.6834,4.6862,4.811,4.9358,5.0417,5.1014,5.1229,5.1256,5.1392,5.1747,5.2126,5.2479,5.294,5.3239,5.351,5.3809,5.4134,5.4409,5.4735,5.503,5.527,5.5378,5.5487,5.5952,5.6007,5.522,5.5491,5.5573,5.5424,5.5127,5.4611,5.3819,5.3206,5.2284,5.1171,5.0343,4.9955,4.9703,4.94,4.9143,4.9335,4.9239,4.9095,4.8926,4.9047,4.9071,4.9071,4.9301,4.9662,4.9782,5.0311,5.0696,5.059,5.0483,5.0163,4.9853,4.9318,4.8749,4.8147,4.7931,4.8084,4.8195,4.8535,4.8741,4.886,4.882,4.8711,5.9099,5.9099,5.9099,5.9099,5.9099,5.9099,5.9099,5.9099,5.9099,5.9099,5.9126,5.9261,5.9342,5.9476,5.9982,6.0219,6.0302,6.0612,6.0794,6.0794,6.0794,6.0547,6.0086,5.947,5.8633,5.7648,5.7278,5.7155,5.7179,5.6909,5.6785,5.6785,5.6785,5.6785,5.67,5.5724,5.4528,5.3207,5.1552,4.9647,4.8019,4.7464,4.7356,4.7213,4.7351,4.7758,4.8328,4.8572,4.8382,4.8083,4.9006,5.0227,5.1177,5.1582,5.1799,5.1853,5.2016,5.2287,5.2666,5.313,5.351,5.3863,5.4134,5.4406,5.4813,5.4976,5.5383,5.5654,5.6197,5.6414,5.6495,5.6956,5.7092,5.6821,5.6414,5.6106,5.5645,5.529,5.4682,5.3825,5.2975,5.198,5.0987,5.0479,5.0105,4.9937,4.9817,4.9624,4.9889,4.9817,4.9648,4.9541,4.9686,4.9517,4.9109,4.9493,5.0119,5.0287,5.0479,5.0648,5.0625,5.0578,5.0365,5.0317,4.9915,4.9586,4.9045,4.8845,4.8885,4.9007,4.8955,4.8873,4.8907,4.8907,4.8737,5.9099,5.9099,5.9099,5.9099,5.9099,5.9099,5.9099,5.9099,5.9099,5.9099,5.9099,5.9126,5.9126,5.9234,5.9773,6.0039,6.0092,6.056,6.0794,6.0794,6.0794,6.0701,6.0424,5.9901,5.9255,5.8633,5.8079,5.7832,5.7648,5.7241,5.6816,5.684,5.6785,5.6785,5.6621,5.5633,5.4647,5.3498,5.1977,5.0241,4.843,4.8509,4.8408,4.8137,4.868,4.9331,4.9983,5.0417,5.0037,4.8897,5.0144,5.1285,5.1744,5.1907,5.2124,5.2233,5.2588,5.2913,5.3185,5.3917,5.446,5.4541,5.4948,5.5406,5.5464,5.5817,5.6142,5.6387,5.726,5.7912,5.7993,5.8395,5.8633,5.8633,5.7293,5.6379,5.5805,5.53,5.4448,5.3419,5.2441,5.1527,5.0837,5.0648,5.0431,5.025,5.0311,5.0287,5.0226,5.0226,5.0287,5.0239,5.0119,4.995,4.9576,4.9878,5.0407,5.0479,5.06,5.0648,5.0792,5.0769,5.0842,5.077,5.0764,5.0413,5.0071,4.9912,4.9538,4.9307,4.9195,4.9,4.8789,4.871,4.8208,5.9099,5.9099,5.9099,5.9099,5.9099,5.9099,5.9099,5.9099,5.9099,5.9099,5.9099,5.9099,5.9099,5.918,5.972,5.9986,6.0118,6.0534,6.0794,6.0794,6.0794,6.0486,6.0147,5.9901,5.947,5.891,5.8664,5.8264,5.7832,5.7648,5.7309,5.6785,5.6909,5.6847,5.6651,5.6152,5.4955,5.3535,5.2232,5.0309,4.8264,4.8218,4.8301,4.83,4.9249,5.028,5.1202,5.1473,5.1419,5.1012,5.1692,5.2289,5.2533,5.3239,5.3646,5.3782,5.427,5.4619,5.4673,5.4948,5.5166,5.5166,5.5383,5.56,5.6034,5.6197,5.6522,5.6929,5.7694,5.8129,5.821,5.8693,5.8702,5.7983,5.7339,5.6653,5.5775,5.5015,5.4114,5.2829,5.2129,5.1446,5.0943,5.0696,5.0648,5.0527,5.0551,5.0672,5.0503,5.0455,5.0503,5.0287,5.0202,5.0178,5.0202,5.0431,5.0624,5.0648,5.0696,5.0696,5.0888,5.1069,5.1273,5.1413,5.171,5.1528,5.1198,5.0941,5.0419,4.9868,4.9222,4.8925,4.841,4.8132,4.7432,5.8949,5.874,5.8979,5.8949,5.874,5.8979,5.9099,5.9099,5.9099,5.9099,5.9099,5.9099,5.9099,5.9153,5.972,5.9986,6.0065,6.0564,6.0794,6.0794,6.0794,6.0578,6.0301,6.0209,5.9993,5.9655,5.9341,5.9033,5.8664,5.8387,5.7986,5.7771,5.7617,5.7648,5.7685,5.7073,5.5953,5.4349,5.3031,5.1165,4.8763,4.9032,4.9304,4.9548,5.047,5.1609,5.2422,5.2558,5.2479,5.2314,5.2533,5.294,5.3456,5.4053,5.4596,5.484,5.5247,5.5351,5.5433,5.5627,5.579,5.5844,5.598,5.6305,5.6604,5.6685,5.6875,5.7146,5.7966,5.8367,5.8612,5.9108,5.8739,5.7705,5.7162,5.6482,5.5284,5.4317,5.3368,5.2372,5.1632,5.1201,5.0731,5.0696,5.0696,5.0696,5.0672,5.0696,5.0672,5.0672,5.0648,5.0431,5.0359,5.0407,5.0466,5.0648,5.0768,5.0792,5.0936,5.0912,5.1081,5.1393,5.1861,5.2158,5.2504,5.2553,5.2037,5.1654,5.1301,5.0598,4.9651,4.8587,4.7951,4.7192,4.6508,5.8979,5.8474,5.9069,5.8979,5.8653,5.9069,5.9458,5.9368,5.9458,5.9428,5.9428,5.9368,5.9518,5.9336,6.0173,6.0289,6.0316,6.0963,6.1111,6.1132,6.1071,6.0917,6.0917,6.0701,6.064,6.0517,6.0142,5.9839,5.9526,5.9095,5.8941,5.8756,5.8756,5.8818,5.8595,5.8197,5.7008,5.5313,5.4122,5.2348,5.043,5.0444,5.0714,5.0904,5.1964,5.2778,5.3293,5.3483,5.332,5.294,5.2856,5.3456,5.4382,5.4545,5.4948,5.5437,5.5681,5.5762,5.5708,5.6197,5.6387,5.6468,5.6848,5.7206,5.7119,5.7092,5.7206,5.7363,5.834,5.8877,5.9204,5.9757,5.904,5.767,5.6746,5.5813,5.4551,5.3452,5.2569,5.1911,5.1201,5.0908,5.0802,5.0767,5.0767,5.0873,5.0802,5.0696,5.0696,5.0696,5.0696,5.0648,5.0648,5.072,5.0768,5.084,5.0888,5.0936,5.1177,5.1273,5.1393,5.1778,5.2391,5.2784,5.276,5.266,5.2409,5.2092,5.1593,5.0572,4.914,4.8071,4.7111,4.6225,4.5454,6.0595,6.0478,6.0625,6.0567,6.0505,6.0625,6.0655,6.0597,6.0627,6.0565,6.0655,6.0627,6.0597,6.0653,6.1171,6.1564,6.1524,6.1978,6.2368,6.2302,6.1779,6.1625,6.1471,6.1101,6.0824,6.0763,6.0671,6.0301,5.987,5.9773,5.9619,5.9588,5.9341,5.907,5.945,5.8603,5.709,5.5517,5.464,5.3107,5.136,5.1283,5.1609,5.1744,5.2805,5.3402,5.3537,5.3592,5.3754,5.3999,5.4134,5.4297,5.4677,5.5383,5.5871,5.6115,5.6522,5.6739,5.6794,5.6848,5.7016,5.7043,5.7146,5.7174,5.7174,5.7255,5.7477,5.7885,5.8585,5.9237,5.9654,5.9755,5.8778,5.7381,5.6552,5.5571,5.3872,5.2878,5.2357,5.19,5.1646,5.1541,5.1506,5.1201,5.113,5.106,5.0919,5.0731,5.0696,5.0696,5.0696,5.0696,5.072,5.0768,5.0936,5.1032,5.1129,5.1118,5.1273,5.1368,5.1548,5.1715,5.2128,5.2502,5.2802,5.2588,5.2054,5.1293,5.0575,4.9528,4.8508,4.731,4.6163,4.5251,4.4248,6.0924,6.0655,6.0984,6.0924,6.0715,6.0984,6.1076,6.1076,6.1076,6.1076,6.1076,6.1076,6.1076,6.1132,6.1715,6.1989,6.2126,6.2557,6.2768,6.2702,6.2368,6.2091,6.1779,6.144,6.1132,6.0886,6.0763,6.0547,6.0393,6.0547,6.0794,6.0732,6.0358,6.0486,6.0501,5.9544,5.8055,5.6419,5.533,5.3895,5.2176,5.2045,5.2395,5.2694,5.351,5.3999,5.4026,5.4351,5.4596,5.4894,5.5166,5.5328,5.5383,5.5925,5.6387,5.6739,5.6989,5.7174,5.7174,5.7201,5.7314,5.7613,5.764,5.7798,5.7933,5.8042,5.815,5.853,5.9006,5.9535,5.9593,5.907,5.8006,5.6672,5.5949,5.4934,5.3572,5.2899,5.2461,5.2024,5.1786,5.1751,5.1656,5.1586,5.1376,5.1271,5.113,5.0919,5.0696,5.0696,5.0696,5.0696,5.0696,5.0792,5.1008,5.1213,5.1393,5.1344,5.1304,5.1332,5.1359,5.1487,5.1662,5.1934,5.2105,5.1624,5.1046,5.0281,4.9417,4.8518,4.7467,4.6262,4.5149,4.4125,4.3112,6.1074,6.0595,6.1164,6.1074,6.0685,6.1224,6.1493,6.1463,6.1403,6.1583,6.1433,6.1433,6.1613,6.1603,6.2138,6.2323,6.2628,6.2928,6.3379,6.3349,6.3071,6.2733,6.2333,6.2056,6.1625,6.1009,6.0855,6.0763,6.0917,6.144,6.1656,6.1871,6.1933,6.1902,6.177,6.0864,5.9276,5.7412,5.6335,5.4823,5.3134,5.2832,5.3103,5.3646,5.4053,5.4487,5.465,5.503,5.541,5.5573,5.6034,5.6305,5.6414,5.6468,5.6604,5.7146,5.7314,5.745,5.7504,5.7526,5.777,5.8237,5.8237,5.8455,5.8802,5.8856,5.8937,5.9169,5.9467,5.9441,5.8921,5.8329,5.7195,5.593,5.5201,5.4547,5.3754,5.3431,5.3162,5.2233,5.2169,5.2203,5.2099,5.1995,5.1691,5.1446,5.1306,5.1155,5.0921,5.0744,5.0768,5.072,5.0696,5.1153,5.1441,5.1778,5.1909,5.1382,5.1299,5.0835,5.0738,5.0322,5.03,5.1002,5.1087,5.0491,4.9769,4.8925,4.8089,4.7347,4.6627,4.5678,4.4451,4.3048,4.2258,6.2718,6.2629,6.2718,6.2718,6.2629,6.2718,6.2718,6.2778,6.2689,6.2778,6.2718,6.2748,6.2689,6.2832,6.3375,6.3881,6.4089,6.4279,6.4395,6.4272,6.3933,6.3475,6.3229,6.2825,6.2271,6.1625,6.1163,6.0886,6.0948,6.1471,6.2117,6.2517,6.2552,6.2741,6.2791,6.2147,6.0034,5.8055,5.6967,5.5492,5.3962,5.3483,5.3673,5.4246,5.4572,5.4867,5.5193,5.5351,5.5627,5.6088,5.6251,5.6577,5.6848,5.6956,5.7065,5.7314,5.7667,5.7857,5.7993,5.8367,5.8666,5.8829,5.8856,5.8883,5.9046,5.9067,5.9365,5.9481,5.9475,5.9209,5.8186,5.7615,5.6859,5.597,5.5689,5.5538,5.4832,5.4641,5.4284,5.3059,5.2819,5.2694,5.263,5.2566,5.2371,5.2105,5.1823,5.1612,5.1317,5.1067,5.0888,5.0816,5.0696,5.1345,5.1946,5.2341,5.2456,5.1451,5.0897,4.9867,4.947,4.8741,4.878,4.9307,4.939,4.8855,4.8172,4.7418,4.6876,4.6187,4.5657,4.5164,4.4155,4.3081,4.2383,6.3108,6.3108,6.3108,6.3108,6.3108,6.3108,6.3108,6.3108,6.3108,6.3108,6.3108,6.3108,6.3108,6.328,6.3738,6.4331,6.4777,6.4888,6.4888,6.4795,6.4549,6.4149,6.3875,6.3445,6.2675,6.1968,6.144,6.1101,6.0948,6.1871,6.2398,6.2649,6.2691,6.2795,6.2517,6.0992,5.9622,5.7973,5.6935,5.5735,5.4236,5.4053,5.427,5.4545,5.5111,5.5573,5.5817,5.6224,5.6441,5.6712,5.6766,5.6961,5.7092,5.7201,5.7336,5.7667,5.7966,5.8292,5.8536,5.8883,5.9073,5.9426,5.9453,5.9643,5.9833,5.9996,5.9826,5.9617,5.9181,5.8567,5.7462,5.7019,5.6527,5.6202,5.6215,5.6039,5.5738,5.5733,5.4978,5.4009,5.3889,5.3703,5.3352,5.3228,5.3103,5.2812,5.2438,5.2108,5.1811,5.1524,5.1297,5.1345,5.1309,5.1573,5.2038,5.2101,5.209,5.1238,5.0145,4.9101,4.8247,4.7512,4.7188,4.7363,4.7229,4.717,4.6467,4.5719,4.533,4.5141,4.4813,4.4441,4.386,4.3196,4.2542,6.3108,6.3108,6.3108,6.3108,6.3108,6.3108,6.3108,6.3108,6.3108,6.3108,6.3108,6.3108,6.3108,6.328,6.3738,6.4331,6.486,6.4888,6.4888,6.4888,6.4857,6.4549,6.4183,6.3875,6.3445,6.2552,6.206,6.1629,6.1409,6.2179,6.2675,6.2806,6.2649,6.232,6.175,6.0533,5.8801,5.7513,5.6665,5.5622,5.4876,5.4677,5.4758,5.4898,5.579,5.6305,5.6495,5.6794,5.7011,5.7092,5.7146,5.7174,5.7174,5.7174,5.7526,5.8129,5.8265,5.8645,5.9019,5.9399,5.9697,6.0023,6.0084,6.0355,6.0538,6.0455,6.0288,5.9693,5.8815,5.8031,5.715,5.6639,5.6448,5.6452,5.6551,5.6613,5.6411,5.6232,5.5906,5.529,5.5049,5.4622,5.4185,5.4013,5.3879,5.3629,5.326,5.2912,5.2587,5.2176,5.2007,5.2103,5.209,5.2049,5.1966,5.1526,5.1154,5.0262,4.8977,4.777,4.6981,4.6243,4.6022,4.5759,4.5637,4.5474,4.4739,4.4528,4.4743,4.4695,4.4207,4.396,4.389,4.3485,4.2838,6.3108,6.3108,6.3108,6.3108,6.3108,6.3108,6.3108,6.3108,6.3108,6.3108,6.3108,6.3078,6.3048,6.3249,6.3708,6.4331,6.4718,6.4795,6.4764,6.4764,6.4764,6.4764,6.4734,6.4764,6.418,6.3383,6.2922,6.2306,6.2148,6.261,6.2829,6.2868,6.2996,6.2674,6.1554,6.0596,5.9626,5.7805,5.7393,5.6685,5.5516,5.5247,5.5518,5.5898,5.6251,5.6549,5.6902,5.7119,5.7174,5.7174,5.7174,5.7174,5.7174,5.7174,5.7825,5.8503,5.8964,5.9154,5.9724,6.0138,6.0382,6.0545,6.06,6.0735,6.0721,6.0438,6.0122,5.9916,5.8739,5.7713,5.705,5.6883,5.6687,5.6813,5.7037,5.7137,5.701,5.6634,5.6344,5.6118,5.5717,5.53,5.4863,5.4777,5.4651,5.4361,5.407,5.3729,5.3213,5.2686,5.2141,5.2078,5.1977,5.1905,5.1324,5.0971,5.0097,4.9231,4.7847,4.6506,4.588,4.5209,4.4555,4.4309,4.4309,4.4493,4.4368,4.4377,4.4537,4.459,4.4473,4.4414,4.4333,4.3787,4.3128,6.3108,6.3108,6.3108,6.3108,6.3108,6.3108,6.3108,6.3108,6.3108,6.3108,6.3018,6.2689,6.2682,6.3113,6.3724,6.4087,6.4254,6.4306,6.4303,6.4364,6.4395,6.4549,6.4826,6.4857,6.4518,6.4122,6.3937,6.3995,6.3564,6.3071,6.2952,6.336,6.322,6.2812,6.1603,6.0582,5.9449,5.8109,5.7071,5.6096,5.5558,5.5433,5.5677,5.6278,5.6604,5.6902,5.7092,5.7174,5.7174,5.7174,5.7174,5.7174,5.7314,5.7559,5.8156,5.8856,5.9344,5.9778,6.0355,6.0654,6.0762,6.0817,6.0817,6.079,6.0652,6.0265,5.9666,5.9095,5.819,5.7352,5.6765,5.657,5.6886,5.7149,5.7425,5.755,5.7437,5.7085,5.6759,5.6584,5.6408,5.6034,5.5797,5.5778,5.567,5.5399,5.4975,5.453,5.3699,5.2779,5.219,5.1693,5.1603,5.146,5.0688,5.0046,4.8933,4.7948,4.6708,4.5556,4.4965,4.4268,4.3856,4.3691,4.3898,4.4019,4.4059,4.4427,4.4746,4.4863,4.4902,4.4746,4.457,4.404,4.3416,6.3108,6.3108,6.3108,6.3108,6.3108,6.3108,6.3108,6.3108,6.3108,6.3108,6.2988,6.2629,6.2642,6.3062,6.3626,6.3937,6.3845,6.3814,6.3937,6.3998,6.4183,6.4703,6.5319,6.5442,6.5226,6.4552,6.4918,6.5134,6.498,6.4457,6.4057,6.4275,6.3801,6.3001,6.2053,6.0817,5.9535,5.8513,5.6765,5.597,5.5898,5.5762,5.6034,5.6495,5.6902,5.7174,5.7174,5.7174,5.7174,5.7174,5.7174,5.7255,5.7504,5.7857,5.8482,5.9127,5.9643,6.0111,6.0518,6.079,6.079,6.0851,6.092,6.0988,6.0858,6.0239,5.9641,5.9095,5.8138,5.7312,5.6651,5.647,5.6935,5.7374,5.7688,5.7813,5.7926,5.7612,5.7361,5.7149,5.7049,5.6938,5.6775,5.6788,5.6686,5.6433,5.5957,5.521,5.3866,5.2408,5.1581,5.0841,5.0672,5.0371,4.9496,4.868,4.769,4.6811,4.5576,4.48,4.4347,4.406,4.3774,4.3691,4.3769,4.3752,4.3896,4.4436,4.4957,4.4844,4.4766,4.4844,4.4668,4.418,4.3857,6.3108,6.3108,6.3108,6.3108,6.3108,6.3108,6.3108,6.3108,6.3108,6.3048,6.2898,6.2957,6.2822,6.3031,6.3381,6.3723,6.3722,6.3783,6.3998,6.4426,6.4918,6.5411,6.6027,6.6396,6.6521,6.6337,6.6211,6.6304,6.6488,6.6088,6.575,6.5663,6.4894,6.3514,6.2326,6.126,5.9846,5.8609,5.6875,5.645,5.6522,5.6468,5.6414,5.6902,5.7119,5.7174,5.7174,5.7255,5.7309,5.7309,5.7418,5.7608,5.802,5.8292,5.8889,5.9507,5.9914,6.0328,6.0681,6.079,6.079,6.0858,6.1029,6.12,6.1234,6.0865,6.0323,5.9615,5.8586,5.7691,5.7201,5.701,5.7374,5.775,5.8077,5.8202,5.8303,5.8303,5.8014,5.7801,5.7512,5.7246,5.6832,5.6665,5.6826,5.6566,5.5075,5.4314,5.2525,5.109,5.0297,4.9665,4.9533,4.9018,4.7994,4.7174,4.6593,4.5984,4.498,4.4424,4.4052,4.3848,4.4004,4.3965,4.4062,4.3867,4.3867,4.4629,4.5039,4.4726,4.4609,4.4687,4.4726,4.4433,4.4262,6.3108,6.3108,6.3108,6.3108,6.3108,6.3108,6.3108,6.3108,6.3108,6.257,6.1942,6.224,6.2218,6.2092,6.2412,6.2713,6.2653,6.3045,6.3383,6.3872,6.4457,6.538,6.615,6.6765,6.686,6.6983,6.7012,6.7196,6.7414,6.7442,6.775,6.7356,6.6235,6.5102,6.3754,6.1792,6.0148,5.8755,5.7115,5.6256,5.6821,5.6305,5.6197,5.7151,5.7174,5.7174,5.7228,5.7613,5.7722,5.7857,5.8069,5.834,5.8639,5.8943,5.9344,5.9887,6.0185,6.0545,6.0708,6.079,6.079,6.0858,6.1098,6.137,6.1472,6.107,6.0619,5.9916,5.914,5.8221,5.7685,5.7575,5.7775,5.8177,5.8403,5.8504,5.8591,5.8616,5.8313,5.7924,5.7517,5.7116,5.6639,5.6214,5.6476,5.6557,5.4891,5.318,5.141,4.9833,4.8999,4.8436,4.833,4.7954,4.6966,4.6291,4.5676,4.5119,4.4496,4.4368,4.4219,4.4512,4.4629,4.4531,4.4392,4.4414,4.4609,4.5058,4.5098,4.4746,4.4551,4.4512,4.4551,4.4648,4.4732,6.3108,6.3108,6.3108,6.3108,6.3108,6.3108,6.3108,6.3108,6.3108,6.2361,6.1194,6.1761,6.1679,6.1334,6.1713,6.2164,6.2353,6.2702,6.3106,6.3749,6.4549,6.5503,6.6334,6.6981,6.7414,6.7535,6.7873,6.8183,6.8212,6.8674,6.8674,6.8277,6.7578,6.652,6.5337,6.2732,6.0565,5.9363,5.7327,5.6174,5.6961,5.6115,5.6034,5.6984,5.7174,5.7363,5.7499,5.7885,5.8156,5.84,5.8666,5.9019,5.9317,5.9616,5.9914,6.0247,6.0518,6.079,6.079,6.079,6.079,6.0824,6.1098,6.1404,6.1438,6.1207,6.0889,6.0155,5.9428,5.8734,5.8114,5.7851,5.8052,5.8403,5.8453,5.8554,5.8715,5.8777,5.841,5.8044,5.7436,5.6592,5.5413,5.4783,5.4563,5.4534,5.3224,5.1651,5.0269,4.8796,4.7637,4.7244,4.704,4.6608,4.6033,4.554,4.5193,4.5123,4.466,4.4696,4.4707,4.5,4.5058,4.4844,4.4824,4.498,4.5098,4.5176,4.5019,4.4746,4.4707,4.4766,4.5,4.5176,4.5332,6.3108,6.3108,6.3108,6.3108,6.3108,6.3108,6.3108,6.3108,6.3078,6.2359,6.1283,6.1762,6.1589,6.118,6.1504,6.2038,6.2503,6.2768,6.3383,6.4303,6.4857,6.6057,6.7045,6.7691,6.7935,6.8674,6.8766,6.8705,6.8766,6.8828,6.8919,6.8705,6.8062,6.7393,6.737,6.4483,6.2309,6.0722,5.7791,5.7086,5.6858,5.6201,5.6441,5.7038,5.7472,5.7716,5.8047,5.8346,5.8645,5.8964,5.9182,5.9507,5.986,5.9914,6.0213,6.0681,6.0735,6.079,6.079,6.0817,6.0871,6.0925,6.1247,6.1453,6.1419,6.1347,6.1083,6.0337,5.9716,5.9045,5.8439,5.8027,5.8428,5.8629,5.8679,5.8742,5.8966,5.8744,5.8337,5.7593,5.6724,5.5782,5.4301,5.3176,5.2658,5.2118,5.1157,5.0083,4.8999,4.7976,4.6846,4.6617,4.6484,4.614,4.5758,4.5044,4.4716,4.4746,4.4922,4.5039,4.5117,4.5312,4.5293,4.5137,4.5254,4.5449,4.5273,4.5074,4.5215,4.5371,4.5176,4.5215,4.5469,4.5683,4.5859,6.3108,6.3108,6.3108,6.3108,6.3108,6.3108,6.3108,6.3108,6.3018,6.2361,6.1343,6.1403,6.1047,6.0732,6.1129,6.1798,6.2314,6.3291,6.3968,6.4272,6.5106,6.6119,6.7075,6.7752,6.8243,6.8705,6.8889,6.8919,6.8858,6.8919,6.8919,6.8735,6.806,6.7152,6.5843,6.3803,6.2278,6.0692,5.8756,5.7565,5.7505,5.6981,5.6929,5.7749,5.8129,5.8395,5.8699,5.8971,5.9324,5.9589,5.9806,6.0158,6.041,6.0437,6.0572,6.079,6.079,6.079,6.0925,6.1061,6.1325,6.1422,6.1422,6.1661,6.1918,6.1574,6.1112,6.0582,5.9972,5.9449,5.911,5.8994,5.9182,5.9207,5.9232,5.9257,5.9253,5.8671,5.8089,5.6994,5.6063,5.3997,5.2287,5.1642,5.1138,5.0717,4.9934,4.9274,4.8311,4.7425,4.6433,4.6433,4.6252,4.595,4.5547,4.5176,4.5098,4.5293,4.5469,4.5586,4.5664,4.5683,4.5762,4.5742,4.582,4.5879,4.5723,4.5683,4.6035,4.6133,4.5898,4.5781,4.5957,4.6191,4.6406,6.3108,6.3108,6.3108,6.3108,6.3108,6.3108,6.3108,6.3108,6.3078,6.245,6.1642,6.1463,6.1258,6.1065,6.1376,6.2222,6.2925,6.3968,6.4798,6.4921,6.575,6.6519,6.7014,6.7537,6.8058,6.8551,6.8797,6.8919,6.8919,6.8919,6.8581,6.8089,6.7752,6.6508,6.5207,6.4067,6.3294,6.1649,5.9926,5.8697,5.8255,5.7783,5.7559,5.8265,5.8753,5.9073,5.9378,5.967,5.9996,6.0274,6.0545,6.079,6.079,6.079,6.079,6.079,6.079,6.0898,6.1135,6.1325,6.1705,6.2248,6.1953,6.1804,6.1907,6.145,6.0954,6.0468,6.0106,5.9808,5.9537,5.9547,5.9483,5.9483,5.9328,5.9328,5.8759,5.8173,5.7012,5.5966,5.4661,5.2478,5.0803,5.0104,4.9593,4.923,4.8802,4.8283,4.7848,4.7003,4.6348,4.6289,4.6289,4.6113,4.5898,4.5664,4.5664,4.5859,4.5898,4.5898,4.6055,4.6055,4.6211,4.6308,4.6172,4.6113,4.6211,4.6328,4.6387,4.6523,4.6562,4.6484,4.6523,4.6621,4.6714,6.3108,6.3108,6.3108,6.3108,6.3108,6.3108,6.3108,6.3108,6.3108,6.2718,6.2061,6.2002,6.1859,6.2059,6.2655,6.3565,6.4589,6.5414,6.5998,6.6429,6.6614,6.686,6.7075,6.7568,6.7906,6.8181,6.852,6.8919,6.8919,6.8919,6.8274,6.7442,6.7321,6.6259,6.5437,6.51,6.4338,6.2523,6.1243,6.0093,5.9376,5.8452,5.8527,5.8995,5.933,5.9595,5.9839,6.005,6.0328,6.0572,6.079,6.079,6.079,6.079,6.079,6.079,6.079,6.1088,6.1434,6.1597,6.2248,6.2801,6.2453,6.1908,6.1466,6.1243,6.0665,6.0247,5.9871,5.9743,5.9585,5.9547,5.9508,5.9289,5.9056,5.8667,5.8055,5.7068,5.5755,5.4503,5.3197,5.161,5.0442,4.9607,4.9411,4.9257,4.9038,4.8496,4.7973,4.7074,4.6509,4.6328,4.6328,4.6348,4.6172,4.5976,4.5957,4.6055,4.5957,4.5957,4.6152,4.6308,4.6308,4.6308,4.6308,4.6308,4.6308,4.6367,4.6484,4.6641,4.6855,4.6855,4.6777,4.6714,4.6772,6.3108,6.3108,6.3108,6.3108,6.3108,6.3108,6.3108,6.3108,6.3108,6.272,6.2091,6.2091,6.216,6.2083,6.3173,6.4142,6.5093,6.5965,6.655,6.6891,6.7106,6.6952,6.7168,6.7598,6.7844,6.8121,6.8489,6.8919,6.8919,6.8919,6.852,6.7752,6.7506,6.6649,6.6138,6.6183,6.4742,6.3446,6.236,6.1581,6.0776,5.9926,5.9934,6.0009,6.0077,6.0281,6.041,6.0491,6.0681,6.0735,6.079,6.079,6.079,6.079,6.079,6.079,6.0844,6.1034,6.1542,6.1996,6.2592,6.3181,6.2937,6.2412,6.1811,6.1103,6.0441,5.9947,5.9692,5.9587,5.9585,5.9547,5.9508,5.9392,5.8901,5.8055,5.7281,5.5926,5.4602,5.3167,5.1826,5.1252,5.0108,5.004,4.9905,4.9749,4.9378,4.879,4.8202,4.7341,4.6807,4.6601,4.6582,4.668,4.6426,4.6211,4.6211,4.623,4.6113,4.6055,4.6211,4.6328,4.6308,4.6367,4.6465,4.6406,4.6308,4.6387,4.6445,4.6836,4.707,4.7051,4.7006,4.7026,4.6928,6.3108,6.3108,6.3108,6.3108,6.3108,6.3108,6.3108,6.3108,6.3108,6.281,6.251,6.251,6.2612,6.3057,6.4173,6.5185,6.5875,6.7135,6.7812,6.7812,6.7627,6.7535,6.7658,6.7875,6.806,6.8274,6.8489,6.8919,6.8919,6.8857,6.8551,6.7906,6.7906,6.7075,6.637,6.6042,6.546,6.4417,6.3595,6.3131,6.248,6.1667,6.1247,6.1097,6.1063,6.077,6.079,6.079,6.079,6.079,6.079,6.079,6.079,6.079,6.079,6.079,6.0817,6.1244,6.186,6.224,6.2918,6.3362,6.3338,6.2535,6.1805,6.1026,6.0176,5.9535,5.9521,5.9508,5.9508,5.9508,5.9508,5.9508,5.8525,5.7519,5.6247,5.4835,5.3408,5.1914,5.1121,5.0656,5.0363,5.0381,5.0296,4.9975,4.9477,4.8888,4.8377,4.78,4.7346,4.7115,4.707,4.707,4.6777,4.6504,4.6445,4.6387,4.625,4.623,4.6328,4.6523,4.668,4.6699,4.6719,4.666,4.6601,4.6367,4.6406,4.6816,4.7129,4.7109,4.7182,4.7416,4.7305,6.3108,6.3108,6.3108,6.3108,6.3108,6.3108,6.3108,6.3108,6.3108,6.3108,6.3048,6.3078,6.3304,6.3762,6.4939,6.5923,6.6723,6.7788,6.8461,6.8858,6.8612,6.8304,6.8089,6.8489,6.8366,6.8304,6.8489,6.8919,6.8919,6.8888,6.8612,6.7998,6.8029,6.7475,6.6614,6.6488,6.6173,6.5831,6.5376,6.4994,6.4279,6.3249,6.2113,6.2058,6.1451,6.079,6.079,6.079,6.079,6.079,6.079,6.079,6.079,6.079,6.079,6.079,6.079,6.1407,6.2023,6.2457,6.3162,6.3542,6.359,6.2593,6.1733,6.0863,6.0048,5.9353,5.9237,5.9405,5.9444,5.9508,5.9508,5.9134,5.8354,5.7044,5.55,5.3956,5.2211,5.114,5.1167,5.0777,5.088,5.0943,5.0984,5.0431,4.9841,4.9158,4.8802,4.8364,4.7892,4.7609,4.7584,4.7461,4.7129,4.6855,4.668,4.6562,4.6426,4.6426,4.6523,4.6797,4.7109,4.7109,4.707,4.7031,4.6953,4.6797,4.6699,4.6816,4.7051,4.7109,4.7324,4.7754,4.7656,6.3108,6.3108,6.3108,6.3108,6.3108,6.3108,6.3108,6.3108,6.3108,6.3108,6.3108,6.3137,6.328,6.3805,6.5071,6.5995,6.6734,6.7919,6.8559,6.88,6.8919,6.8612,6.8181,6.8581,6.8489,6.8335,6.8489,6.8919,6.8919,6.8858,6.8858,6.8674,6.8581,6.8027,6.7198,6.7165,6.7141,6.6813,6.6859,6.631,6.5374,6.4318,6.3276,6.2592,6.1681,6.0892,6.079,6.079,6.079,6.079,6.079,6.079,6.079,6.079,6.079,6.079,6.0817,6.1434,6.2104,6.2592,6.3135,6.3758,6.369,6.2667,6.1695,6.0749,5.9971,5.9353,5.9043,5.9212,5.9328,5.9431,5.9367,5.8784,5.808,5.6462,5.4853,5.2941,5.1076,5.1015,5.1117,5.1232,5.1336,5.1398,5.146,5.11,5.0468,4.9975,4.9738,4.9355,4.8531,4.8227,4.8079,4.7916,4.7564,4.7355,4.7223,4.6924,4.6748,4.6724,4.6758,4.7129,4.75,4.748,4.7461,4.7441,4.7422,4.7383,4.7305,4.7187,4.7344,4.7539,4.7832,4.8223,4.8008,6.3108,6.3108,6.3108,6.3108,6.3108,6.3108,6.3108,6.3108,6.3108,6.3108,6.3108,6.3137,6.3252,6.3662,6.4925,6.582,6.6557,6.7806,6.85,6.883,6.8888,6.8705,6.8643,6.8705,6.8674,6.8551,6.8674,6.8919,6.8919,6.8919,6.8919,6.8919,6.8828,6.8489,6.7781,6.7691,6.7814,6.7445,6.7844,6.7416,6.6371,6.5214,6.4074,6.3122,6.1951,6.1098,6.079,6.079,6.079,6.079,6.079,6.079,6.079,6.079,6.079,6.079,6.0925,6.1298,6.2104,6.2647,6.3053,6.3758,6.427,6.3362,6.2734,6.1824,6.0376,5.9729,5.899,5.9056,5.8926,5.8926,5.912,5.8784,5.7582,5.6126,5.3983,5.1829,5.0814,5.0645,5.0963,5.1543,5.1605,5.1605,5.1601,5.1404,5.0828,5.0464,5.0348,5.0139,4.937,4.8918,4.8841,4.8606,4.8356,4.8184,4.7962,4.7622,4.7239,4.7341,4.7511,4.7701,4.7871,4.7949,4.7949,4.7871,4.7851,4.7812,4.7662,4.7422,4.7734,4.8105,4.8379,4.862,4.8464,6.3108,6.3108,6.3108,6.3108,6.3108,6.3108,6.3108,6.3108,6.3108,6.3108,6.3108,6.3108,6.3252,6.3816,6.4835,6.5635,6.6595,6.7719,6.8413,6.883,6.8889,6.8826,6.8826,6.8888,6.8797,6.8797,6.8919,6.8919,6.8919,6.8919,6.8919,6.8919,6.8674,6.8366,6.7781,6.7812,6.8214,6.8212,6.834,6.8289,6.7306,6.6106,6.4848,6.352,6.2186,6.1029,6.0892,6.079,6.079,6.079,6.079,6.079,6.079,6.079,6.079,6.079,6.0817,6.1434,6.2185,6.2511,6.3243,6.3957,6.4368,6.4236,6.3566,6.2671,6.126,6.0085,5.9409,5.8819,5.8688,5.856,5.8731,5.8521,5.7156,5.5624,5.3214,5.1077,5.0674,5.0417,5.0933,5.1573,5.1701,5.1701,5.1659,5.1462,5.1195,5.0923,5.0696,5.0489,5.0075,4.9879,4.9868,4.9591,4.925,4.8876,4.8568,4.8434,4.8171,4.8199,4.8228,4.8274,4.8405,4.86,4.8535,4.8385,4.8203,4.8144,4.7994,4.7838,4.8105,4.8457,4.8496,4.8718,4.8815,6.3108,6.3108,6.3108,6.3108,6.3108,6.3108,6.3108,6.3108,6.3108,6.3108,6.3108,6.3108,6.3165,6.3255,6.4514,6.5498,6.6447,6.7571,6.8354,6.883,6.8889,6.8919,6.8919,6.8919,6.8919,6.8919,6.8919,6.8919,6.8919,6.8919,6.8919,6.8919,6.8919,6.8982,6.9413,6.9413,6.9413,6.9351,6.9229,6.9205,6.8394,6.7053,6.5385,6.398,6.2592,6.1749,6.1234,6.0927,6.0824,6.079,6.079,6.079,6.079,6.079,6.079,6.079,6.079,6.1461,6.2077,6.243,6.3162,6.4084,6.4461,6.4456,6.3975,6.3702,6.2225,6.0636,5.9851,5.9014,5.8728,5.8374,5.8364,5.7881,5.6893,5.4889,5.2722,5.135,5.0463,5.0555,5.0797,5.1191,5.1338,5.1474,5.1791,5.1569,5.1297,5.105,5.105,5.0873,5.0626,5.0687,5.0747,5.0519,5.015,4.9491,4.9161,4.9067,4.8962,4.876,4.8685,4.8666,4.8796,4.8993,4.8966,4.8783,4.8685,4.8483,4.8542,4.8464,4.862,4.8815,4.8796,4.8776,4.8874]},{"header":{"parameterUnit":"m.s-1","parameterCategory":1,"la1":31.0,"la2":29.5877,"lo1":-88.7671,"lo2":-86.6584,"dy":0.0162,"dx":0.0185,"nx":115,"ny":88,"refTime":"2026-03-25T00:00:00:Z","depth":0,"parameterNumber":3,"parameterNumberName":"V-component_of_WINDS"},"data":[0.0,0.0,0.0,0.0,0.0,0.0,0.0,0.0,0.0,0.0,0.0,0.0,0.0,0.0,0.0,0.0,0.0,0.0,0.0,0.0,0.0,0.0,0.0,0.0,0.0,0.0,0.0,0.0,0.0,0.0,0.0,0.0,0.0,0.0,0.0,0.0,0.0,0.0,0.0,0.0,0.0,0.0,0.0,0.0,0.0,0.0,0.0,0.0,0.0,0.0,0.0,0.0,0.0,0.0,0.0,0.0,0.0,0.0,0.0,0.0,0.0,0.0,0.0,0.0,0.0,0.0,0.0,0.0,0.0,0.0,0.0,0.0,0.0,0.0,0.0,0.0,0.0,0.0,0.0,0.0,0.0,0.0,0.0,0.0,0.0,0.0,0.0,0.0,0.0,0.0,0.0,0.0,0.0,0.0,0.0,0.0,0.0,0.0,0.0,0.0,0.0,0.0,0.0,0.0,0.0,0.0,0.0,0.0,0.0,0.0,0.0,0.0,0.0,0.0,0.0,0.0,0.0,0.0,0.0,0.0,0.0,0.0,0.0,0.0,0.0,0.0,0.0,0.0,0.0,0.0,0.0,0.0,0.0,0.0,0.0,0.0,0.0,0.0,0.0,0.0,0.0,0.0,0.0,0.0,0.0,0.0,0.0,0.0,0.0,0.0,0.0,0.0,0.0,0.0,0.0,0.0,0.0,0.0,0.0,0.0,0.0,0.0,0.0,0.0,0.0,0.0,0.0,0.0,0.0,0.0,0.0,0.0,0.0,0.0,0.0,0.0,0.0,0.0,0.0,0.0,0.0,0.0,0.0,0.0,0.0,0.0,0.0,0.0,0.0,0.0,0.0,0.0,0.0,0.0,0.0,0.0,0.0,0.0,0.0,0.0,0.0,0.0,0.0,0.0,0.0,0.0,0.0,0.0,0.0,0.0,0.0,0.0,0.0,0.0,0.0,0.0,0.0,0.0,0.0,0.0,0.0,0.0,0.0,0.0,0.0,0.0,0.0,0.0,0.0,0.0,0.0,0.0,0.0,0.0,0.0,0.0,0.0,0.0,0.0,0.0,0.0,0.0,0.0,0.0,0.0,0.0,0.0,0.0,0.0,0.0,0.0,0.0,0.0,0.0,0.0,0.0,0.0,0.0,0.0,0.0,0.0,0.0,0.0,0.0,0.0,0.0,0.0,0.0,0.0,0.0,0.0,0.0,0.0,0.0,0.0,0.0,0.0,0.0,0.0,0.0,0.0,0.0,0.0,0.0,0.0,0.0,0.0,0.0,0.0,0.0,0.0,0.0,0.0,0.0,0.0,0.0,0.0,0.0,0.0,0.0,0.0,0.0,0.0,0.0,0.0,0.0,0.0,0.0,0.0,0.0,0.0,0.0,0.0,0.0,0.0,0.0,0.0,0.0,0.0,0.0,0.0,0.0,0.0,0.0,0.0,0.0,0.0,0.0,0.0,0.0,0.0,0.0,0.0,0.0,0.0,0.0,0.0,0.0,0.0,0.0,0.0,0.0,0.0,0.0,0.0,0.0,0.0,0.0,0.0,0.0,0.0,0.0,0.0,0.0,0.0,0.0,0.0,0.0,0.0,0.0,0.0,0.0,0.0,0.0,0.0,0.0,0.0,0.0,0.0,0.0,0.0,0.0,0.0,0.0,0.0,0.0,0.0,0.0,0.0,0.0,0.0,0.0,0.0,0.0,0.0,0.0,0.0,0.0,0.0,0.0,0.0,0.0,0.0,0.0,0.0,0.0,0.0,0.0,0.0,0.0,0.0,0.0,0.0,0.0,0.0,0.0,0.0,0.0,0.0,0.0,0.0,0.0,0.0,0.0,0.0,0.0,0.0,0.0,0.0,0.0,0.0,0.0,0.0,0.0,0.0,0.0,0.0,0.0,0.0,0.0,0.0,0.0,0.0,0.0,0.0,0.0,0.0,0.0,0.0,0.0,0.0,0.0,0.0,0.0,0.0,0.0,0.0,0.0,0.0,0.0,0.0,0.0,0.0,0.0,0.0,0.0,0.0,0.0,0.0,0.0,0.0,0.0,0.0,0.0,0.0,0.0,0.0,0.0,0.0,0.0,0.0,0.0,0.0,0.0,0.0,0.0,0.0,0.0,0.0,0.0,0.0,0.0,0.0,0.0,0.0,0.0,0.0,0.0,0.0,0.0,0.0,0.0,0.0,0.0,0.0,0.0,0.0,0.0,0.0,0.0,0.0,0.0,0.0,0.0,0.0,0.0,0.0,0.0,0.0,0.0,0.0,0.0,0.0,0.0,0.0,0.0,0.0,0.0,0.0,0.0,0.0,0.0,0.0,0.0,0.0,0.0,0.0,0.0,0.0,0.0,0.0,0.0,0.0,0.0,0.0,0.0,0.0,0.0,0.0,0.0,0.0,0.0,0.0,0.0,0.0,0.0,0.0,0.0,0.0,0.0,0.0,0.0,0.0,0.0,0.0,0.0,0.0,0.0,0.0,0.0,0.0,0.0,0.0,0.0,0.0,0.0,0.0,0.0,0.0,0.0,0.0,0.0,0.0,0.0,0.0,0.0,0.0,0.0,0.0,0.0,0.0,0.0,0.0,0.0,0.0,0.0,0.0,0.0,0.0,0.0,0.0,0.0,0.0,0.0,0.0,0.0,0.0,0.0,0.0,0.0,0.0,0.0,0.0,0.0,0.0,0.0,0.0,0.0,0.0,0.0,0.0,0.0,0.0,0.0,0.0,0.0,0.0,0.0,0.0,0.0,0.0,0.0,0.0,0.0,0.0,0.0,0.0,0.0,0.0,0.0,0.0,0.0,0.0,0.0,0.0,0.0,0.0,0.0,0.0,0.0,0.0,0.0,0.0,0.0,0.0,0.0,0.0,0.0,0.0,0.0,0.0,0.0,0.0,0.0,0.0,0.0,0.0,0.0,0.0,0.0,0.0,0.0,0.0,0.0,0.0,0.0,0.0,0.0,0.0,0.0,0.0,0.0,0.0,0.0,0.0,0.0,0.0,0.0,0.0,0.0,0.0,0.0,0.0,0.0,0.0,0.0,0.0,0.0,0.0,0.0,0.0,0.0,0.0,0.0,0.0,0.0,0.0,0.0,0.0,0.0,0.0,0.0,0.0,0.0,0.0,0.0,0.0,0.0,0.0,0.0,0.0,0.0,0.0,0.0,0.0,0.0,0.0,0.0,0.0,0.0,0.0,0.0,0.0,0.0,0.0,0.0,0.0,0.0,0.0,0.0,0.0,0.0,0.0,0.0,0.0,0.0,0.0,0.0,0.0,0.0,0.0,0.0,0.0,0.0,0.0,0.0,0.0,0.0,0.0,0.0,0.0,0.0,0.0,0.0,0.0,0.0,0.0,0.0,0.0,0.0,0.0,0.0,0.0,0.0,0.0,0.0,0.0,0.0,0.0,0.0,0.0,0.0,0.0,0.0,0.0,0.0,0.0,0.0,0.0,0.0,0.0,0.0,0.0,0.0,0.0,0.0,0.0,0.0,0.0,0.0,0.0,0.0,0.0,0.0,0.0,0.0,0.0,0.0,0.0,0.0,0.0,0.0,0.0,0.0,0.0,0.0,0.0,0.0,0.0,0.0,0.0,0.0,0.0,0.0,0.0,0.0,0.0,0.0,0.0,0.0,0.0,0.0,0.0,0.0,0.0,0.0,0.0,0.0,0.0,0.0,0.0,0.0,0.0,0.0,0.0,0.0,0.0,0.0,0.0,0.0,0.0,0.0,0.0,0.0,0.0,0.0,0.0,0.0,0.0,0.0,0.0,0.0,0.0,0.0,0.0,0.0,0.0,0.0,0.0,0.0,0.0,0.0,0.0,0.0,0.0,0.0,0.0,0.0,0.0,0.0,0.0,0.0,0.0,0.0,0.0,0.0,0.0,0.0,0.0,0.0,0.0,0.0,0.0,0.0,0.0,0.0,0.0,0.0,0.0,0.0,0.0,0.0,0.0,0.0,0.0,0.0,0.0,0.0,0.0,0.0,0.0,0.0,0.0,0.0,0.0,0.0,0.0,0.0,0.0,0.0,0.0,0.0,0.0,0.0,0.0,0.0,0.0,0.0,0.0,0.0,0.0,0.0,0.0,0.0,0.0,0.0,0.0,0.0,0.0,0.0,0.0,0.0,0.0,0.0,0.0,0.0,0.0,0.0,0.0,0.0,0.0,0.0,0.0,0.0,0.0,0.0,0.0,0.0,0.0,0.0,0.0,0.0,0.0,0.0,0.0,0.0,0.0,0.0,0.0,0.0,0.0,0.0,0.0,0.0,0.0,0.0,1.8006,0.0,0.0,0.0,0.0,0.0,0.0,0.0,0.0,0.0,0.0,0.0,0.0,0.0,0.0,0.0,0.0,0.0,0.0,0.0,0.0,0.0,0.0,0.0,0.0,0.0,0.0,0.0,0.0,0.0,0.0,0.0,0.0,0.0,0.0,0.0,0.0,0.0,0.0,0.0,0.0,0.0,0.0,0.0,0.0,0.0,0.0,0.0,0.0,0.0,0.0,0.0,0.0,0.0,0.0,0.0,0.0,0.0,0.0,0.0,0.0,0.0,0.0,0.0,0.0,0.0,0.0,0.0,0.0,0.0,0.0,0.0,0.0,0.0,0.0,0.0,0.0,0.0,0.0,0.0,0.0,0.0,0.0,0.0,0.0,0.0,0.0,0.0,0.0,0.0,0.0,0.0,0.0,0.0,0.0,0.0,0.0,0.0,0.0,0.0,0.0,0.0,0.0,0.0,0.0,0.0,0.0,0.0,0.0,0.0,0.0,1.8098,1.8098,1.8098,1.7974,1.7712,0.0,0.0,0.0,0.0,0.0,0.0,0.0,0.0,0.0,0.0,0.0,0.0,0.0,0.0,0.0,0.0,0.0,0.0,0.0,0.0,0.0,0.0,0.0,0.0,0.0,0.0,0.0,0.0,0.0,0.0,0.0,0.0,0.0,0.0,0.0,0.0,0.0,0.0,0.0,0.0,0.0,0.0,0.0,0.0,0.0,0.0,0.0,0.0,0.0,0.0,0.0,0.0,0.0,0.0,0.0,0.0,0.0,0.0,0.0,0.0,0.0,0.0,0.0,0.0,0.0,0.0,0.0,0.0,0.0,0.0,0.0,0.0,0.0,0.0,0.0,0.0,0.0,0.0,0.0,0.0,0.0,0.0,0.0,0.0,0.0,0.0,0.0,0.0,0.0,0.0,0.0,0.0,0.0,0.0,0.0,0.0,0.0,0.0,0.0,0.0,0.0,0.0,0.0,0.0,0.0,0.0,0.0,0.0,0.0,0.0,0.0,0.0,1.8341,1.807,1.7667,0.0,0.0,0.0,0.0,0.0,0.0,0.0,0.0,0.0,0.0,0.0,0.0,0.0,0.0,0.0,0.0,0.0,0.0,0.0,0.0,0.0,0.0,0.0,0.0,0.0,0.0,0.0,0.0,0.0,0.0,0.0,0.0,0.0,0.0,0.0,0.0,0.0,0.0,0.0,0.0,0.0,0.0,0.0,0.0,0.0,0.0,0.0,0.0,0.0,0.0,0.0,0.0,0.0,0.0,0.0,0.0,0.0,0.0,0.0,0.0,0.0,0.0,0.0,0.0,0.0,0.0,0.0,0.0,0.0,0.0,0.0,0.0,0.0,0.0,0.0,0.0,0.0,0.0,0.0,0.0,0.0,0.0,0.0,0.0,0.0,0.0,0.0,0.0,0.0,0.0,0.0,0.0,0.0,0.0,0.0,0.0,0.0,0.0,0.0,0.0,0.0,0.0,0.0,0.0,0.0,0.0,0.0,0.0,0.0,0.0,1.9057,1.9539,1.9057,0.0,1.8323,0.0,0.0,0.0,0.0,0.0,0.0,0.0,0.0,0.0,0.0,0.0,0.0,0.0,0.0,0.0,0.0,0.0,0.0,0.0,0.0,0.0,0.0,0.0,0.0,0.0,0.0,0.0,0.0,0.0,0.0,0.0,0.0,0.0,0.0,0.0,0.0,0.0,0.0,0.0,0.0,0.0,0.0,0.0,0.0,0.0,0.0,0.0,0.0,0.0,0.0,0.0,0.0,0.0,0.0,0.0,0.0,0.0,0.0,0.0,0.0,0.0,0.0,0.0,0.0,0.0,0.0,0.0,0.0,0.0,0.0,0.0,0.0,0.0,0.0,0.0,0.0,0.0,0.0,0.0,0.0,0.0,0.0,0.0,0.0,0.0,0.0,0.0,0.0,0.0,0.0,0.0,0.0,0.0,0.0,0.0,0.0,0.0,0.0,0.0,0.0,0.0,0.0,0.0,0.0,0.0,0.0,0.0,0.0,0.0,0.0,1.9608,2.0113,1.902,1.8428,0.0,0.0,0.0,0.0,0.0,0.0,0.0,0.0,0.0,0.0,0.0,0.0,0.0,0.0,0.0,0.0,0.0,0.0,0.0,0.0,0.0,0.0,0.0,0.0,0.0,0.0,0.0,0.0,0.0,0.0,0.0,0.0,0.0,0.0,0.0,0.0,0.0,0.0,0.0,0.0,0.0,0.0,0.0,0.0,0.0,0.0,0.0,0.0,0.0,0.0,0.0,0.0,0.0,0.0,0.0,0.0,0.0,0.0,0.0,0.0,0.0,0.0,0.0,0.0,0.0,0.0,0.0,0.0,0.0,0.0,0.0,0.0,0.0,0.0,0.0,0.0,0.0,0.0,0.0,0.0,0.0,0.0,0.0,0.0,0.0,0.0,0.0,0.0,0.0,0.0,0.0,0.0,0.0,0.0,0.0,0.0,0.0,0.0,0.0,0.0,0.0,0.0,0.0,0.0,0.0,0.0,0.0,0.0,0.0,0.0,1.8997,1.9631,1.9907,1.8753,1.8178,1.8347,0.0,0.0,0.0,0.0,0.0,0.0,0.0,0.0,0.0,0.0,0.0,0.0,0.0,0.0,0.0,0.0,0.0,0.0,0.0,0.0,0.0,0.0,0.0,0.0,0.0,0.0,0.0,0.0,0.0,0.0,0.0,0.0,0.0,0.0,0.0,0.0,0.0,0.0,0.0,0.0,0.0,0.0,0.0,0.0,0.0,0.0,0.0,0.0,0.0,0.0,0.0,0.0,0.0,0.0,0.0,0.0,0.0,0.0,0.0,0.0,0.0,0.0,0.0,0.0,0.0,0.0,0.0,0.0,0.0,0.0,0.0,0.0,0.0,0.0,0.0,0.0,0.0,0.0,0.0,0.0,0.0,0.0,0.0,0.0,0.0,0.0,0.0,0.0,0.0,0.0,0.0,0.0,0.0,0.0,0.0,0.0,0.0,0.0,0.0,0.0,0.0,0.0,0.0,0.0,0.0,0.0,0.0,0.0,0.0,1.8653,1.8942,1.8988,1.84,1.8057,0.0,0.0,0.0,0.0,0.0,0.0,0.0,0.0,0.0,0.0,0.0,0.0,0.0,0.0,0.0,0.0,0.0,0.0,0.0,0.0,0.0,0.0,0.0,0.0,0.0,0.0,0.0,0.0,0.0,0.0,0.0,0.0,0.0,0.0,0.0,0.0,0.0,0.0,0.0,0.0,0.0,0.0,0.0,0.0,0.0,0.0,0.0,0.0,0.0,0.0,0.0,0.0,0.0,0.0,0.0,0.0,0.0,0.0,0.0,0.0,0.0,0.0,0.0,0.0,0.0,0.0,0.0,0.0,0.0,0.0,0.0,0.0,0.0,0.0,0.0,0.0,0.0,0.0,0.0,0.0,0.0,0.0,0.0,0.0,0.0,0.0,0.0,0.0,0.0,0.0,0.0,0.0,0.0,0.0,0.0,0.0,0.0,0.0,0.0,0.0,0.0,0.0,0.0,0.0,0.0,0.0,0.0,0.0,0.0,1.7194,1.8286,1.8896,1.8873,1.8174,1.7726,0.0,0.0,0.0,0.0,0.0,0.0,0.0,0.0,0.0,0.0,0.0,0.0,0.0,0.0,0.0,0.0,0.0,0.0,0.0,0.0,0.0,0.0,0.0,0.0,0.0,0.0,0.0,0.0,0.0,0.0,0.0,0.0,0.0,0.0,0.0,0.0,0.0,0.0,0.0,0.0,0.0,0.0,0.0,0.0,0.0,0.0,0.0,0.0,0.0,0.0,0.0,0.0,0.0,0.0,0.0,0.0,0.0,0.0,0.0,0.0,0.0,0.0,0.0,0.0,0.0,0.0,0.0,0.0,0.0,0.0,0.0,0.0,0.0,0.0,0.0,0.0,0.0,0.0,0.0,0.0,0.0,0.0,0.0,0.0,0.0,0.0,0.0,0.0,0.0,0.0,0.0,0.0,0.0,0.0,0.0,0.0,0.0,0.0,0.0,0.0,0.0,0.0,0.0,0.0,0.0,0.0,0.0,0.0,0.0,1.7404,0.0,1.9218,0.0,1.8205,1.7687,0.0,0.0,0.0,0.0,0.0,0.0,0.0,0.0,0.0,0.0,0.0,0.0,0.0,0.0,0.0,0.0,0.0,0.0,0.0,0.0,0.0,0.0,0.0,0.0,0.0,0.0,0.0,0.0,0.0,0.0,0.0,0.0,0.0,0.0,0.0,0.0,0.0,0.0,0.0,0.0,0.0,0.0,0.0,0.0,0.0,0.0,0.0,0.0,0.0,0.0,0.0,0.0,0.0,0.0,0.0,0.0,0.0,0.0,0.0,0.0,0.0,0.0,0.0,0.0,0.0,0.0,0.0,0.0,0.0,0.0,0.0,0.0,0.0,0.0,0.0,0.0,0.0,0.0,0.0,0.0,0.0,0.0,0.0,0.0,0.0,0.0,0.0,0.0,0.0,0.0,0.0,0.0,0.0,0.0,0.0,0.0,0.0,0.0,0.0,0.0,0.0,0.0,0.0,0.0,0.0,0.0,0.0,0.0,1.8364,1.8873,1.9838,1.9861,1.8933,1.8492,1.7966,0.0,0.0,0.0,0.0,0.0,0.0,0.0,0.0,0.0,0.0,0.0,0.0,0.0,0.0,0.0,0.0,0.0,0.0,0.0,0.0,0.0,0.0,0.0,0.0,0.0,0.0,0.0,0.0,0.0,0.0,0.0,0.0,0.0,0.0,0.0,0.0,0.0,0.0,0.0,0.0,0.0,0.0,0.0,0.0,0.0,0.0,0.0,0.0,0.0,0.0,0.0,0.0,0.0,0.0,0.0,0.0,0.0,0.0,0.0,0.0,0.0,0.0,0.0,0.0,0.0,0.0,0.0,0.0,0.0,0.0,0.0,0.0,0.0,0.0,0.0,0.0,0.0,0.0,0.0,0.0,0.0,0.0,0.0,0.0,0.0,0.0,0.0,0.0,0.0,0.0,0.0,0.0,0.0,0.0,0.0,0.0,0.0,0.0,0.0,0.0,0.0,0.0,0.0,0.0,0.0,0.0,0.0,0.0,0.0,1.8933,1.9562,1.9585,1.8911,1.8246,1.7689,0.0,0.0,0.0,0.0,0.0,0.0,0.0,0.0,0.0,0.0,0.0,0.0,0.0,0.0,0.0,0.0,0.0,0.0,0.0,0.0,0.0,0.0,0.0,0.0,0.0,0.0,0.0,0.0,0.0,0.0,0.0,0.0,0.0,0.0,0.0,0.0,0.0,0.0,0.0,0.0,0.0,0.0,0.0,0.0,0.0,0.0,0.0,0.0,0.0,0.0,0.0,0.0,0.0,0.0,0.0,0.0,0.0,0.0,0.0,0.0,0.0,0.0,0.0,0.0,0.0,0.0,0.0,0.0,0.0,0.0,0.0,0.0,0.0,0.0,0.0,0.0,0.0,0.0,0.0,0.0,0.0,0.0,0.0,0.0,0.0,0.0,0.0,0.0,0.0,0.0,0.0,0.0,0.0,0.0,0.0,0.0,0.0,0.0,0.0,0.0,0.0,0.0,0.0,0.0,0.0,0.0,0.0,0.0,0.0,2.1445,2.1766,2.1514,2.0603,1.9843,1.906,1.8238,0.0,0.0,0.0,0.0,0.0,0.0,0.0,0.0,0.0,0.0,0.0,0.0,0.0,0.0,0.0,0.0,0.0,0.0,0.0,0.0,0.0,0.0,0.0,0.0,0.0,0.0,0.0,0.0,0.0,0.0,0.0,0.0,0.0,0.0,0.0,0.0,0.0,0.0,0.0,0.0,0.0,0.0,0.0,0.0,0.0,0.0,0.0,0.0,0.0,0.0,0.0,0.0,0.0,0.0,0.0,0.0,0.0,0.0,0.0,0.0,0.0,0.0,0.0,0.0,0.0,0.0,0.0,0.0,0.0,0.0,0.0,0.0,0.0,0.0,0.0,0.0,0.0,0.0,0.0,0.0,0.0,0.0,0.0,0.0,0.0,0.0,0.0,0.0,0.0,0.0,0.0,0.0,0.0,0.0,0.0,0.0,0.0,0.0,0.0,0.0,0.0,0.0,0.0,0.0,0.0,0.0,0.0,0.0,2.5857,2.604,2.5329,2.3654,2.2887,2.1675,0.0,0.0,0.0,0.0,0.0,0.0,0.0,0.0,0.0,0.0,0.0,0.0,0.0,0.0,0.0,0.0,0.0,0.0,0.0,0.0,0.0,0.0,0.0,0.0,0.0,0.0,0.0,0.0,0.0,0.0,0.0,0.0,0.0,0.0,0.0,0.0,0.0,0.0,0.0,0.0,0.0,0.0,0.0,0.0,0.0,0.0,0.0,0.0,0.0,0.0,0.0,0.0,0.0,0.0,0.0,0.0,0.0,0.0,0.0,0.0,0.0,0.0,0.0,0.0,0.0,0.0,0.0,0.0,0.0,0.0,0.0,0.0,0.0,0.0,0.0,0.0,0.0,0.0,0.0,0.0,0.0,0.0,0.0,0.0,0.0,0.0,0.0,0.0,0.0,0.0,0.0,0.0,0.0,0.0,0.0,0.0,0.0,0.0,0.0,0.0,0.0,0.0,0.0,0.0,0.0,0.0,0.0,0.0,0.0,2.8425,3.0331,2.9688,2.6339,2.4802,2.3384,0.0,0.0,0.0,0.0,0.0,0.0,0.0,0.0,0.0,0.0,0.0,0.0,0.0,0.0,0.0,0.0,0.0,0.0,0.0,0.0,0.0,0.0,0.0,0.0,0.0,0.0,0.0,0.0,0.0,0.0,0.0,0.0,0.0,0.0,0.0,0.0,0.0,0.0,0.0,0.0,0.0,0.0,0.0,0.0,0.0,0.0,0.0,0.0,0.0,0.0,0.0,0.0,0.0,0.0,0.0,0.0,0.0,0.0,0.0,0.0,0.0,0.0,0.0,0.0,0.0,0.0,0.0,0.0,0.0,0.0,0.0,0.0,0.0,0.0,0.0,0.0,0.0,0.0,0.0,0.0,0.0,0.0,0.0,0.0,0.0,0.0,0.0,0.0,0.0,0.0,0.0,0.0,0.0,0.0,0.0,0.0,0.0,0.0,0.0,0.0,0.0,0.0,0.0,0.0,0.0,0.0,0.0,0.0,2.682,3.0078,3.3165,3.3215,3.0005,2.7551,2.5397,0.0,0.0,0.0,0.0,0.0,0.0,0.0,0.0,0.0,0.0,0.0,0.0,0.0,0.0,0.0,0.0,0.0,0.0,0.0,0.0,0.0,0.0,0.0,0.0,0.0,0.0,0.0,0.0,0.0,0.0,0.0,0.0,0.0,0.0,0.0,0.0,0.0,0.0,0.0,0.0,0.0,0.0,0.0,0.0,0.0,0.0,0.0,0.0,0.0,0.0,0.0,0.0,0.0,0.0,0.0,0.0,0.0,0.0,0.0,0.0,0.0,0.0,0.0,0.0,0.0,0.0,0.0,0.0,0.0,0.0,0.0,0.0,0.0,0.0,0.0,0.0,0.0,0.0,0.0,0.0,0.0,0.0,0.0,0.0,0.0,0.0,0.0,0.0,0.0,0.0,0.0,0.0,0.0,0.0,0.0,0.0,0.0,0.0,0.0,0.0,0.0,0.0,0.0,0.0,0.0,0.0,0.0,0.0,2.769,3.1111,3.4863,3.5878,3.3904,3.0664,2.7735,0.0,0.0,0.0,0.0,0.0,0.0,0.0,0.0,0.0,0.0,0.0,0.0,0.0,0.0,0.0,0.0,0.0,0.0,0.0,0.0,0.0,0.0,0.0,0.0,0.0,0.0,0.0,0.0,0.0,0.0,0.0,0.0,0.0,0.0,0.0,0.0,0.0,0.0,0.0,0.0,0.0,0.0,0.0,0.0,0.0,0.0,0.0,0.0,0.0,0.0,0.0,0.0,0.0,0.0,0.0,0.0,0.0,0.0,0.0,0.0,0.0,0.0,0.0,0.0,0.0,0.0,0.0,0.0,0.0,0.0,0.0,0.0,0.0,0.0,0.0,0.0,0.0,0.0,0.0,0.0,0.0,0.0,0.0,0.0,0.0,0.0,0.0,0.0,0.0,0.0,0.0,0.0,0.0,0.0,0.0,0.0,0.0,0.0,0.0,0.0,0.0,0.0,0.0,0.0,0.0,0.0,0.0,0.0,2.9389,3.2144,3.5297,3.6414,3.5205,3.303,3.0622,0.0,0.0,0.0,0.0,0.0,0.0,0.0,0.0,0.0,0.0,0.0,0.0,0.0,0.0,0.0,0.0,0.0,0.0,0.0,0.0,0.0,0.0,0.0,0.0,0.0,0.0,0.0,0.0,0.0,0.0,0.0,0.0,0.0,0.0,0.0,0.0,0.0,0.0,0.0,0.0,0.0,0.0,0.0,0.0,0.0,0.0,0.0,0.0,2.9392,0.0,0.0,0.0,0.0,0.0,0.0,0.0,0.0,0.0,0.0,0.0,0.0,0.0,0.0,0.0,0.0,0.0,0.0,0.0,0.0,0.0,0.0,0.0,0.0,0.0,0.0,0.0,0.0,0.0,0.0,0.0,0.0,0.0,0.0,0.0,0.0,0.0,0.0,0.0,0.0,0.0,0.0,0.0,0.0,0.0,0.0,0.0,0.0,0.0,0.0,0.0,0.0,0.0,0.0,0.0,0.0,0.0,0.0,0.0,3.0652,3.318,3.6091,3.7134,3.6197,3.5639,3.3507,0.0,0.0,0.0,0.0,0.0,0.0,0.0,0.0,0.0,0.0,0.0,0.0,0.0,0.0,0.0,0.0,0.0,0.0,0.0,0.0,0.0,0.0,0.0,0.0,0.0,0.0,0.0,0.0,0.0,0.0,0.0,0.0,0.0,0.0,0.0,0.0,0.0,0.0,0.0,0.0,0.0,0.0,0.0,0.0,0.0,0.0,0.0,0.0,0.0,0.0,0.0,0.0,0.0,0.0,0.0,0.0,0.0,0.0,0.0,0.0,0.0,0.0,0.0,0.0,0.0,0.0,0.0,0.0,0.0,0.0,0.0,0.0,0.0,0.0,0.0,0.0,0.0,0.0,0.0,0.0,0.0,0.0,0.0,0.0,0.0,0.0,0.0,0.0,0.0,0.0,0.0,0.0,0.0,0.0,0.0,0.0,0.0,0.0,0.0,0.0,0.0,0.0,0.0,0.0,0.0,0.0,0.0,2.8633,3.1593,3.3958,3.6688,3.7629,3.6664,3.7328,3.5439,3.0613,0.0,0.0,0.0,0.0,0.0,0.0,0.0,0.0,0.0,0.0,0.0,0.0,0.0,0.0,0.0,0.0,0.0,0.0,0.0,0.0,0.0,0.0,0.0,0.0,0.0,0.0,0.0,0.0,0.0,0.0,0.0,0.0,0.0,0.0,0.0,0.0,0.0,0.0,2.6037,2.9132,0.0,0.0,0.0,0.0,0.0,0.0,0.0,0.0,3.0873,0.0,0.0,0.0,0.0,0.0,0.0,0.0,0.0,0.0,0.0,0.0,0.0,0.0,0.0,0.0,0.0,0.0,0.0,0.0,0.0,0.0,0.0,0.0,0.0,0.0,0.0,0.0,0.0,0.0,0.0,0.0,0.0,0.0,0.0,0.0,0.0,0.0,0.0,0.0,0.0,0.0,0.0,0.0,0.0,0.0,0.0,0.0,0.0,0.0,0.0,0.0,0.0,0.0,0.0,0.0,0.0,2.6194,2.9665,3.2281,3.3981,3.6098,3.6765,3.5855,3.5589,3.3957,3.0848,0.0,0.0,0.0,0.0,0.0,0.0,0.0,0.0,0.0,0.0,0.0,0.0,0.0,0.0,0.0,0.0,0.0,0.0,0.0,0.0,0.0,0.0,0.0,0.0,0.0,0.0,0.0,0.0,0.0,0.0,0.0,0.0,0.0,0.0,0.0,0.0,0.0,0.0,0.0,3.2249,3.3689,0.0,0.0,0.0,0.0,0.0,0.0,0.0,0.0,3.1568,0.0,0.0,0.0,0.0,0.0,0.0,0.0,0.0,0.0,0.0,0.0,0.0,0.0,0.0,0.0,0.0,0.0,0.0,0.0,0.0,0.0,0.0,0.0,0.0,0.0,0.0,0.0,0.0,0.0,0.0,0.0,0.0,0.0,0.0,0.0,0.0,0.0,0.0,0.0,0.0,0.0,0.0,0.0,0.0,0.0,0.0,0.0,0.0,0.0,0.0,0.0,0.0,0.0,0.0,0.0,2.7318,3.1249,3.3683,3.444,3.6529,3.6901,3.5441,3.4872,3.3333,0.0,0.0,0.0,0.0,0.0,0.0,0.0,0.0,0.0,0.0,0.0,0.0,0.0,0.0,0.0,0.0,0.0,0.0,0.0,0.0,0.0,0.0,0.0,0.0,0.0,0.0,0.0,0.0,0.0,0.0,0.0,0.0,0.0,0.0,0.0,0.0,0.0,0.0,0.0,0.0,3.4369,3.5881,3.433,0.0,0.0,0.0,0.0,0.0,0.0,3.3483,3.2729,0.0,0.0,0.0,0.0,0.0,0.0,0.0,0.0,0.0,0.0,0.0,0.0,0.0,0.0,0.0,0.0,0.0,0.0,0.0,0.0,0.0,0.0,0.0,0.0,0.0,0.0,0.0,0.0,0.0,0.0,0.0,0.0,0.0,0.0,0.0,0.0,0.0,0.0,0.0,0.0,0.0,0.0,0.0,0.0,0.0,0.0,0.0,0.0,0.0,0.0,0.0,0.0,0.0,0.0,0.0,2.8308,3.2466,3.4765,3.5096,3.69,3.7002,3.5173,3.4403,3.2743,0.0,0.0,0.0,0.0,0.0,0.0,0.0,0.0,0.0,0.0,0.0,0.0,0.0,0.0,0.0,0.0,0.0,0.0,0.0,0.0,0.0,0.0,0.0,0.0,0.0,0.0,0.0,0.0,0.0,0.0,0.0,0.0,0.0,0.0,0.0,0.0,0.0,0.0,0.0,0.0,0.0,3.7577,3.6263,3.59,0.0,0.0,0.0,0.0,3.5473,3.5369,0.0,0.0,0.0,0.0,0.0,0.0,0.0,0.0,0.0,0.0,0.0,0.0,0.0,0.0,0.0,0.0,0.0,0.0,0.0,0.0,0.0,0.0,0.0,0.0,0.0,0.0,0.0,0.0,0.0,0.0,0.0,0.0,0.0,0.0,0.0,0.0,0.0,0.0,0.0,0.0,0.0,0.0,0.0,0.0,0.0,0.0,0.0,0.0,0.0,0.0,0.0,0.0,0.0,0.0,0.0,0.0,2.9274,3.2466,3.4662,3.5799,3.6522,3.6244,3.487,3.3681,3.1741,0.0,0.0,0.0,0.0,0.0,0.0,0.0,0.0,0.0,0.0,0.0,0.0,0.0,0.0,0.0,0.0,0.0,0.0,0.0,0.0,0.0,0.0,0.0,0.0,0.0,0.0,0.0,0.0,0.0,0.0,0.0,0.0,0.0,0.0,0.0,0.0,0.0,0.0,0.0,0.0,0.0,3.8618,3.7739,3.8301,3.8549,0.0,0.0,3.8725,3.8667,3.8638,0.0,0.0,0.0,0.0,0.0,0.0,0.0,0.0,0.0,0.0,0.0,0.0,0.0,0.0,0.0,0.0,0.0,0.0,0.0,0.0,0.0,0.0,0.0,0.0,0.0,0.0,0.0,0.0,0.0,0.0,0.0,0.0,0.0,0.0,0.0,0.0,0.0,0.0,0.0,0.0,0.0,0.0,0.0,0.0,0.0,0.0,0.0,0.0,0.0,0.0,0.0,0.0,0.0,0.0,0.0,2.5908,2.948,3.3515,3.5865,3.6463,3.7532,3.732,3.576,3.4247,3.193,0.0,0.0,0.0,0.0,0.0,0.0,0.0,0.0,0.0,0.0,0.0,0.0,0.0,0.0,0.0,0.0,0.0,0.0,0.0,0.0,0.0,0.0,0.0,0.0,0.0,0.0,0.0,0.0,0.0,0.0,0.0,0.0,0.0,0.0,0.0,0.0,0.0,0.0,0.0,0.0,0.0,0.0,4.0249,4.1074,0.0,0.0,0.0,4.1918,4.1918,0.0,0.0,0.0,0.0,0.0,0.0,0.0,0.0,0.0,0.0,0.0,0.0,0.0,0.0,0.0,0.0,0.0,0.0,0.0,0.0,0.0,0.0,0.0,0.0,0.0,0.0,0.0,0.0,0.0,0.0,0.0,0.0,0.0,0.0,0.0,0.0,0.0,0.0,0.0,0.0,0.0,0.0,0.0,0.0,0.0,0.0,0.0,0.0,0.0,0.0,0.0,0.0,0.0,0.0,0.0,0.0,0.0,2.9843,3.4316,3.68,3.7216,3.8446,3.838,3.6855,3.5358,0.0,0.0,0.0,0.0,0.0,0.0,0.0,0.0,0.0,0.0,0.0,0.0,0.0,0.0,0.0,0.0,0.0,0.0,0.0,0.0,0.0,0.0,0.0,0.0,0.0,0.0,0.0,1.875,0.0,0.0,0.0,0.0,0.0,0.0,0.0,0.0,0.0,0.0,0.0,0.0,0.0,0.0,4.149,4.2214,4.3481,4.4155,0.0,0.0,4.4879,4.4734,4.5872,4.535,0.0,0.0,0.0,0.0,0.0,0.0,0.0,0.0,0.0,0.0,0.0,0.0,0.0,0.0,0.0,0.0,0.0,0.0,0.0,0.0,0.0,0.0,0.0,0.0,0.0,0.0,0.0,0.0,0.0,0.0,0.0,0.0,0.0,0.0,0.0,0.0,0.0,0.0,0.0,0.0,0.0,0.0,0.0,0.0,0.0,0.0,0.0,0.0,0.0,0.0,0.0,0.0,0.0,0.0,0.0,3.0845,3.4305,3.6798,3.8255,3.8856,3.8788,3.7927,3.694,3.4623,0.0,0.0,0.0,0.0,0.0,0.0,0.0,0.0,0.0,0.0,0.0,0.0,0.0,0.0,0.0,0.0,0.0,0.0,0.0,0.0,0.0,0.0,0.0,0.0,0.0,0.0,0.0,0.0,0.0,0.0,0.0,0.0,0.0,0.0,0.0,0.0,0.0,0.0,0.0,0.0,0.0,4.1353,4.298,4.5206,4.6432,0.0,4.6737,4.7317,4.6714,4.6714,4.5495,4.1657,0.0,0.0,0.0,0.0,0.0,0.0,0.0,0.0,0.0,0.0,0.0,0.0,0.0,0.0,0.0,0.0,0.0,0.0,0.0,0.0,0.0,0.0,0.0,0.0,0.0,0.0,0.0,0.0,0.0,0.0,0.0,0.0,0.0,0.0,0.0,0.0,0.0,0.0,0.0,0.0,0.0,0.0,0.0,0.0,0.0,0.0,0.0,0.0,0.0,0.0,0.0,0.0,0.0,2.6838,3.0983,3.494,3.7598,3.886,3.9575,3.9799,3.9476,3.864,3.6296,0.0,0.0,0.0,0.0,0.0,0.0,0.0,0.0,0.0,0.0,0.0,0.0,0.0,0.0,0.0,0.0,0.0,0.0,0.0,0.0,0.0,0.0,0.0,0.0,0.0,0.0,0.0,0.0,2.0917,2.1215,2.1479,0.0,0.0,0.0,0.0,0.0,0.0,0.0,0.0,0.0,0.0,4.4326,4.5713,4.8285,0.0,0.0,5.0064,5.039,4.9349,4.8832,4.7149,4.2934,3.9102,0.0,0.0,0.0,0.0,0.0,0.0,0.0,0.0,0.0,0.0,0.0,0.0,0.0,0.0,0.0,0.0,0.0,0.0,0.0,0.0,0.0,0.0,0.0,0.0,0.0,0.0,0.0,0.0,0.0,0.0,0.0,0.0,0.0,0.0,0.0,0.0,0.0,0.0,0.0,0.0,0.0,0.0,0.0,0.0,0.0,0.0,0.0,0.0,0.0,0.0,0.0,0.0,2.6993,3.1183,3.5432,3.8152,3.9308,4.0198,4.0535,4.0384,3.9956,3.771,0.0,0.0,0.0,0.0,0.0,0.0,0.0,0.0,0.0,0.0,0.0,0.0,0.0,0.0,0.0,0.0,0.0,0.0,0.0,0.0,0.0,0.0,0.0,0.0,0.0,0.0,0.0,0.0,2.2065,2.2137,2.194,0.0,0.0,0.0,0.0,0.0,0.0,0.0,0.0,0.0,0.0,4.5487,4.727,5.0007,5.1694,5.1141,5.1779,5.1873,5.0473,4.9402,4.7404,4.3631,0.0,0.0,0.0,0.0,0.0,0.0,0.0,0.0,0.0,0.0,0.0,0.0,0.0,0.0,0.0,0.0,0.0,0.0,0.0,0.0,0.0,0.0,0.0,0.0,0.0,0.0,0.0,1.2891,0.0,0.0,1.291,0.0,0.0,0.0,0.0,0.0,0.0,0.0,0.0,0.0,0.0,0.0,0.0,0.0,0.0,0.0,0.0,0.0,0.0,0.0,0.0,0.0,0.0,2.7124,3.1647,3.5608,3.8233,3.9557,4.0619,4.0951,4.0433,4.0694,3.8903,3.4662,0.0,0.0,0.0,0.0,0.0,0.0,0.0,0.0,0.0,0.0,0.0,0.0,0.0,0.0,0.0,0.0,0.0,0.0,0.0,0.0,0.0,0.0,0.0,0.0,0.0,0.0,2.2941,2.2547,2.198,0.0,0.0,0.0,0.0,0.0,0.0,0.0,0.0,0.0,0.0,3.9866,4.3888,4.7149,4.9753,5.1305,5.0886,5.1366,5.1187,4.9601,4.7726,4.5687,0.0,0.0,0.0,0.0,0.0,0.0,0.0,0.0,0.0,0.0,0.0,0.0,0.0,0.0,0.0,0.0,0.0,0.0,0.0,0.0,0.0,0.0,0.0,0.0,0.0,0.0,0.0,1.5273,1.5009,0.0,0.0,0.0,0.0,0.0,0.0,0.0,0.0,0.0,0.0,0.0,2.4078,2.4692,0.0,0.0,0.0,0.0,0.0,0.0,0.0,0.0,0.0,0.0,0.0,0.0,2.7296,3.1647,3.5758,3.8422,3.9585,4.0643,4.112,4.1001,4.0949,3.885,3.4492,0.0,0.0,0.0,0.0,0.0,0.0,0.0,0.0,0.0,0.0,0.0,0.0,0.0,0.0,0.0,0.0,0.0,0.0,0.0,0.0,0.0,0.0,0.0,0.0,0.0,2.3769,0.0,0.0,0.0,0.0,0.0,0.0,0.0,0.0,0.0,0.0,0.0,3.2145,3.562,4.0568,4.4645,4.7021,5.0358,5.2389,0.0,0.0,0.0,0.0,0.0,0.0,0.0,0.0,0.0,0.0,0.0,0.0,0.0,0.0,4.4607,4.1619,4.0878,4.084,4.1225,0.0,0.0,0.0,0.0,0.0,0.0,0.0,0.0,0.0,0.0,0.0,0.0,0.0,0.0,1.7598,0.0,1.6562,0.0,0.0,0.0,0.0,0.0,0.0,0.0,0.0,2.576,2.7548,2.8647,2.9136,2.9685,0.0,3.0023,2.819,0.0,0.0,0.0,0.0,0.0,0.0,0.0,0.0,2.8065,3.196,3.6122,3.8749,3.9723,4.0789,4.1476,4.1745,4.1208,3.9221,3.5592,3.2145,2.8901,0.0,0.0,0.0,0.0,0.0,0.0,0.0,0.0,0.0,0.0,0.0,0.0,0.0,0.0,0.0,0.0,0.0,0.0,0.0,0.0,0.0,0.0,0.0,2.5556,0.0,0.0,0.0,0.0,0.0,0.0,0.0,0.0,0.0,2.7931,3.105,3.4337,3.7026,4.1418,4.5155,4.721,0.0,0.0,0.0,0.0,0.0,0.0,0.0,4.5333,4.5545,4.5107,4.5427,4.7466,4.9849,5.1634,5.2077,0.0,0.0,4.892,4.7919,4.7864,4.8237,4.827,4.8327,4.8386,4.9617,5.0813,0.0,0.0,0.0,0.0,0.0,0.0,0.0,0.0,2.0293,1.9883,0.0,1.8557,0.0,0.0,0.0,0.0,0.0,2.0585,0.0,0.0,3.0262,3.2627,3.3408,3.3839,3.4102,3.4078,3.4006,3.3212,3.1502,2.7055,0.0,0.0,0.0,0.0,0.0,0.0,2.9271,3.2491,3.6625,3.9192,3.9998,4.1075,4.1963,4.2603,4.166,4.0165,3.805,3.5105,3.2044,2.897,2.5963,0.0,0.0,0.0,0.0,0.0,0.0,0.0,0.0,0.0,0.0,0.0,0.0,0.0,0.0,0.0,0.0,0.0,0.0,0.0,0.0,2.6793,0.0,0.0,0.0,0.0,0.0,0.0,0.0,0.0,0.0,0.0,3.2033,3.3951,3.6455,3.9444,0.0,0.0,0.0,0.0,5.1786,5.1842,5.2349,5.2205,5.0641,4.9337,4.872,4.9379,0.0,0.0,5.4009,5.5704,5.6965,5.7911,5.8961,5.8868,5.6215,5.5102,5.4877,5.5343,5.5898,5.6089,5.513,5.6469,5.8346,2.5293,0.0,0.0,0.0,0.0,2.2773,2.3415,2.4196,2.3811,2.3359,2.2871,2.1698,0.0,0.0,0.0,0.0,0.0,0.0,2.5552,2.8759,3.1992,3.4041,3.4984,3.5869,3.629,3.6266,3.588,3.5112,3.3861,3.1793,2.8739,2.4771,0.0,0.0,0.0,0.0,2.9271,3.2539,3.6675,3.9192,4.0001,4.1642,4.2983,4.3907,4.346,4.2618,4.1284,3.8713,3.5826,3.2729,2.9701,0.0,0.0,0.0,0.0,0.0,0.0,0.0,0.0,0.0,0.0,0.0,0.0,0.0,0.0,0.0,0.0,0.0,0.0,0.0,2.7959,2.9588,2.9857,0.0,0.0,0.0,0.0,0.0,0.0,0.0,0.0,0.0,3.9135,3.8853,3.9135,0.0,0.0,4.5777,4.7828,4.9848,5.1477,5.2321,5.2967,0.0,5.2149,5.1522,5.1616,5.314,5.5768,5.8589,6.1046,6.202,6.2741,6.3541,6.3991,6.395,6.3136,6.1078,5.9749,5.9919,6.0137,6.017,5.9878,6.0785,6.1821,2.9531,2.7018,2.5571,2.5317,2.5859,2.6289,2.6953,2.7754,2.7285,2.6881,2.6387,2.5293,2.4082,2.2854,2.2227,0.0,0.0,0.0,2.8264,3.1052,3.409,3.6097,3.7147,3.8042,3.8455,3.8457,3.7926,3.7132,3.605,3.5449,3.326,2.9532,0.0,0.0,2.643,2.831,3.0759,3.3741,3.7274,3.9561,4.0508,4.2652,4.4068,4.4662,4.4757,4.4089,4.2632,4.0681,3.8159,3.5068,3.2033,2.8942,0.0,0.0,0.0,0.0,0.0,0.0,0.0,0.0,0.0,0.0,0.0,1.9771,2.1001,0.0,0.0,0.0,2.4781,2.7861,3.0797,3.2219,0.0,0.0,0.0,0.0,0.0,0.0,0.0,3.6538,3.8728,4.1109,4.3694,4.3694,4.3638,4.4121,4.6111,4.8021,4.9398,0.0,5.2376,5.3304,5.3978,5.4259,5.3866,5.3867,5.4629,5.6903,5.9719,6.2465,6.4654,6.5516,6.6108,6.6741,6.6938,6.6938,6.6938,6.536,6.3955,6.3588,6.3764,6.3862,6.3603,6.4315,6.5092,3.3066,3.2159,2.9403,2.8594,2.9172,2.9676,3.0312,3.1064,3.0605,3.0204,2.9794,2.8914,2.7793,2.6568,2.5727,0.0,2.7357,2.9234,3.1164,3.3294,3.6364,3.8353,3.9418,4.0092,4.0403,4.0306,3.9801,3.9008,3.8024,3.7853,3.6867,3.4847,3.0473,2.8739,2.9653,3.1165,3.3187,3.5616,3.8284,4.0283,4.1546,4.3842,4.5074,4.5119,4.5533,4.4781,4.2739,4.1474,3.9423,3.6351,3.3473,3.0403,2.7256,0.0,0.0,0.0,0.0,0.0,0.0,0.0,0.0,0.0,0.0,0.0,0.0,0.0,0.0,0.0,2.8268,0.0,3.3487,3.4823,0.0,0.0,0.0,3.2792,3.4526,3.6257,3.8319,4.0772,0.0,0.0,4.6364,4.8108,4.9063,4.8614,5.0016,5.1336,5.1955,5.2995,5.4007,5.4625,5.5243,5.5664,5.5721,5.6259,5.7529,6.0093,6.2005,6.3642,6.5607,6.6696,6.7484,6.8004,6.8201,6.8169,6.8169,6.7974,6.7813,6.642,6.6711,6.6971,6.6388,6.7068,6.7715,3.4277,3.4043,3.332,3.2402,3.1426,3.1855,3.2324,3.2742,3.2363,3.2129,3.1953,3.0801,2.9551,2.8281,2.7754,2.8325,2.9715,3.0997,3.2719,3.4837,3.7258,3.8758,3.9494,4.0526,4.0571,3.9801,3.9245,3.8647,3.8,3.718,3.6531,3.5954,3.4078,3.2852,3.2394,3.3501,3.4775,3.6218,3.8839,4.1407,4.3732,4.4413,4.5113,4.5965,4.5632,4.4752,4.3329,4.2565,4.0709,3.7625,3.5902,3.3371,2.9782,2.6835,0.0,0.0,0.0,0.0,0.0,0.0,0.0,0.0,0.0,2.3378,2.5542,0.0,2.6245,0.0,3.0684,3.3785,3.6538,3.7954,0.0,0.0,3.7588,3.7673,3.9002,3.9957,4.1474,4.3896,4.5043,4.6529,4.8834,5.0269,5.145,5.2236,5.2714,5.3248,5.3866,5.4147,5.4765,5.5777,5.6451,5.7097,5.7521,5.8594,5.975,6.141,6.2546,6.3998,6.6035,6.6727,6.7279,6.7993,6.8201,6.8201,6.8201,6.8201,6.8104,6.778,6.7845,6.791,6.7748,6.7974,6.8169,3.5293,3.526,3.5293,3.4746,3.3867,3.3711,3.3769,3.3965,3.373,3.3633,3.3594,3.2746,3.1894,3.1221,3.0762,3.1189,3.2259,3.3176,3.4537,3.6304,3.805,3.9198,3.9852,4.0741,4.0643,3.9609,3.8815,3.8166,3.7613,3.7062,3.6867,3.7108,3.6986,3.6649,3.6098,3.5737,3.629,3.7829,4.003,4.2162,4.4156,4.4334,4.4901,4.5838,4.514,4.4224,4.3132,4.2486,4.0969,3.8488,3.7167,3.5058,3.1904,2.9083,2.6582,0.0,0.0,0.0,0.0,0.0,0.0,0.0,0.0,0.0,0.0,0.0,3.0724,3.2258,3.4702,3.7099,3.9339,4.094,4.184,4.184,4.1783,4.2008,4.266,4.3301,4.4453,4.6311,4.7375,4.8665,5.0549,5.2123,5.3304,5.4035,5.4316,5.4597,5.4906,5.499,5.5355,5.6225,5.6732,5.7154,5.78,5.8971,6.016,6.1292,6.2635,6.4237,6.5987,6.6785,6.7356,6.805,6.8201,6.8201,6.8201,6.8201,6.8201,6.8201,6.8201,6.8201,6.8201,6.8201,6.8201,3.6035,3.6035,3.6035,3.6035,3.5957,3.5195,3.4863,3.4863,3.4883,3.4844,3.4766,3.4414,3.4225,3.4061,3.3689,3.3862,3.4428,3.5149,3.6128,3.744,3.8751,3.965,4.0305,4.1056,4.0812,3.9681,3.8599,3.7832,3.7326,3.7228,3.7519,3.8118,3.9104,3.9633,3.9633,3.7853,3.7878,3.9777,4.1281,4.2569,4.3659,4.3855,4.4381,4.5186,4.429,4.3371,4.2486,4.184,4.0603,3.8761,3.7588,3.5911,3.3533,3.1286,2.9055,0.0,2.6062,0.0,0.0,0.0,0.0,0.0,0.0,0.0,0.0,3.4469,3.5667,3.7428,3.9163,4.0659,4.198,4.3615,4.4678,4.4766,4.5216,4.5581,4.5777,4.6227,4.7038,4.8305,4.9368,5.0465,5.1786,5.3416,5.4485,5.4569,5.5046,5.5383,5.5468,5.5468,5.5664,5.6225,5.6337,5.6676,5.727,5.8288,5.9408,6.0472,6.2133,6.4084,6.5589,6.6617,6.7465,6.805,6.8201,6.8201,6.8201,6.8201,6.8201,6.8201,6.8201,6.8201,6.8201,6.8201,6.8201,3.6035,3.6035,3.6035,3.6035,3.5962,3.5806,3.5781,3.5728,3.5781,3.5586,3.5273,3.5176,3.4714,3.3986,3.415,3.4298,3.4509,3.535,3.6312,3.7395,3.9186,4.0223,4.0666,4.1915,4.1706,4.0234,3.9149,3.8383,3.7829,3.7423,3.7685,3.8671,3.9296,3.9826,4.021,0.0,0.0,0.0,4.1424,4.2121,4.3,4.269,4.3179,4.4554,4.3345,0.0,4.1824,4.1193,3.976,3.7532,3.711,0.0,0.0,0.0,0.0,0.0,0.0,0.0,0.0,0.0,0.0,0.0,3.7175,3.7307,3.6416,3.7793,3.9283,4.0631,4.1531,4.2767,4.4429,4.5384,4.6139,4.6616,4.6785,4.721,4.8137,4.7996,4.8443,5.0155,5.0155,5.0661,5.2293,5.3332,5.4091,5.4569,5.5131,5.5468,5.5496,5.5496,5.5552,5.5693,5.6086,5.6423,5.6534,5.7485,5.854,5.9422,6.0877,6.2714,6.459,6.5938,6.704,6.7967,6.8201,6.8201,6.8201,6.8201,6.8201,6.8201,6.8201,6.8201,6.8201,6.8201,6.8201,3.6035,0.0,3.6035,3.6035,0.0,3.6035,3.6035,3.6035,3.6035,3.5898,3.5684,3.5488,3.5048,3.4441,3.4154,3.4178,3.4418,3.4933,3.5896,3.7275,3.9085,4.0269,4.099,4.2195,4.2091,4.0763,3.9441,3.8671,3.8383,3.7853,3.8142,3.92,3.9994,4.0523,4.0763,4.0787,4.0936,4.1196,4.1631,4.2118,4.2687,4.2869,4.3363,4.4227,4.3415,0.0,0.0,0.0,0.0,0.0,0.0,0.0,0.0,0.0,0.0,3.341,3.3297,3.3568,3.4197,3.5677,3.7569,4.0013,4.1643,4.1868,4.0322,4.1615,4.2744,4.339,4.4565,4.5689,4.6592,4.7544,4.8244,4.8581,4.9117,4.9623,4.9904,5.0241,5.0607,5.1169,5.1336,5.1842,5.3051,5.3726,5.4372,5.4934,5.5299,5.5496,5.5496,5.5496,5.5554,5.5728,5.5955,5.6239,5.6471,5.7481,5.8436,5.9244,6.085,6.272,6.455,6.5712,6.6844,6.7896,6.8201,6.8201,6.8201,6.8201,6.8201,6.8201,6.8201,6.8201,6.8201,6.8201,6.8201,3.605,3.6035,3.6035,3.6035,3.6035,3.6035,3.6035,3.6035,0.0,0.0,0.0,3.5813,3.5554,3.5217,3.4543,3.4394,3.4712,3.4871,3.5816,3.7385,3.9097,4.0403,4.1394,4.2495,4.2525,4.1442,4.0042,3.9245,3.908,3.8623,3.8891,3.9753,4.0744,4.1196,4.1196,4.1196,4.1196,4.1254,4.1716,4.2199,4.2572,4.3286,4.3888,4.4315,4.3819,4.3281,4.2772,4.2008,4.0997,3.9725,3.9816,3.9388,3.8159,3.7906,3.7428,3.6613,3.7063,3.7701,3.844,3.9922,4.1496,4.3155,4.4818,4.5272,4.4088,4.5015,4.5693,4.5777,4.7294,4.8305,4.8417,4.9368,5.0069,5.0182,5.1139,5.159,5.1336,5.218,5.2602,5.2292,5.2573,5.3107,5.3782,5.4288,5.485,5.5355,5.5468,5.5496,5.5496,5.5554,5.5815,5.6305,5.6563,5.6651,5.7168,5.8173,5.9089,5.9508,6.1256,6.3185,6.4507,6.5657,6.6759,6.7745,6.8104,6.8201,6.8201,6.8201,6.8201,6.8201,6.8201,6.8201,6.8201,6.8201,6.8201,3.6321,3.6035,3.6035,3.6035,3.6035,3.6035,3.6035,3.6035,3.6035,3.6186,3.6451,3.6749,3.6635,3.6279,3.6588,3.6531,3.6308,3.6595,3.7264,3.8306,4.0118,4.1297,4.1947,4.3409,4.3547,4.2573,4.1875,4.1081,4.0258,4.009,4.0138,4.0355,4.0884,4.1196,4.1196,4.1196,4.1196,4.1201,4.1492,4.2037,4.283,4.3014,4.3781,4.5082,4.3961,4.331,4.3362,4.2261,4.08,3.9163,4.0006,4.0034,3.8882,4.0126,4.1137,4.1552,4.2121,4.2964,4.4008,4.4373,4.4879,4.5745,4.6957,4.7182,4.6055,4.6532,4.7126,4.7659,4.8445,4.912,4.9649,4.993,5.0296,5.0746,5.142,5.1955,5.2405,5.3135,5.3557,5.3416,5.3501,5.3782,5.4316,5.4512,5.4821,5.5327,5.5496,5.5496,5.5554,5.5758,5.6391,5.7312,5.7801,5.8434,5.924,5.9959,6.0319,6.0306,6.1659,6.2977,6.3771,6.5193,6.6477,6.7228,6.782,6.8144,6.8201,6.8201,6.8201,6.8201,6.8201,6.8201,6.8201,6.8201,6.8201,3.7154,3.7004,3.7222,3.7376,3.7376,3.7341,3.7238,3.703,3.705,3.696,3.6876,3.7394,3.7672,3.7789,3.8105,3.805,3.7738,3.7631,3.8108,3.9128,4.0543,4.1658,4.2501,4.3721,4.4075,4.3601,4.3072,4.2567,4.2086,4.1827,4.1562,4.1268,4.122,4.1196,4.1196,4.1196,4.1196,4.1201,4.1631,4.2287,4.3162,4.3812,4.4626,4.5634,4.5293,4.474,4.4008,4.3418,4.243,4.0962,4.1418,4.1496,4.099,4.2008,4.2767,4.3076,4.3975,4.4851,4.5802,4.6452,4.7097,4.7715,4.8277,4.853,4.8328,4.8553,4.8834,4.9143,4.9679,5.0157,5.0493,5.1083,5.1589,5.1843,5.2714,5.3416,5.3726,5.4288,5.454,5.426,5.4204,5.4316,5.4569,5.4597,5.4821,5.5383,5.5496,5.5496,5.5525,5.5932,5.6651,5.7801,5.8376,5.9151,6.0418,6.107,6.131,6.1283,6.2081,6.2929,6.3677,6.4913,6.5859,6.6785,6.7548,6.7986,6.8151,6.8201,6.8201,6.8201,6.8201,6.8201,6.8201,6.8201,6.8201,3.7845,3.7872,3.8295,3.8496,3.8496,3.8496,3.8322,3.8027,3.7957,3.7872,3.7882,3.8386,3.8985,3.9516,3.9893,3.9872,3.9524,3.9101,3.9345,4.0186,4.11,4.2067,4.2982,4.3883,4.4316,4.4237,4.3859,4.3649,4.3481,4.312,4.2621,4.2019,4.1586,4.1317,4.1196,4.1196,4.1153,4.1085,4.1724,4.2622,4.3657,4.4669,4.5554,4.6368,4.6712,4.6311,4.5132,4.4902,4.4256,4.3104,4.3295,4.3324,4.3071,4.3722,4.4172,4.4397,4.5212,4.6086,4.6869,4.7937,4.8726,4.9176,4.9344,4.9651,5.0127,5.0465,5.0465,5.0296,5.0718,5.1083,5.1224,5.2012,5.2714,5.277,5.3838,5.4456,5.4625,5.5131,5.5327,5.4878,5.4793,5.4793,5.4793,5.4793,5.5019,5.55,5.5613,5.5613,5.5758,5.6279,5.7224,5.8403,5.9092,6.0037,6.1415,6.2301,6.2485,6.2326,6.2655,6.3261,6.3954,6.4512,6.5269,6.6316,6.7225,6.773,6.7957,6.8104,6.8169,6.8201,6.8201,6.8266,6.846,6.8493,6.8363,3.8105,3.7892,3.8439,3.8496,3.8641,3.8586,3.8606,3.8502,3.8097,3.865,3.9804,4.0206,4.0885,4.1731,4.2509,4.2555,4.1971,4.1723,4.1682,4.1822,4.238,4.2934,4.3457,4.4027,4.4316,4.4316,4.4244,4.3955,4.3547,4.3457,4.2928,4.2091,4.1947,4.1682,4.1244,4.1196,4.0956,4.0527,4.1554,4.2877,4.44,4.5128,4.6242,4.7844,4.7387,4.7126,4.6817,4.642,4.5521,4.4481,4.5296,4.5408,4.4509,4.5352,4.6251,4.6757,4.6954,4.7519,4.8642,4.9398,4.9818,4.993,5.0408,5.0746,5.0886,5.1815,5.1955,5.1252,5.142,5.1758,5.1731,5.2377,5.2826,5.2939,5.3922,5.4597,5.4709,5.5131,5.5468,5.544,5.5355,5.5412,5.5355,5.5384,5.5557,5.5933,5.6019,5.6164,5.6423,5.7107,5.8304,5.9836,6.0615,6.1526,6.2988,6.4138,6.3889,6.3056,6.3502,6.3907,6.4037,6.4638,6.5496,6.5623,6.6784,6.759,6.7583,6.7748,6.8201,6.8234,6.8266,6.8428,6.8971,6.9198,6.8978,4.0631,4.057,4.1002,4.1213,4.1213,4.1213,4.1074,4.0829,4.0464,4.092,4.1873,4.2451,4.285,4.3127,4.4313,4.4674,4.4424,4.4021,4.3811,4.3787,4.377,4.3787,4.3979,4.4196,4.4316,4.4316,4.4316,4.4196,4.3955,4.3643,4.3289,4.2832,4.2332,4.1899,4.1682,4.1341,4.096,4.0455,4.1505,4.2758,4.4064,4.5023,4.6321,4.7849,4.7856,4.7547,4.721,4.6954,4.642,4.5633,4.6026,4.6055,4.5577,4.6364,4.6954,4.7235,4.7884,4.8642,4.9539,4.9846,5.0154,5.0493,5.1083,5.1561,5.1955,5.277,5.3051,5.2714,5.2798,5.2939,5.2967,5.3473,5.381,5.3922,5.4625,5.5131,5.5131,5.5327,5.5496,5.5496,5.5496,5.5496,5.5525,5.5671,5.5961,5.6365,5.6623,5.6908,5.7388,5.7918,5.9061,6.0595,6.1075,6.181,6.3405,6.4426,6.4303,6.3776,6.3869,6.4168,6.4213,6.4632,6.5212,6.5116,6.6499,6.7425,6.7277,6.7748,6.8201,6.8298,6.868,6.8971,6.9263,6.9626,6.9723,4.3003,4.3092,4.3501,4.3688,4.3665,4.3665,4.3527,4.3214,4.2866,4.3145,4.3873,4.4424,4.4651,4.4821,4.5856,4.6262,4.6102,4.571,4.5469,4.5277,4.4772,4.4501,4.4532,4.4364,4.4316,4.4316,4.4316,4.4316,4.4268,4.3931,4.3643,4.3409,4.276,4.2284,4.1995,4.1586,4.1004,4.0363,4.1432,4.2607,4.3622,4.4864,4.6321,4.7903,4.8108,4.78,4.7235,4.735,4.7154,4.6588,4.6841,4.7038,4.7041,4.7628,4.7965,4.805,4.8949,4.9735,5.0212,5.0549,5.0942,5.1392,5.1983,5.2489,5.2967,5.3585,5.3923,5.3923,5.4091,5.4119,5.3782,5.426,5.4569,5.4625,5.5131,5.5496,5.5496,5.5496,5.5496,5.5496,5.5583,5.5671,5.5787,5.6135,5.6566,5.7021,5.7416,5.7835,5.836,5.8773,5.9567,6.1086,6.1257,6.1879,6.324,6.406,6.418,6.3991,6.3938,6.451,6.4499,6.4929,6.5209,6.5445,6.6626,6.7247,6.73,6.7715,6.8363,6.8557,6.8971,6.9522,6.9982,7.0371,7.0598,4.452,4.4555,4.4924,4.5119,4.5119,4.5096,4.5119,4.5051,4.4721,4.4994,4.5617,4.5661,4.61,4.6689,4.713,4.7136,4.6728,4.6575,4.6262,4.583,4.5325,4.5061,4.5037,4.4556,4.4316,4.4316,4.4316,4.4316,4.4285,4.4268,4.4003,4.3529,4.3379,4.2928,4.2212,4.1995,4.1172,4.0074,4.1261,4.2434,4.3258,4.4679,4.6294,4.7903,4.8108,4.78,4.7322,4.7743,4.7771,4.7182,4.8165,4.8811,4.8895,4.9452,4.9734,4.9874,5.0408,5.0802,5.0999,5.1815,5.2489,5.2658,5.3135,5.3613,5.367,5.4204,5.4569,5.454,5.499,5.4878,5.4063,5.4485,5.4709,5.4738,5.5187,5.5496,5.5496,5.558,5.5524,5.564,5.5987,5.6392,5.6508,5.6879,5.7447,5.7867,5.8252,5.8746,5.9186,5.9613,6.0209,6.0943,6.1508,6.2003,6.2737,6.3568,6.3598,6.3441,6.393,6.482,6.5046,6.5227,6.5383,6.5717,6.6656,6.7202,6.7322,6.7773,6.8485,6.8939,6.936,6.9853,7.063,7.1122,7.1349,4.6433,4.6457,4.6613,4.6684,4.665,4.6684,4.665,4.6617,4.6281,4.6358,4.675,4.6617,4.6784,4.7298,4.7431,4.7401,4.7209,4.6872,4.6575,4.6367,4.5854,4.5421,4.5109,4.4893,4.4597,4.434,4.4316,4.4316,4.4316,4.4316,4.422,4.3979,4.3673,4.3289,4.2904,4.2303,4.1369,4.0339,4.1114,4.2057,4.3127,4.4334,4.5968,4.7953,4.8108,4.7825,4.7235,4.7771,4.7996,4.7771,4.8532,4.9204,4.9595,4.9874,5.0182,5.0521,5.0774,5.1252,5.1955,5.2433,5.2911,5.336,5.3923,5.4288,5.4372,5.4793,5.5188,5.5215,5.5327,5.5215,5.5131,5.5412,5.5608,5.5327,5.5693,5.5917,5.5693,5.5833,5.6145,5.6496,5.7337,5.8292,5.8577,5.8797,5.8981,5.9391,5.9501,5.9875,6.0544,6.0652,6.0884,6.1672,6.1616,6.1379,6.2056,6.3137,6.3691,6.3506,6.381,6.4577,6.5026,6.5351,6.5518,6.5549,6.639,6.7087,6.7218,6.8176,6.8823,6.9295,6.9716,7.05,7.131,7.1666,7.1958,4.819,4.819,4.819,4.819,4.819,4.819,4.819,4.8158,4.787,4.7936,4.8092,4.7771,4.7771,4.7927,4.7762,4.7687,4.7606,4.7202,4.6935,4.692,4.6415,4.595,4.5614,4.5253,4.4917,4.458,4.4357,4.4316,4.4316,4.4316,4.4316,4.4292,4.3907,4.3643,4.3409,4.2729,4.1847,4.112,4.1548,4.2488,4.3494,4.465,4.6124,4.7796,4.8108,4.774,4.6982,4.7491,4.7825,4.7912,4.8754,4.9707,5.0465,5.0577,5.0746,5.1139,5.1392,5.1787,5.2602,5.3079,5.3501,5.3979,5.4512,5.4878,5.4906,5.544,5.5749,5.5833,5.603,5.6114,5.6226,5.6648,5.6676,5.603,5.617,5.6337,5.617,5.6283,5.6776,5.7622,5.861,5.9623,6.0337,6.0373,6.0461,6.066,6.065,6.1229,6.155,6.1717,6.1563,6.2302,6.1968,6.1686,6.2086,6.2983,6.3445,6.3352,6.3964,6.4611,6.4998,6.5351,6.558,6.5557,6.597,6.6638,6.7503,6.8459,6.9122,6.9594,7.0338,7.1122,7.1731,7.2152,7.2184,4.9525,4.9461,4.9558,4.9429,4.9396,4.9396,4.9525,4.9429,4.9429,4.9332,4.9267,4.9105,4.8877,4.8877,4.8223,4.796,4.787,4.7557,4.7401,4.7377,4.6944,4.668,4.6503,4.5614,4.5085,4.4941,4.4501,4.4316,4.4316,4.4316,4.4316,4.4285,4.4292,4.4003,4.3499,4.3264,4.2671,4.2189,4.2793,4.3626,4.4388,4.5576,4.6814,4.7953,4.8108,4.7656,4.656,4.7066,4.7459,4.76,4.9059,5.0549,5.1561,5.1759,5.1842,5.1955,5.2377,5.2686,5.2883,5.3838,5.44,5.4653,5.5131,5.544,5.558,5.6002,5.6339,5.6507,5.6873,5.7296,5.7322,5.7744,5.7659,5.6676,5.6564,5.6845,5.7041,5.6846,5.7181,5.887,5.9771,6.017,6.0992,6.1632,6.1804,6.1605,6.1902,6.2349,6.2183,6.2306,6.2368,6.2183,6.2152,6.2271,6.2517,6.2798,6.2952,6.3229,6.4149,6.4915,6.497,6.5214,6.546,6.5536,6.6321,6.7028,6.7708,6.8673,6.9672,7.0267,7.1037,7.1672,7.2055,7.2346,7.2152,4.959,4.959,4.959,4.959,4.959,4.959,4.959,4.959,4.959,4.959,4.9525,4.9267,4.9105,4.8942,4.8355,4.7993,4.796,4.7663,4.7497,4.7473,4.7305,4.704,4.6631,4.5974,4.5277,4.4621,4.4381,4.4316,4.434,4.4316,4.4316,4.4316,4.4316,4.4244,4.4003,4.3832,4.3624,4.3693,4.3652,4.414,4.512,4.5799,4.6797,4.7925,4.8108,4.808,4.8165,4.8361,4.8445,4.8474,4.982,5.1167,5.2208,5.2826,5.3107,5.3135,5.3276,5.3585,5.3978,5.4344,5.4821,5.5131,5.5412,5.5721,5.6058,5.6281,5.6618,5.6985,5.7296,5.7409,5.7521,5.794,5.7997,5.7182,5.7463,5.7547,5.7582,5.8028,5.9207,6.0765,6.1612,6.2448,6.3262,6.3574,6.3084,6.2836,6.2875,6.2829,6.3075,6.2952,6.2768,6.2552,6.2706,6.2737,6.2737,6.3102,6.3564,6.3718,6.4395,6.4888,6.497,6.5053,6.53,6.5783,6.6574,6.7329,6.8048,6.9011,7.0045,7.0867,7.1534,7.2008,7.2352,7.2379,7.2217,4.959,4.959,4.959,4.959,4.959,4.959,4.959,4.959,4.959,4.959,4.9558,4.9396,4.9299,4.9137,4.8518,4.8223,4.8182,4.7729,4.7497,4.7497,4.7497,4.7305,4.6944,4.6463,4.5758,4.4989,4.47,4.4604,4.4573,4.4412,4.4316,4.4316,4.4316,4.4316,4.4299,4.4275,4.4452,4.4943,4.5012,4.5443,4.632,4.7,4.7771,4.8677,4.9033,4.9454,4.999,5.0243,5.0046,4.9792,5.0747,5.2012,5.2995,5.3473,5.3698,5.3754,5.3923,5.4204,5.4597,5.5018,5.5412,5.5777,5.6058,5.6339,5.676,5.6929,5.735,5.7631,5.8193,5.8418,5.8502,5.898,5.9121,5.884,5.8418,5.8226,5.8128,5.9162,6.0464,6.1851,6.2785,6.3762,6.446,6.4611,6.406,6.3845,6.3691,6.3445,6.3783,6.3691,6.3475,6.341,6.3595,6.3379,6.2856,6.3349,6.4149,6.4364,6.4611,6.4826,6.4943,6.5029,6.5194,6.5871,6.6616,6.7396,6.8128,6.9516,7.0631,7.1306,7.1815,7.2202,7.2508,7.2508,7.2341,4.959,4.959,4.959,4.959,4.959,4.959,4.959,4.959,4.959,4.959,4.959,4.9558,4.9558,4.9429,4.8837,4.851,4.8445,4.7795,4.7497,4.7497,4.7497,4.7425,4.7209,4.68,4.6295,4.5758,4.5325,4.5133,4.4989,4.4621,4.434,4.4309,4.4316,4.4316,4.4336,4.4451,4.5047,4.6046,4.6595,4.7159,4.78,4.8828,4.953,4.9902,5.0465,5.1084,5.1759,5.2208,5.1815,5.0689,5.1983,5.3107,5.3641,5.381,5.4035,5.4147,5.4456,5.4793,5.5074,5.5833,5.6395,5.6479,5.6901,5.7437,5.7435,5.78,5.8137,5.839,5.923,5.9904,5.9988,6.0469,6.0782,6.0782,5.9524,5.8831,5.9,6.0218,6.1408,6.2408,6.3334,6.4129,6.4777,6.4826,6.4549,6.4245,6.4395,6.4364,6.4214,6.4214,6.4364,6.4303,6.4149,6.3933,6.3383,6.3841,6.4518,6.4611,6.4764,6.4826,6.5011,6.5128,6.5516,6.6164,6.6758,6.7512,6.8445,6.9813,7.0748,7.1242,7.1746,7.2304,7.2588,7.2641,7.2835,4.959,4.959,4.959,4.959,4.959,4.959,4.959,4.959,4.959,4.959,4.959,4.959,4.959,4.9493,4.8902,4.8576,4.8412,4.7828,4.7497,4.7497,4.7497,4.7257,4.6992,4.68,4.6463,4.5974,4.5782,4.5469,4.5133,4.4989,4.4724,4.4316,4.4412,4.4364,4.436,4.4866,4.596,4.7312,4.7652,4.8108,4.874,4.9497,4.9908,5.0071,5.1055,5.2123,5.3079,5.336,5.3304,5.2882,5.3529,5.4147,5.44,5.5131,5.5552,5.5693,5.6198,5.6621,5.6678,5.6901,5.7126,5.7126,5.735,5.7575,5.8025,5.8193,5.8531,5.8952,5.9679,6.0129,6.0213,6.0778,6.0987,6.0702,6.0291,6.0026,6.0205,6.09,6.191,6.2959,6.359,6.4244,6.4694,6.4888,6.4826,6.4672,6.4703,6.4857,6.4641,6.458,6.4641,6.4364,6.4183,6.4152,6.4183,6.4549,6.4795,6.4826,6.4888,6.4888,6.5134,6.5439,6.6072,6.6852,6.7314,6.7993,6.8876,7.0034,7.0603,7.1136,7.187,7.2449,7.2794,7.2979,7.3389,4.9464,4.9289,4.949,4.9464,4.9289,4.949,4.959,4.959,4.959,4.959,4.959,4.959,4.959,4.9525,4.8902,4.8576,4.8477,4.7852,4.7497,4.7497,4.7497,4.7329,4.7112,4.704,4.6872,4.6607,4.631,4.607,4.5782,4.5565,4.5253,4.5085,4.4965,4.4989,4.5068,4.5653,4.6898,4.8455,4.8861,4.9248,5.0166,5.083,5.1111,5.1364,5.232,5.3501,5.4344,5.4485,5.4344,5.4232,5.44,5.4821,5.5355,5.5973,5.6535,5.6788,5.721,5.7381,5.7465,5.7603,5.7772,5.7828,5.7969,5.8306,5.8615,5.8699,5.8896,5.9177,5.996,6.0441,6.0694,6.1409,6.1763,6.1611,6.1635,6.1572,6.1131,6.1732,6.2555,6.3391,6.4045,6.444,6.486,6.4888,6.4888,6.4888,6.4857,6.4888,6.4857,6.4857,6.4826,6.4549,6.4457,6.4518,6.4521,6.4826,6.498,6.5011,6.5195,6.5165,6.538,6.578,6.6604,6.7363,6.7886,6.8489,6.937,7.0045,7.0448,7.1099,7.1906,7.2629,7.3051,7.3544,7.3978,4.949,4.912,4.9565,4.949,4.927,4.9565,4.9891,4.9816,4.9891,4.9866,4.9866,4.9816,4.9941,4.9733,4.9273,4.8821,4.8788,4.8167,4.7852,4.7762,4.7714,4.7593,4.7593,4.7425,4.7377,4.7281,4.6935,4.6752,4.6455,4.6118,4.5998,4.5854,4.5854,4.5902,4.5934,4.6499,4.7889,4.9369,4.9811,5.0497,5.1542,5.2236,5.2573,5.277,5.381,5.4653,5.5187,5.5383,5.5215,5.4821,5.4794,5.5355,5.6253,5.6421,5.6901,5.7407,5.7659,5.7744,5.7688,5.8193,5.839,5.8474,5.8868,5.9174,5.9149,5.9121,5.9174,5.9402,6.0413,6.1035,6.1643,6.2627,6.3036,6.2867,6.3231,6.3016,6.241,6.2585,6.3278,6.3819,6.444,6.4721,6.4805,6.4832,6.4832,6.4749,6.4805,6.4888,6.4888,6.4888,6.4888,6.4826,6.4826,6.4918,6.498,6.5072,6.5134,6.5195,6.5503,6.5626,6.578,6.6273,6.7132,6.7866,6.8526,6.9095,6.9628,7.0158,7.0526,7.131,7.2256,7.2972,7.3595,7.4155,7.463,5.0845,5.0803,5.087,5.0878,5.077,5.087,5.0896,5.0904,5.0929,5.082,5.0896,5.0929,5.0904,5.0837,5.009,4.9854,4.9655,4.9024,4.8782,4.8676,4.8267,4.8147,4.8026,4.7738,4.7521,4.7473,4.7401,4.7112,4.6776,4.6647,4.6527,4.6503,4.631,4.615,4.6552,4.6929,4.7851,4.9551,5.0343,5.1285,5.2435,5.3163,5.3501,5.3641,5.4681,5.5299,5.544,5.5496,5.5664,5.5917,5.6058,5.6226,5.662,5.735,5.7856,5.8109,5.8531,5.8755,5.8812,5.8868,5.8977,5.9005,5.9177,5.9205,5.9205,5.9289,5.9455,5.9876,6.0666,6.161,6.2725,6.3383,6.3865,6.4079,6.4344,6.4422,6.3919,6.3579,6.3656,6.3878,6.4134,6.4218,6.4247,6.444,6.4496,6.4552,6.4663,6.486,6.4888,6.4888,6.4888,6.4888,6.4918,6.498,6.5195,6.5319,6.559,6.5797,6.6072,6.6492,6.665,6.6866,6.7781,6.8577,6.9282,6.9787,7.0186,7.0599,7.1068,7.1896,7.2682,7.3375,7.4056,7.4662,7.5306,5.1122,5.0896,5.1172,5.1122,5.0946,5.1172,5.1306,5.1306,5.1306,5.1306,5.1306,5.1306,5.1306,5.1239,5.0535,5.0198,5.0029,4.9426,4.9095,4.8988,4.8782,4.8565,4.8267,4.8002,4.7762,4.7569,4.7473,4.7305,4.7185,4.7305,4.7497,4.7449,4.7104,4.7257,4.7428,4.7629,4.8768,5.03,5.0979,5.1932,5.3385,5.3894,5.4316,5.4625,5.5412,5.5917,5.5945,5.6283,5.6535,5.6845,5.7126,5.7294,5.735,5.7912,5.839,5.8755,5.8949,5.9205,5.9205,5.9233,5.9286,5.9595,5.9623,5.9851,5.9992,6.0104,6.0216,6.061,6.1236,6.2191,6.3696,6.4393,6.4777,6.5122,6.5436,6.5323,6.4628,6.4171,6.3924,6.4029,6.4021,6.4049,6.4075,6.4132,6.43,6.4384,6.4496,6.4663,6.4888,6.4888,6.4888,6.4888,6.4888,6.5011,6.5288,6.5624,6.6077,6.6461,6.6936,6.7505,6.7925,6.8171,6.848,6.9154,6.9856,7.0406,7.0826,7.1228,7.1735,7.2441,7.318,7.3855,7.4587,7.5378,7.6007,5.1247,5.0845,5.1322,5.1247,5.0921,5.1373,5.1599,5.1574,5.1523,5.1674,5.1548,5.1548,5.1699,5.1406,5.0882,5.0468,5.0152,4.9776,4.9517,4.9493,4.9277,4.9012,4.87,4.8483,4.8147,4.7666,4.7545,4.7473,4.7593,4.8002,4.8171,4.8339,4.8387,4.8363,4.8532,4.8794,4.9683,5.1299,5.1848,5.2826,5.4306,5.4709,5.499,5.5552,5.5973,5.6423,5.6592,5.6985,5.7378,5.7547,5.8025,5.8306,5.8418,5.8474,5.8615,5.9177,5.9286,5.9426,5.9483,5.957,5.9823,6.0241,6.0241,6.0466,6.0891,6.0947,6.1031,6.1405,6.1985,6.2981,6.4371,6.5065,6.565,6.6067,6.6373,6.5951,6.5137,6.4745,6.4562,6.3859,6.3709,6.3681,6.3766,6.3851,6.4047,6.4244,6.4356,6.4527,6.4811,6.4949,6.498,6.4918,6.4888,6.5472,6.5842,6.6422,6.6815,6.7417,6.7922,6.8464,6.9119,6.9422,6.9631,6.9797,7.0315,7.1031,7.1825,7.2449,7.2913,7.3258,7.381,7.4631,7.5368,7.6088,7.653,5.2569,5.2494,5.2569,5.2569,5.2494,5.2569,5.2569,5.2619,5.2544,5.2619,5.2569,5.2594,5.2544,5.2373,5.1837,5.1213,5.0637,5.0333,5.0311,5.0215,4.995,4.9648,4.9456,4.9084,4.8652,4.8147,4.7786,4.7569,4.7617,4.8026,4.8531,4.8844,4.8926,4.9129,4.9445,4.9878,5.0542,5.1987,5.266,5.3764,5.4972,5.5383,5.558,5.6113,5.645,5.6816,5.7154,5.7381,5.7603,5.8081,5.825,5.8587,5.8868,5.898,5.9093,5.9286,5.9651,5.9848,5.9988,6.0441,6.075,6.0919,6.0947,6.0975,6.1144,6.1232,6.1541,6.2134,6.2948,6.4052,6.5192,6.5698,6.6353,6.685,6.7034,6.6703,6.6222,6.5772,6.5052,6.3938,6.3578,6.3428,6.3633,6.3838,6.4099,6.4416,6.4643,6.4812,6.5095,6.5143,6.5134,6.5042,6.4888,6.5719,6.6488,6.722,6.7824,6.8589,6.9098,6.9509,7.0079,7.0588,7.0893,7.1242,7.1612,7.2261,7.2952,7.3631,7.4115,7.4455,7.4964,7.5444,7.5904,7.6339,7.6461,5.2895,5.2895,5.2895,5.2895,5.2895,5.2895,5.2895,5.2895,5.2895,5.2895,5.2895,5.2895,5.2895,5.2688,5.2134,5.1401,5.0837,5.0696,5.0696,5.0624,5.0431,5.0119,4.9961,4.9624,4.9022,4.8469,4.8002,4.7738,4.7617,4.8339,4.8806,4.9057,4.9256,4.9503,4.9728,4.9999,5.1147,5.2428,5.3325,5.4354,5.5796,5.5973,5.6198,5.6421,5.7069,5.7547,5.78,5.8221,5.8446,5.8727,5.8783,5.8921,5.9121,5.9233,5.9373,5.9651,5.996,6.0297,6.055,6.0975,6.1172,6.1537,6.1565,6.1762,6.1959,6.2127,6.2291,6.3029,6.3812,6.4903,6.5884,6.6319,6.6995,6.7725,6.7816,6.7454,6.6943,6.6641,6.5592,6.4366,6.4365,6.4214,6.3795,6.4,6.4205,6.4495,6.49,6.5216,6.5501,6.5578,6.5657,6.5719,6.5747,6.6383,6.7208,6.79,6.8891,6.972,7.0463,7.0862,7.1446,7.2124,7.2663,7.3108,7.3426,7.3511,7.4003,7.4606,7.5162,7.5594,7.5699,7.5918,7.6255,7.6543,7.6551,5.2895,5.2895,5.2895,5.2895,5.2895,5.2895,5.2895,5.2895,5.2895,5.2895,5.2895,5.2895,5.2895,5.2688,5.2134,5.1401,5.0731,5.0696,5.0696,5.0696,5.0672,5.0431,5.0202,4.9961,4.9624,4.8926,4.8541,4.8204,4.7978,4.8579,4.9022,4.9235,4.9499,4.985,5.006,5.0737,5.1794,5.299,5.4009,5.5139,5.6209,5.662,5.6704,5.6787,5.7772,5.8306,5.8502,5.8812,5.9036,5.9121,5.9177,5.9205,5.9205,5.9205,5.957,6.0129,6.0269,6.0662,6.1116,6.1509,6.1818,6.2155,6.2151,6.2431,6.2689,6.2877,6.3254,6.4083,6.4679,6.5592,6.6619,6.7053,6.7571,6.8178,6.845,6.8297,6.7602,6.7089,6.67,6.5892,6.5532,6.5024,6.4575,6.4871,6.5287,6.5493,6.5843,6.6223,6.6482,6.6408,6.6491,6.6614,6.6822,6.7299,6.7954,6.8533,6.9685,7.0955,7.1848,7.2515,7.3215,7.3914,7.4281,7.4398,7.4473,7.4572,7.5106,7.5594,7.6148,7.6448,7.628,7.6332,7.6598,7.6469,7.6297,5.2895,5.2895,5.2895,5.2895,5.2895,5.2895,5.2895,5.2895,5.2895,5.2895,5.2895,5.287,5.2845,5.2604,5.2109,5.1401,5.0848,5.0624,5.06,5.06,5.06,5.06,5.0576,5.06,5.0143,4.9576,4.9215,4.8734,4.8555,4.8916,4.9143,4.9284,4.9941,5.047,5.0854,5.1811,5.3511,5.4795,5.5788,5.6562,5.7113,5.721,5.7491,5.7884,5.825,5.8559,5.8924,5.9149,5.9205,5.9205,5.9205,5.9205,5.9205,5.9205,5.9879,6.0582,6.1059,6.1256,6.1846,6.2207,6.246,6.2628,6.2684,6.2825,6.2947,6.3273,6.3842,6.5101,6.5379,6.6027,6.7166,6.7716,6.8084,6.8386,6.8656,6.8472,6.8017,6.7568,6.7148,6.6879,6.64,6.5832,6.5383,6.5862,6.6371,6.6609,6.6846,6.732,6.7729,6.7892,6.7722,6.7869,6.8044,6.8491,6.9123,6.9674,7.064,7.2052,7.2979,7.3887,7.4323,7.4779,7.517,7.5316,7.5316,7.5252,7.5417,7.6,7.6946,7.7232,7.7029,7.6927,7.6884,7.6612,7.6132,5.2895,5.2895,5.2895,5.2895,5.2895,5.2895,5.2895,5.2895,5.2895,5.2895,5.282,5.2544,5.2248,5.1911,5.1718,5.1205,5.0427,5.0298,5.0239,5.0287,5.0311,5.0431,5.0648,5.0672,5.0407,5.0154,5.0009,4.9998,4.9662,4.9277,4.9239,4.9669,5.0287,5.0921,5.1406,5.2605,5.3999,5.5325,5.6451,5.7146,5.7344,5.7465,5.7718,5.8278,5.8615,5.8924,5.9121,5.9205,5.9205,5.9205,5.9205,5.9205,5.9286,5.9539,6.0157,6.0947,6.1453,6.1902,6.2431,6.274,6.2853,6.2909,6.2909,6.2881,6.3013,6.3437,6.4054,6.5058,6.5555,6.6341,6.7202,6.7418,6.802,6.841,6.874,6.8737,6.8526,6.8107,6.7718,6.7508,6.7299,6.7001,6.6792,6.7214,6.7759,6.8031,6.8574,6.9327,6.9825,7.0279,6.989,6.9384,6.9499,6.9703,7.041,7.1059,7.1783,7.2959,7.376,7.4522,7.4926,7.534,7.558,7.5676,7.5556,7.5576,7.5643,7.6468,7.7502,7.7705,7.7773,7.7502,7.7198,7.6376,7.6059,5.2895,5.2895,5.2895,5.2895,5.2895,5.2895,5.2895,5.2895,5.2895,5.2895,5.2795,5.2494,5.1868,5.1294,5.1466,5.1143,4.9937,4.9913,5.0009,5.0057,5.0202,5.0551,5.1032,5.1129,5.096,5.049,5.072,5.0888,5.0768,5.0359,5.0046,5.0274,5.0749,5.1245,5.1781,5.2751,5.4137,5.6259,5.72,5.7706,5.7884,5.7744,5.8025,5.8502,5.8924,5.9205,5.9205,5.9205,5.9205,5.9205,5.9205,5.9289,5.9483,5.9848,6.0494,6.1228,6.1762,6.2179,6.26,6.2881,6.2881,6.2876,6.2809,6.2743,6.2814,6.3409,6.4238,6.5058,6.5497,6.6221,6.6992,6.7298,6.7928,6.8528,6.8826,6.8975,6.9034,6.8736,6.8437,6.8258,6.829,6.8688,6.8569,6.8812,6.9149,6.9456,7.019,7.1224,7.1808,7.23,7.1981,7.1358,7.1286,7.1356,7.1681,7.2426,7.3175,7.3833,7.4647,7.5115,7.5474,7.5552,7.5628,7.5676,7.5811,7.5686,7.5648,7.6869,7.7967,7.7671,7.7536,7.7671,7.7367,7.6521,7.6347,5.2895,5.2895,5.2895,5.2895,5.2895,5.2895,5.2895,5.2895,5.2895,5.2845,5.2719,5.271,5.2017,5.127,5.1211,5.0972,4.9841,4.9889,5.0057,5.0335,5.072,5.1105,5.1586,5.1874,5.2031,5.1886,5.173,5.1802,5.1946,5.1634,5.1369,5.1417,5.1446,5.1605,5.2124,5.3135,5.4839,5.6722,5.775,5.8328,5.8531,5.8474,5.8418,5.8924,5.9149,5.9205,5.9205,5.9289,5.9345,5.9345,5.9458,5.9654,6.0016,6.0297,6.0915,6.1621,6.2043,6.2403,6.2769,6.2881,6.2881,6.2814,6.2648,6.2482,6.2448,6.2753,6.3706,6.5059,6.5568,6.6513,6.7345,6.8017,6.8375,6.8824,6.9213,6.9363,6.9482,6.9482,6.9215,6.9037,6.9227,6.9599,7.0339,7.0524,7.0645,7.0954,7.2019,7.2984,7.3467,7.3903,7.3784,7.3458,7.3264,7.3187,7.3116,7.3694,7.4294,7.4764,7.5417,7.5701,7.5918,7.5946,7.6217,7.6149,7.6318,7.598,7.598,7.7299,7.801,7.7468,7.7266,7.7401,7.7468,7.6961,7.715,5.2895,5.2895,5.2895,5.2895,5.2895,5.2895,5.2895,5.2895,5.2895,5.2503,5.1975,5.2167,5.146,5.0506,5.0484,5.0108,4.9115,4.9311,4.9576,4.9902,5.0359,5.1081,5.1682,5.2163,5.2295,5.2392,5.2355,5.2499,5.2729,5.2692,5.2932,5.2802,5.2332,5.225,5.273,5.3893,5.5722,5.6739,5.7678,5.8191,5.884,5.8306,5.8193,5.9118,5.9205,5.9205,5.9261,5.9595,5.9707,5.9848,6.0132,6.0413,6.0722,6.0971,6.1453,6.2015,6.2324,6.2628,6.2797,6.2881,6.2881,6.2814,6.2582,6.2315,6.2214,6.2554,6.3532,6.4675,6.5754,6.6828,6.8215,6.8615,6.8854,6.9333,6.9602,6.9722,6.9903,6.9933,6.9881,6.9646,7.0084,7.0612,7.1444,7.2275,7.2368,7.2552,7.3675,7.4728,7.5153,7.5647,7.5632,7.5483,7.5227,7.4911,7.4797,7.5079,7.5364,7.5744,7.6202,7.6367,7.6589,7.7096,7.7299,7.713,7.6985,7.6927,7.7266,7.8044,7.8111,7.7502,7.7164,7.7096,7.7164,7.7333,7.7871,5.2895,5.2895,5.2895,5.2895,5.2895,5.2895,5.2895,5.2895,5.2895,5.2327,5.1348,5.1766,5.1071,4.9889,4.9919,4.9669,4.899,4.8988,4.9359,4.9806,5.0431,5.1177,5.1826,5.2331,5.2729,5.2764,5.3029,5.333,5.3293,5.3654,5.3654,5.3464,5.3215,5.2853,5.3264,5.4954,5.6478,5.6952,5.7578,5.8107,5.8921,5.8109,5.8025,5.9008,5.9205,5.9402,5.9542,5.9876,6.0157,6.0409,6.075,6.1116,6.1425,6.1734,6.2043,6.2319,6.26,6.2881,6.2881,6.2881,6.2881,6.2848,6.2582,6.2281,6.2248,6.2693,6.3814,6.4933,6.6073,6.7417,6.8875,6.8944,6.9183,6.9602,6.9662,6.9782,7.0207,7.0359,7.0309,7.0257,7.1006,7.2029,7.3038,7.395,7.416,7.4375,7.5223,7.6217,7.6856,7.7338,7.7737,7.7474,7.714,7.6808,7.6517,7.6357,7.6245,7.6604,7.6965,7.7125,7.7435,7.7942,7.8044,7.7671,7.7638,7.7908,7.8111,7.8247,7.7976,7.7502,7.7435,7.7536,7.7942,7.8247,7.8517,5.2895,5.2895,5.2895,5.2895,5.2895,5.2895,5.2895,5.2895,5.287,5.2268,5.1423,5.1825,5.0996,4.9708,4.9805,4.9514,4.9053,4.9095,4.9576,5.0239,5.0672,5.161,5.244,5.2945,5.3077,5.3654,5.3726,5.3678,5.3726,5.3774,5.3785,5.3678,5.3295,5.3009,5.3289,5.544,5.666,5.6997,5.7665,5.8473,5.875,5.8135,5.8446,5.9064,5.9514,5.9767,6.0044,6.0353,6.0662,6.1059,6.1284,6.1621,6.1987,6.2043,6.2352,6.2769,6.2825,6.2881,6.2881,6.2909,6.2965,6.3021,6.2872,6.2671,6.2705,6.3319,6.4438,6.5775,6.6759,6.7924,6.8651,6.9153,6.9632,6.9871,6.9931,7.0083,7.0507,7.0946,7.0926,7.1281,7.2521,7.369,7.4739,7.5592,7.5906,7.6277,7.6925,7.7583,7.8225,7.8674,7.9035,7.8943,7.8522,7.8136,7.7681,7.7239,7.7159,7.7502,7.7807,7.801,7.8145,7.8483,7.845,7.8179,7.8382,7.872,7.8416,7.817,7.8314,7.8585,7.8247,7.8314,7.8754,7.9126,7.9431,5.2895,5.2895,5.2895,5.2895,5.2895,5.2895,5.2895,5.2895,5.282,5.2327,5.1473,5.1523,5.0547,4.9454,4.9336,4.9377,4.885,4.9504,5.0033,5.0215,5.0924,5.1658,5.2464,5.2993,5.3317,5.3678,5.3822,5.3785,5.3798,5.3785,5.3785,5.3702,5.3234,5.2998,5.326,5.4553,5.5585,5.6226,5.73,5.8387,5.8774,5.8684,5.8952,5.9735,6.0129,6.0469,6.0718,6.0999,6.1364,6.1706,6.1931,6.2296,6.2488,6.2516,6.2656,6.2881,6.2881,6.2881,6.3021,6.3162,6.3504,6.3465,6.3465,6.3505,6.3909,6.4673,6.575,6.6768,6.7786,6.8918,6.9978,7.0228,7.053,7.056,7.059,7.062,7.0929,7.1411,7.1734,7.2458,7.3476,7.5007,7.6256,7.6742,7.7079,7.7356,7.7818,7.8283,7.8836,7.9417,7.982,7.982,7.9609,7.9288,7.8889,7.8247,7.8111,7.845,7.8754,7.8957,7.9092,7.9126,7.9261,7.9228,7.9363,7.9464,7.9194,7.9126,7.9735,7.9904,7.9498,7.9295,7.96,8.0006,8.0378,5.2895,5.2895,5.2895,5.2895,5.2895,5.2895,5.2895,5.2895,5.287,5.2402,5.1724,5.1574,5.0722,4.9726,4.959,4.966,4.9273,5.0033,5.0683,5.0779,5.1369,5.197,5.2416,5.2825,5.3173,5.3558,5.375,5.3785,5.3785,5.3785,5.3582,5.3197,5.2993,5.249,5.2804,5.3818,5.5142,5.5876,5.6929,5.8251,5.8638,5.8993,5.9539,6.0269,6.0775,6.1172,6.142,6.179,6.2127,6.2347,6.2628,6.2881,6.2881,6.2881,6.2881,6.2881,6.2881,6.2993,6.3307,6.3504,6.3897,6.4459,6.4364,6.4561,6.5165,6.5969,6.6958,6.7973,6.8916,6.9794,7.0639,7.0886,7.0889,7.0889,7.1018,7.1018,7.1439,7.1918,7.2891,7.3599,7.4719,7.6267,7.7487,7.7801,7.8128,7.8403,7.8671,7.9081,7.9437,7.9894,8.0276,8.0175,8.0175,7.987,7.9498,7.9092,7.9092,7.9431,7.9498,7.9498,7.9769,7.9769,8.004,8.0209,7.9972,7.987,8.004,8.0242,8.0344,8.0581,8.0648,8.0513,8.0581,8.075,8.1012,5.2895,5.2895,5.2895,5.2895,5.2895,5.2895,5.2895,5.2895,5.2895,5.2569,5.2076,5.2026,5.122,5.0423,5.068,5.0732,5.0633,5.1164,5.1622,5.1959,5.2103,5.2295,5.2464,5.2849,5.3114,5.3269,5.3534,5.3785,5.3785,5.3785,5.3341,5.2692,5.2656,5.2176,5.2519,5.3307,5.4526,5.5133,5.6551,5.7715,5.8285,5.9157,6.0014,6.0758,6.1304,6.1645,6.1898,6.2183,6.2403,6.2656,6.2881,6.2881,6.2881,6.2881,6.2881,6.2881,6.2881,6.319,6.3616,6.3785,6.4459,6.5174,6.5453,6.5594,6.6275,6.7276,6.8268,6.9001,6.9791,7.026,7.0854,7.0886,7.0919,7.1051,7.1244,7.1566,7.2013,7.2798,7.3906,7.4931,7.6149,7.7422,7.8327,7.8812,7.9074,7.9308,7.9535,7.9821,8.0137,8.0215,8.0454,8.0242,8.0242,8.0276,7.9972,7.9634,7.96,7.9769,7.96,7.96,7.9938,8.0209,8.0209,8.0209,8.0209,8.0209,8.0209,8.031,8.0513,8.0784,8.1156,8.1156,8.1021,8.1012,8.1114,5.2895,5.2895,5.2895,5.2895,5.2895,5.2895,5.2895,5.2895,5.2895,5.2628,5.2101,5.2101,5.1469,5.033,5.1157,5.1136,5.1257,5.1537,5.1994,5.232,5.2488,5.2368,5.2536,5.2873,5.3066,5.3282,5.351,5.3785,5.3785,5.3785,5.3534,5.2993,5.2801,5.2248,5.2139,5.2586,5.3251,5.4248,5.5904,5.7049,5.8244,5.9341,6.0328,6.1133,6.194,6.2286,6.2488,6.2572,6.2769,6.2825,6.2881,6.2881,6.2881,6.2881,6.2881,6.2881,6.2937,6.3134,6.3729,6.4268,6.4887,6.5784,6.6395,6.7369,6.7974,6.8611,6.9453,7.0034,7.0355,7.0699,7.0854,7.0886,7.0919,7.1016,7.1373,7.2013,7.258,7.3629,7.481,7.6551,7.7747,7.864,7.9512,7.9693,7.9962,8.0198,8.0381,8.0602,8.0819,8.0873,8.0868,8.0716,8.0682,8.0851,8.0412,8.004,8.004,8.0073,7.987,7.9769,8.004,8.0242,8.0209,8.031,8.0479,8.0378,8.0209,8.0344,8.0445,8.1122,8.1528,8.1494,8.152,8.1554,8.1384,5.2895,5.2895,5.2895,5.2895,5.2895,5.2895,5.2895,5.2895,5.2895,5.2703,5.2452,5.2452,5.1843,5.1176,5.1908,5.2083,5.1525,5.2451,5.298,5.298,5.2836,5.2764,5.286,5.309,5.3234,5.3341,5.351,5.3785,5.3785,5.3737,5.3558,5.3114,5.3114,5.2464,5.1971,5.1946,5.2303,5.3338,5.4616,5.6038,5.763,5.9291,6.045,6.1431,6.2342,6.2792,6.2881,6.2881,6.2881,6.2881,6.2881,6.2881,6.2881,6.2881,6.2881,6.2881,6.2909,6.342,6.4128,6.4521,6.5224,6.6044,6.7037,6.7947,6.8716,6.9357,7.0147,7.0794,7.0856,7.0919,7.0919,7.0919,7.0919,7.0919,7.1631,7.2392,7.3385,7.4445,7.6097,7.797,7.9191,8.0091,8.0598,8.0724,8.0686,8.0563,8.0641,8.0862,8.1214,8.1555,8.1594,8.1502,8.1528,8.1528,8.1021,8.0547,8.0445,8.0344,8.0107,8.0073,8.0242,8.0581,8.0851,8.0885,8.0919,8.0818,8.0716,8.031,8.0378,8.1088,8.1629,8.1596,8.1824,8.223,8.1934,5.2895,5.2895,5.2895,5.2895,5.2895,5.2895,5.2895,5.2895,5.2895,5.2895,5.2845,5.287,5.2416,5.198,5.2763,5.285,5.2659,5.3201,5.3608,5.3798,5.3606,5.3365,5.3197,5.351,5.3413,5.3365,5.351,5.3785,5.3785,5.3761,5.3606,5.3186,5.321,5.2777,5.2103,5.1946,5.2284,5.2776,5.3832,5.5082,5.6744,5.8467,6.0179,6.1185,6.2125,6.2881,6.2881,6.2881,6.2881,6.2881,6.2881,6.2881,6.2881,6.2881,6.2881,6.2881,6.2881,6.3588,6.4297,6.4746,6.5477,6.6304,6.7229,6.8159,6.8938,6.9707,7.0462,7.1048,7.1145,7.0954,7.0921,7.0919,7.0919,7.118,7.1821,7.2767,7.3902,7.5469,7.7771,7.9411,8.0413,8.126,8.1426,8.1525,8.1591,8.1199,8.1334,8.1612,8.1825,8.2311,8.2225,8.2254,8.2314,8.2205,8.1629,8.1156,8.0851,8.0648,8.0412,8.0412,8.0581,8.1054,8.1596,8.1596,8.1528,8.146,8.1325,8.1054,8.0885,8.1088,8.1494,8.1596,8.1968,8.2712,8.2543,5.2895,5.2895,5.2895,5.2895,5.2895,5.2895,5.2895,5.2895,5.2895,5.2895,5.2895,5.2861,5.2688,5.2422,5.3343,5.3382,5.3023,5.3603,5.3927,5.3873,5.3785,5.3606,5.3269,5.3582,5.351,5.3389,5.351,5.3785,5.3785,5.3798,5.3798,5.3654,5.3582,5.3149,5.256,5.2475,5.2633,5.2671,5.3242,5.4419,5.6081,5.8166,5.9981,6.0975,6.1951,6.2781,6.2881,6.2881,6.2881,6.2881,6.2881,6.2881,6.2881,6.2881,6.2881,6.2881,6.2909,6.3616,6.4381,6.4887,6.5449,6.6313,6.7188,6.809,6.8972,6.9807,7.0528,7.1048,7.1307,7.1115,7.1018,7.0984,7.0986,7.1469,7.2043,7.3169,7.4384,7.685,7.9312,8.0464,8.1508,8.1989,8.2154,8.2254,8.2353,8.2577,8.2965,8.3172,8.3086,8.3269,8.2802,8.2799,8.3066,8.2889,8.228,8.1815,8.1485,8.1071,8.0767,8.0826,8.0987,8.1629,8.2272,8.2238,8.2205,8.2171,8.2137,8.2069,8.1934,8.1731,8.2002,8.234,8.2847,8.3524,8.3152,5.2895,5.2895,5.2895,5.2895,5.2895,5.2895,5.2895,5.2895,5.2895,5.2895,5.2895,5.2861,5.2723,5.2596,5.352,5.3598,5.312,5.3935,5.4001,5.3897,5.3761,5.3678,5.363,5.3678,5.3654,5.3558,5.3654,5.3785,5.3785,5.3785,5.3785,5.3785,5.3774,5.351,5.2956,5.2945,5.3041,5.2753,5.3066,5.4047,5.563,5.7633,5.9359,6.0426,6.1681,6.2582,6.2881,6.2881,6.2881,6.2881,6.2881,6.2881,6.2881,6.2881,6.2881,6.2881,6.3021,6.3476,6.4381,6.4943,6.5365,6.6313,6.7284,6.8246,6.914,6.9956,7.1004,7.1498,7.1401,7.1244,7.1403,7.1403,7.1242,7.1469,7.2391,7.3477,7.5594,7.812,7.9666,8.0559,8.1558,8.2486,8.2585,8.2585,8.268,8.2664,8.3249,8.347,8.3586,8.3756,8.3396,8.3254,8.3435,8.3346,8.2814,8.2417,8.2139,8.1659,8.1205,8.1687,8.2085,8.2517,8.2915,8.305,8.305,8.2915,8.2881,8.2813,8.2449,8.2137,8.2678,8.3321,8.3795,8.4106,8.3836,5.2895,5.2895,5.2895,5.2895,5.2895,5.2895,5.2895,5.2895,5.2895,5.2895,5.2895,5.2895,5.2723,5.2899,5.3506,5.3269,5.3448,5.4168,5.4175,5.3897,5.3822,5.3712,5.3712,5.3761,5.375,5.375,5.3785,5.3785,5.3785,5.3785,5.3785,5.3785,5.3654,5.3413,5.2956,5.298,5.3354,5.3293,5.3573,5.4016,5.5483,5.7086,5.8453,5.995,6.1444,6.2648,6.2781,6.2881,6.2881,6.2881,6.2881,6.2881,6.2881,6.2881,6.2881,6.2881,6.2909,6.3616,6.4465,6.4803,6.5562,6.6447,6.746,6.8285,6.9067,6.9986,7.1018,7.1607,7.1511,7.1592,7.175,7.1754,7.1564,7.1786,7.2828,7.4151,7.6708,7.9219,8.0217,8.0978,8.1807,8.2835,8.294,8.294,8.2873,8.2858,8.2932,8.3099,8.3237,8.3409,8.3339,8.3321,8.3509,8.3356,8.3195,8.2871,8.2554,8.2225,8.1881,8.2544,8.3114,8.3404,8.3734,8.4072,8.4065,8.37,8.349,8.3389,8.3024,8.2754,8.3321,8.393,8.3998,8.4275,8.4444,5.2895,5.2895,5.2895,5.2895,5.2895,5.2895,5.2895,5.2895,5.2895,5.2895,5.2895,5.2895,5.2826,5.2901,5.4014,5.4053,5.3569,5.4353,5.4249,5.3897,5.3822,5.3785,5.3785,5.3785,5.3785,5.3785,5.3785,5.3785,5.3785,5.3785,5.3785,5.3785,5.3785,5.3894,5.4231,5.4231,5.4231,5.4183,5.4149,5.4496,5.5199,5.6639,5.7911,5.9402,6.0975,6.1884,6.2448,6.2748,6.2848,6.2881,6.2881,6.2881,6.2881,6.2881,6.2881,6.2881,6.2881,6.3645,6.4353,6.4718,6.5477,6.6433,6.7263,6.77,6.8529,6.9367,7.0487,7.1705,7.1803,7.1988,7.2121,7.2006,7.1913,7.2603,7.3478,7.5375,7.7615,7.9833,8.1547,8.1995,8.2489,8.3026,8.3165,8.308,8.2883,8.293,8.3098,8.3204,8.3204,8.3221,8.3326,8.3426,8.3526,8.3665,8.3568,8.3188,8.2838,8.2577,8.2503,8.2985,8.3481,8.408,8.4411,8.4432,8.4493,8.4283,8.4114,8.387,8.3971,8.3836,8.4106,8.4444,8.4411,8.4377,8.4546]}]]